[[{"header":{"parameterUnit":"m.s-1","parameterCategory":1,"la1":30.6,"la2":28.766,"lo1":-90.7593,"lo2":-88.6598,"dy":0.0162,"dx":0.0183,"nx":116,"ny":114,"refTime":"2023-05-04T00:00:00:Z","depth":0,"parameterNumber":2,"parameterNumberName":"U-component_of_WINDS"},"data":[0.0,0.0,0.0,0.0,0.0,0.0,0.0,0.0,0.0,0.0,0.0,0.0,0.0,0.0,0.0,0.0,0.0,0.0,0.0,0.0,0.0,0.0,0.0,0.0,0.0,0.0,0.0,0.0,0.0,0.0,0.0,0.0,0.0,0.0,0.0,0.0,0.0,0.0,0.0,0.0,0.0,0.0,0.0,0.0,0.0,0.0,0.0,0.0,0.0,0.0,0.0,0.0,0.0,0.0,0.0,0.0,0.0,0.0,0.0,0.0,0.0,0.0,0.0,0.0,0.0,0.0,0.0,0.0,0.0,0.0,0.0,0.0,0.0,0.0,0.0,0.0,0.0,0.0,0.0,0.0,0.0,0.0,0.0,0.0,0.0,0.0,0.0,0.0,0.0,0.0,0.0,0.0,0.0,0.0,0.0,0.0,0.0,0.0,0.0,0.0,0.0,0.0,0.0,0.0,0.0,0.0,0.0,0.0,0.0,0.0,0.0,0.0,0.0,0.0,0.0,0.0,0.0,0.0,0.0,0.0,0.0,0.0,0.0,0.0,0.0,0.0,0.0,0.0,0.0,0.0,0.0,0.0,0.0,0.0,0.0,0.0,0.0,0.0,0.0,0.0,0.0,0.0,0.0,0.0,0.0,0.0,0.0,0.0,0.0,0.0,0.0,0.0,0.0,0.0,0.0,0.0,0.0,0.0,0.0,0.0,0.0,0.0,0.0,0.0,0.0,0.0,0.0,0.0,0.0,0.0,0.0,0.0,0.0,0.0,0.0,0.0,0.0,0.0,0.0,0.0,0.0,0.0,0.0,0.0,0.0,0.0,0.0,0.0,0.0,0.0,0.0,0.0,0.0,0.0,0.0,0.0,0.0,0.0,0.0,0.0,0.0,0.0,0.0,0.0,0.0,0.0,0.0,0.0,0.0,0.0,0.0,0.0,0.0,0.0,0.0,0.0,0.0,0.0,0.0,0.0,0.0,0.0,0.0,0.0,0.0,0.0,0.0,0.0,0.0,0.0,0.0,0.0,0.0,0.0,0.0,0.0,0.0,0.0,0.0,0.0,0.0,0.0,0.0,0.0,0.0,0.0,0.0,0.0,0.0,0.0,0.0,0.0,0.0,0.0,0.0,0.0,0.0,0.0,0.0,0.0,0.0,0.0,0.0,0.0,0.0,0.0,0.0,0.0,0.0,0.0,0.0,0.0,0.0,0.0,0.0,0.0,0.0,0.0,0.0,0.0,0.0,0.0,0.0,0.0,0.0,0.0,0.0,0.0,0.0,0.0,0.0,0.0,0.0,0.0,0.0,0.0,0.0,0.0,0.0,0.0,0.0,0.0,0.0,0.0,0.0,0.0,0.0,0.0,0.0,0.0,0.0,0.0,0.0,0.0,0.0,0.0,0.0,0.0,0.0,0.0,0.0,0.0,0.0,0.0,0.0,0.0,0.0,0.0,0.0,0.0,0.0,0.0,0.0,0.0,0.0,0.0,0.0,0.0,0.0,0.0,0.0,0.0,0.0,0.0,0.0,0.0,0.0,0.0,0.0,0.0,0.0,0.0,0.0,0.0,0.0,0.0,0.0,0.0,0.0,0.0,0.0,0.0,0.0,0.0,0.0,0.0,0.0,0.0,0.0,0.0,0.0,0.0,0.0,0.0,0.0,0.0,0.0,0.0,0.0,0.0,0.0,0.0,0.0,0.0,0.0,0.0,0.0,0.0,0.0,0.0,0.0,0.0,0.0,0.0,0.0,0.0,0.0,0.0,0.0,0.0,0.0,0.0,0.0,0.0,0.0,0.0,0.0,0.0,0.0,0.0,0.0,0.0,0.0,0.0,0.0,0.0,0.0,0.0,0.0,0.0,0.0,0.0,0.0,0.0,0.0,0.0,0.0,0.0,0.0,0.0,0.0,0.0,0.0,0.0,0.0,0.0,0.0,0.0,0.0,0.0,0.0,0.0,0.0,0.0,0.0,0.0,0.0,0.0,0.0,0.0,0.0,0.0,0.0,0.0,0.0,0.0,0.0,0.0,0.0,0.0,0.0,0.0,0.0,0.0,0.0,0.0,0.0,0.0,0.0,0.0,0.0,0.0,0.0,0.0,0.0,0.0,0.0,0.0,0.0,0.0,0.0,0.0,0.0,0.0,0.0,0.0,0.0,0.0,0.0,0.0,0.0,0.0,0.0,0.0,0.0,0.0,0.0,0.0,0.0,0.0,0.0,0.0,0.0,0.0,0.0,0.0,0.0,0.0,0.0,0.0,0.0,0.0,0.0,0.0,0.0,0.0,0.0,0.0,0.0,0.0,0.0,0.0,0.0,0.0,0.0,0.0,0.0,0.0,0.0,0.0,0.0,0.0,0.0,0.0,0.0,0.0,0.0,0.0,0.0,0.0,0.0,0.0,0.0,0.0,0.0,0.0,0.0,0.0,0.0,0.0,0.0,0.0,0.0,0.0,0.0,0.0,0.0,0.0,0.0,0.0,0.0,0.0,0.0,0.0,0.0,0.0,0.0,0.0,0.0,0.0,0.0,0.0,0.0,0.0,0.0,0.0,0.0,0.0,0.0,0.0,0.0,0.0,0.0,0.0,0.0,0.0,0.0,0.0,0.0,0.0,0.0,0.0,0.0,0.0,0.0,0.0,0.0,0.0,0.0,0.0,0.0,0.0,0.0,0.0,0.0,0.0,0.0,0.0,0.0,0.0,0.0,0.0,0.0,0.0,0.0,0.0,0.0,0.0,0.0,0.0,0.0,0.0,0.0,0.0,0.0,0.0,0.0,0.0,0.0,0.0,0.0,0.0,0.0,0.0,0.0,0.0,0.0,0.0,0.0,0.0,0.0,0.0,0.0,0.0,0.0,0.0,0.0,0.0,0.0,0.0,0.0,0.0,0.0,0.0,0.0,0.0,0.0,0.0,0.0,0.0,0.0,0.0,0.0,0.0,0.0,0.0,0.0,0.0,0.0,0.0,0.0,0.0,0.0,0.0,0.0,0.0,0.0,0.0,0.0,0.0,0.0,0.0,0.0,0.0,0.0,0.0,0.0,0.0,0.0,0.0,0.0,0.0,0.0,0.0,0.0,0.0,0.0,0.0,0.0,0.0,0.0,0.0,0.0,0.0,0.0,0.0,0.0,0.0,0.0,0.0,0.0,0.0,0.0,0.0,0.0,0.0,0.0,0.0,0.0,0.0,0.0,0.0,0.0,0.0,0.0,0.0,0.0,0.0,0.0,0.0,0.0,0.0,0.0,0.0,0.0,0.0,0.0,0.0,0.0,0.0,0.0,0.0,0.0,0.0,0.0,0.0,0.0,0.0,0.0,0.0,0.0,0.0,0.0,0.0,0.0,0.0,0.0,0.0,0.0,0.0,0.0,0.0,0.0,0.0,0.0,0.0,0.0,0.0,0.0,0.0,0.0,0.0,0.0,0.0,0.0,0.0,0.0,0.0,0.0,0.0,0.0,0.0,0.0,0.0,0.0,0.0,0.0,0.0,0.0,0.0,0.0,0.0,0.0,0.0,0.0,0.0,0.0,0.0,0.0,0.0,0.0,0.0,0.0,0.0,0.0,0.0,0.0,0.0,0.0,0.0,0.0,0.0,0.0,0.0,0.0,0.0,0.0,0.0,0.0,0.0,0.0,0.0,0.0,0.0,0.0,0.0,0.0,0.0,0.0,0.0,0.0,0.0,0.0,0.0,0.0,0.0,0.0,0.0,0.0,0.0,0.0,0.0,0.0,0.0,0.0,0.0,0.0,0.0,0.0,0.0,0.0,0.0,0.0,0.0,0.0,0.0,0.0,0.0,0.0,0.0,0.0,0.0,0.0,0.0,0.0,0.0,0.0,0.0,0.0,0.0,0.0,0.0,0.0,0.0,0.0,0.0,0.0,0.0,0.0,0.0,0.0,0.0,0.0,0.0,0.0,0.0,0.0,0.0,0.0,0.0,0.0,0.0,0.0,0.0,0.0,0.0,0.0,0.0,0.0,0.0,0.0,0.0,0.0,0.0,0.0,0.0,0.0,0.0,0.0,0.0,0.0,0.0,0.0,0.0,0.0,0.0,0.0,0.0,0.0,0.0,0.0,0.0,0.0,0.0,0.0,0.0,0.0,0.0,0.0,0.0,0.0,0.0,0.0,0.0,0.0,0.0,0.0,0.0,0.0,0.0,0.0,0.0,0.0,0.0,0.0,0.0,0.0,0.0,0.0,0.0,0.0,0.0,0.0,0.0,0.0,0.0,0.0,0.0,0.0,0.0,0.0,0.0,0.0,0.0,0.0,0.0,0.0,0.0,0.0,0.0,0.0,0.0,0.0,0.0,0.0,0.0,0.0,0.0,0.0,0.0,0.0,0.0,0.0,0.0,0.0,0.0,0.0,0.0,0.0,0.0,0.0,0.0,0.0,0.0,0.0,0.0,0.0,0.0,0.0,0.0,0.0,0.0,0.0,0.0,0.0,0.0,0.0,0.0,0.0,0.0,0.0,0.0,0.0,0.0,0.0,0.0,0.0,0.0,0.0,0.0,0.0,0.0,0.0,0.0,0.0,0.0,0.0,0.0,0.0,0.0,0.0,0.0,0.0,0.0,0.0,0.0,0.0,0.0,0.0,0.0,0.0,0.0,0.0,0.0,0.0,0.0,0.0,0.0,0.0,0.0,0.0,0.0,0.0,0.0,0.0,0.0,0.0,0.0,0.0,0.0,0.0,0.0,0.0,0.0,0.0,0.0,0.0,0.0,0.0,0.0,0.0,0.0,0.0,0.0,0.0,0.0,0.0,0.0,0.0,0.0,0.0,0.0,0.0,0.0,0.0,0.0,0.0,0.0,0.0,0.0,0.0,0.0,0.0,0.0,0.0,0.0,0.0,0.0,0.0,0.0,0.0,0.0,0.0,0.0,0.0,0.0,0.0,0.0,0.0,0.0,0.0,0.0,0.0,0.0,0.0,0.0,0.0,0.0,0.0,0.0,0.0,0.0,0.0,0.0,0.0,0.0,0.0,0.0,0.0,0.0,0.0,0.0,0.0,0.0,0.0,0.0,0.0,0.0,0.0,0.0,0.0,0.0,0.0,0.0,0.0,0.0,0.0,0.0,0.0,0.0,0.0,0.0,0.0,0.0,0.0,0.0,0.0,0.0,0.0,0.0,0.0,0.0,0.0,0.0,0.0,0.0,0.0,0.0,0.0,0.0,0.0,0.0,0.0,0.0,0.0,0.0,0.0,0.0,0.0,0.0,0.0,0.0,0.0,0.0,0.0,0.0,0.0,0.0,0.0,0.0,0.0,0.0,0.0,0.0,0.0,0.0,0.0,0.0,0.0,0.0,0.0,0.0,0.0,0.0,0.0,0.0,0.0,0.0,0.0,0.0,0.0,0.0,0.0,0.0,0.0,0.0,0.0,0.0,0.0,0.0,0.0,0.0,0.0,0.0,0.0,0.0,0.0,0.0,0.0,0.0,0.0,0.0,0.0,0.0,0.0,0.0,0.0,0.0,0.0,0.0,0.0,0.0,0.0,0.0,0.0,0.0,0.0,0.0,0.0,0.0,0.0,0.0,0.0,0.0,0.0,0.0,0.0,0.0,0.0,0.0,0.0,0.0,0.0,0.0,0.0,0.0,0.0,0.0,0.0,0.0,0.0,0.0,0.0,0.0,0.0,0.0,0.0,0.0,0.0,0.0,0.0,0.0,0.0,0.0,0.0,0.0,0.0,0.0,0.0,0.0,0.0,0.0,0.0,0.0,0.0,0.0,0.0,0.0,0.0,0.0,0.0,0.0,0.0,0.0,0.0,0.0,0.0,0.0,0.0,0.0,0.0,0.0,0.0,0.0,0.0,0.0,0.0,0.0,0.0,0.0,0.0,0.0,0.0,0.0,0.0,0.0,0.0,0.0,0.0,0.0,0.0,0.0,0.0,0.0,0.0,0.0,0.0,0.0,0.0,0.0,0.0,0.0,0.0,0.0,0.0,0.0,0.0,0.0,0.0,0.0,0.0,0.0,0.0,0.0,0.0,0.0,0.0,0.0,0.0,0.0,0.0,0.0,0.0,0.0,0.0,0.0,0.0,0.0,0.0,0.0,0.0,0.0,0.0,0.0,0.0,0.0,0.0,0.0,0.0,0.0,-4.0256,0.0,0.0,0.0,0.0,0.0,0.0,0.0,0.0,0.0,0.0,0.0,0.0,0.0,0.0,0.0,0.0,0.0,0.0,0.0,0.0,0.0,0.0,0.0,0.0,0.0,0.0,0.0,0.0,0.0,0.0,0.0,0.0,0.0,0.0,0.0,0.0,0.0,0.0,0.0,-3.2381,-3.3029,-3.3691,-3.4027,-3.3669,-3.2753,0.0,0.0,0.0,0.0,0.0,0.0,0.0,0.0,0.0,0.0,0.0,0.0,0.0,0.0,0.0,0.0,0.0,0.0,0.0,0.0,0.0,0.0,0.0,0.0,0.0,0.0,0.0,0.0,0.0,0.0,0.0,0.0,0.0,0.0,0.0,0.0,0.0,0.0,0.0,0.0,0.0,0.0,0.0,0.0,0.0,0.0,0.0,0.0,0.0,0.0,0.0,0.0,0.0,0.0,0.0,0.0,0.0,0.0,0.0,0.0,0.0,0.0,0.0,0.0,0.0,0.0,0.0,0.0,0.0,0.0,0.0,-4.21,0.0,0.0,0.0,0.0,0.0,0.0,0.0,0.0,0.0,0.0,0.0,0.0,0.0,0.0,0.0,0.0,0.0,0.0,0.0,0.0,0.0,0.0,0.0,0.0,0.0,0.0,0.0,0.0,0.0,0.0,0.0,0.0,0.0,0.0,0.0,0.0,0.0,-3.1499,-3.3213,-3.4588,-3.5616,-3.5825,-3.5059,-3.3458,-3.3508,0.0,0.0,0.0,0.0,0.0,0.0,0.0,0.0,0.0,0.0,0.0,0.0,0.0,0.0,0.0,0.0,0.0,0.0,0.0,0.0,0.0,0.0,0.0,0.0,0.0,0.0,0.0,0.0,0.0,0.0,0.0,0.0,0.0,0.0,0.0,0.0,0.0,0.0,0.0,0.0,0.0,0.0,0.0,0.0,0.0,0.0,0.0,0.0,0.0,0.0,0.0,0.0,0.0,0.0,0.0,0.0,0.0,0.0,0.0,0.0,0.0,0.0,0.0,-4.6372,-4.7342,-4.7919,-4.8084,-4.8621,-4.9346,-4.8867,-4.7636,-4.5844,0.0,0.0,0.0,0.0,0.0,0.0,0.0,0.0,0.0,0.0,0.0,0.0,0.0,0.0,0.0,0.0,0.0,0.0,0.0,0.0,0.0,0.0,0.0,0.0,0.0,0.0,0.0,0.0,0.0,0.0,0.0,0.0,0.0,0.0,-2.8927,-2.9685,-3.1497,-3.414,-3.5514,-3.5712,-3.6766,-3.7114,-3.6817,-3.573,-3.4872,-3.423,0.0,0.0,0.0,0.0,0.0,0.0,0.0,0.0,0.0,0.0,0.0,0.0,0.0,0.0,0.0,0.0,0.0,0.0,0.0,0.0,0.0,0.0,0.0,0.0,0.0,0.0,0.0,0.0,0.0,0.0,0.0,0.0,0.0,0.0,0.0,0.0,0.0,0.0,0.0,0.0,0.0,-3.8382,-4.1339,0.0,0.0,0.0,0.0,0.0,0.0,0.0,0.0,0.0,0.0,0.0,0.0,0.0,-4.2632,-4.3563,-4.649,-4.7672,-4.7132,-5.0694,-5.2098,-5.162,-5.2456,-5.3273,-5.3997,-5.351,0.0,-4.8278,-4.5346,0.0,0.0,0.0,0.0,0.0,0.0,0.0,0.0,0.0,0.0,0.0,0.0,0.0,0.0,0.0,0.0,0.0,0.0,0.0,0.0,0.0,0.0,0.0,0.0,0.0,0.0,0.0,0.0,0.0,0.0,0.0,-2.791,-2.8297,-2.8098,-2.9699,-3.3251,-3.5653,-3.7359,-3.8416,-3.8958,-3.9199,-3.9166,-3.8616,-3.7431,-3.5877,-3.5901,0.0,0.0,0.0,0.0,0.0,0.0,0.0,0.0,0.0,0.0,0.0,0.0,0.0,0.0,0.0,0.0,0.0,0.0,0.0,0.0,0.0,0.0,0.0,0.0,0.0,0.0,0.0,0.0,0.0,0.0,0.0,0.0,0.0,0.0,0.0,0.0,0.0,0.0,0.0,-3.6912,-3.9503,-4.0371,-4.035,-3.926,0.0,0.0,0.0,0.0,0.0,0.0,0.0,0.0,0.0,-4.4801,-4.6305,-4.7647,-4.8859,-5.183,-5.3385,-5.3533,-5.5928,-5.6878,-5.6587,-5.7,-5.7132,-5.7002,-5.6326,-5.4894,-5.2717,-4.9185,-4.685,-4.5137,0.0,0.0,0.0,0.0,0.0,-3.9808,0.0,0.0,0.0,0.0,0.0,0.0,0.0,0.0,0.0,0.0,0.0,0.0,0.0,0.0,0.0,-3.3053,0.0,0.0,0.0,0.0,0.0,0.0,0.0,-2.7063,-2.7502,-2.8339,-3.0664,-3.4552,-3.6991,-3.9011,-4.0514,-4.0722,-4.091,-4.1047,-4.1302,-3.9973,-3.7572,-3.7415,-3.6517,-3.5116,0.0,0.0,0.0,0.0,0.0,0.0,0.0,0.0,0.0,0.0,0.0,0.0,0.0,0.0,0.0,0.0,0.0,0.0,0.0,0.0,0.0,0.0,0.0,0.0,0.0,0.0,0.0,0.0,0.0,0.0,0.0,0.0,0.0,0.0,0.0,0.0,0.0,-3.9282,-4.1103,-4.0532,-4.2072,-4.181,0.0,0.0,0.0,0.0,0.0,0.0,-4.4637,-4.5249,-4.659,-4.8904,-5.0802,-5.2441,-5.3849,-5.625,-5.7798,-5.851,-5.9434,-5.9881,-5.9881,-5.968,-5.9274,-5.8679,-5.8085,-5.7262,-5.6125,-5.2528,-4.9635,-4.721,-4.47,-4.303,-4.198,-4.1477,-4.1413,-4.1696,0.0,0.0,0.0,0.0,0.0,0.0,0.0,0.0,0.0,0.0,0.0,0.0,0.0,0.0,-3.3676,-3.4013,-3.3531,-3.2505,0.0,0.0,-2.81,-2.7043,-2.6875,-2.6842,-2.6944,-3.0441,-3.2976,-3.4417,-3.7871,-3.9903,-4.053,-4.1357,-4.1997,-4.2522,-4.3424,-4.2104,-3.9135,-3.8513,-3.7715,-3.6722,-3.4894,0.0,0.0,0.0,0.0,0.0,0.0,0.0,0.0,0.0,0.0,0.0,0.0,0.0,0.0,0.0,0.0,0.0,0.0,0.0,0.0,0.0,0.0,0.0,0.0,0.0,0.0,0.0,0.0,0.0,0.0,0.0,0.0,0.0,0.0,0.0,0.0,0.0,0.0,-4.4612,-4.8271,0.0,0.0,0.0,0.0,-4.3768,-4.4417,-4.6296,-4.9454,-4.9501,-5.1355,-5.5577,-5.5587,-5.6181,-5.7525,-5.8427,-5.9051,-5.9343,-5.966,-5.981,-5.9792,-5.9062,-5.8754,-5.8716,-5.8661,-5.8116,-5.6976,-5.3812,-5.1436,-4.9527,-4.6541,-4.5294,-4.4972,-4.3316,-4.3174,-4.3813,0.0,0.0,0.0,0.0,0.0,0.0,0.0,0.0,0.0,-2.8347,-2.9769,0.0,0.0,-3.4174,-3.6414,-3.6228,-3.721,-3.6662,-3.3904,0.0,-2.9676,-2.7907,-2.6725,-2.6874,-2.8602,-3.1725,-3.4206,-3.5947,-3.8618,-4.0195,-4.0816,-4.115,-4.164,-4.2302,-4.3138,-4.3115,-4.2404,-4.1737,-4.008,-3.781,-3.6814,-3.5475,0.0,0.0,0.0,0.0,0.0,0.0,0.0,0.0,0.0,0.0,0.0,0.0,0.0,0.0,0.0,0.0,0.0,0.0,0.0,0.0,0.0,0.0,0.0,0.0,0.0,0.0,0.0,0.0,0.0,0.0,0.0,0.0,0.0,0.0,0.0,0.0,0.0,-4.6081,-4.8903,0.0,-4.769,-4.798,-4.8323,-4.8403,-5.0167,-5.177,-5.3085,-5.4032,-5.541,-5.7283,-5.7947,-5.8903,-6.0223,-6.0864,-6.124,-6.1323,-6.1245,-6.0932,-6.0437,-5.9761,-5.9199,-5.8716,-5.8716,-5.7916,-5.6577,-5.5428,-5.3959,-5.2065,-4.8925,-4.7673,-4.7452,-4.5802,-4.566,-4.6225,0.0,0.0,0.0,0.0,0.0,0.0,0.0,0.0,0.0,-2.8515,-3.011,-3.1542,-3.236,-3.5841,-3.8216,-3.8508,-3.8889,-3.7771,-3.4507,0.0,-2.9469,-2.7016,-2.6607,-2.7865,-3.0951,-3.3041,-3.5183,-3.7335,-3.8898,-4.0013,-4.0619,-4.0703,-4.1091,-4.1753,-4.2583,-4.3297,-4.3909,-4.3808,-4.243,-4.0242,-3.8712,-3.6862,-3.478,0.0,0.0,0.0,0.0,0.0,0.0,0.0,0.0,0.0,0.0,0.0,0.0,0.0,0.0,0.0,0.0,0.0,0.0,0.0,0.0,0.0,0.0,0.0,0.0,0.0,0.0,0.0,0.0,0.0,0.0,0.0,0.0,0.0,0.0,0.0,-4.7404,-4.7201,-5.0818,-5.2653,-5.0977,-5.1798,-5.2738,-5.3433,-5.4997,-5.6085,-5.6495,-5.718,-5.7957,-5.8844,-5.9249,-6.0205,-6.171,-6.1957,-6.2073,-6.2106,-6.1558,-6.0866,-5.9989,-5.9372,-5.8491,-5.7487,-5.8324,-5.7619,-5.5853,-5.617,-5.5463,-5.3865,-5.0879,-4.956,-4.9098,-4.7762,-4.7227,-4.699,0.0,0.0,0.0,0.0,0.0,0.0,0.0,0.0,0.0,-2.9151,-3.0385,-3.2432,-3.5688,-3.7295,-3.8827,-4.0531,-3.8091,-3.5222,-3.2311,-2.9811,-2.7194,-2.4411,-2.6666,-2.9831,-3.3786,-3.4499,-3.6002,-3.8427,-3.8871,-3.937,-3.9859,-4.0065,-4.0447,-4.1039,-4.1964,-4.2768,-4.346,-4.4398,-4.461,-4.4046,-4.0569,-3.8315,-3.6735,0.0,0.0,0.0,0.0,0.0,0.0,0.0,0.0,0.0,0.0,0.0,0.0,0.0,0.0,0.0,0.0,0.0,0.0,0.0,0.0,0.0,0.0,0.0,0.0,0.0,0.0,0.0,0.0,0.0,0.0,0.0,0.0,0.0,-3.8595,-4.5538,-5.0082,-4.8429,-5.4592,-5.7957,-5.5432,-5.7996,-5.9461,-5.8674,-5.8597,-5.8884,-5.9579,-5.8717,-5.8897,-6.0431,-5.9582,-6.0006,-6.186,-6.1503,-6.1354,-6.1502,-6.0348,-5.9338,-5.8452,-5.78,-5.6575,-5.5161,-5.7635,-5.7262,-5.5013,-5.5928,-5.5782,-5.4741,-5.2327,-5.0842,-4.9953,-4.9119,-4.7731,-4.6064,0.0,0.0,0.0,0.0,0.0,0.0,0.0,0.0,-2.8662,-2.8533,-3.1201,-3.3573,-3.4739,-3.7162,-3.9167,-4.0323,-3.7577,-3.4869,-3.2737,0.0,-2.708,-2.6187,-2.8618,-3.1716,-3.5321,-3.6661,-3.787,-3.8967,-3.8992,-3.9083,-3.9172,-3.8963,-3.9534,-4.0665,-4.1465,-4.2457,-4.3613,-4.4397,-4.4944,-4.5179,-4.3719,-4.1633,-3.9224,0.0,0.0,0.0,0.0,0.0,0.0,0.0,0.0,0.0,0.0,0.0,0.0,0.0,0.0,0.0,0.0,0.0,0.0,0.0,0.0,0.0,0.0,0.0,0.0,0.0,0.0,0.0,0.0,0.0,0.0,0.0,0.0,-4.6511,-4.6705,-5.0101,-5.3382,-5.5672,-5.8224,-5.9648,-5.9323,-5.9581,-5.9701,-5.9417,-5.9819,-5.9491,-5.8128,-5.8152,-5.8087,-5.7836,-5.7673,-5.8078,-5.9087,-5.9084,-5.9157,-5.9267,-5.8077,-5.772,-5.8119,-5.7696,-5.7563,-5.7691,-5.8399,-5.7637,-5.5928,-5.6189,-5.5447,-5.3961,-5.2104,-5.1231,-5.0842,-4.9394,-4.7834,-4.611,0.0,0.0,0.0,0.0,0.0,0.0,0.0,0.0,-2.8191,-2.8239,-3.0817,-3.3138,-3.4426,-3.6463,-3.8047,-3.889,-3.6795,-3.4004,-3.0686,-2.7617,-2.6872,-2.8944,-3.0801,-3.3438,-3.6897,-3.7541,-3.8253,-3.9128,-3.9201,-3.9203,-3.9135,-3.9113,-3.9516,-4.0281,-4.0573,-4.1601,-4.3173,-4.3615,-4.4531,-4.5658,-4.5266,-4.3535,-4.1118,-4.0811,-3.9654,-3.8152,-3.8012,-3.8003,-3.7707,-3.5525,0.0,0.0,0.0,0.0,0.0,0.0,0.0,0.0,0.0,0.0,0.0,0.0,0.0,0.0,0.0,0.0,0.0,0.0,0.0,0.0,0.0,0.0,0.0,0.0,-4.671,-5.105,-5.4295,-5.5543,-5.6981,-5.9218,-6.0419,-6.1041,-6.1058,-6.0958,-6.075,-6.0408,-6.0105,-5.9387,-5.8097,-5.7675,-5.716,-5.6437,-5.666,-5.7053,-5.7608,-5.7647,-5.7595,-5.7424,-5.6511,-5.6091,-5.6093,-5.6466,-5.633,0.0,-5.748,-5.6857,-5.472,-5.5446,-5.4983,0.0,0.0,0.0,0.0,0.0,-4.7293,-4.6197,0.0,0.0,0.0,0.0,0.0,0.0,0.0,0.0,-2.7424,-2.8317,-3.0017,-3.2107,-3.4555,-3.5616,-3.6371,-3.702,-3.5679,-3.264,-2.7503,-2.5613,-2.6862,-3.1804,-3.2996,-3.5007,-3.8245,-3.7854,-3.8083,-3.9075,-3.934,-3.9465,-3.9557,-3.9734,-3.9929,-4.0031,-3.9676,-4.0576,-4.2392,-4.2417,-4.3568,-4.5405,-4.552,-4.4408,-4.2702,-4.2813,-4.1704,-4.0255,-4.1721,-4.1295,-4.0095,-4.0476,0.0,0.0,0.0,0.0,0.0,0.0,0.0,0.0,0.0,0.0,0.0,0.0,0.0,0.0,0.0,0.0,0.0,0.0,0.0,0.0,0.0,0.0,0.0,0.0,-5.039,-5.4279,-6.0537,-6.0808,-6.0419,-6.0588,-6.1586,-6.2076,-6.1603,-6.1907,-6.1907,-6.1349,-5.9792,-5.8858,-5.8772,0.0,0.0,0.0,0.0,-5.6346,-5.6615,-5.6509,-5.6188,-5.5636,-5.5203,-5.4503,-5.3586,-5.4797,-5.4231,-5.2459,-5.5752,-5.5434,-5.2672,-5.4252,-5.4405,-5.3515,-5.1992,-5.1286,-5.0729,-4.7423,-4.6327,0.0,0.0,0.0,0.0,0.0,0.0,0.0,0.0,0.0,-2.8139,-2.9071,-3.1323,-3.3401,-3.4887,-3.5882,-3.654,-3.6844,-3.382,-3.0508,-2.717,-2.6996,-2.8561,-3.2006,-3.4291,-3.6402,-3.8415,-3.9424,-3.977,-3.9409,-3.92,-3.9349,-3.9893,-3.9126,-3.9358,-4.0401,-4.0316,-4.0795,-4.172,-4.1916,-4.2565,-4.3531,-4.437,-4.4874,-4.5045,-4.5064,-4.5226,-4.5384,-4.513,-4.5924,-4.6764,-4.4308,-4.3721,-4.3984,-4.3819,-4.1486,0.0,0.0,0.0,0.0,0.0,0.0,0.0,0.0,0.0,0.0,0.0,0.0,0.0,0.0,0.0,0.0,0.0,0.0,0.0,-5.0137,-5.4482,-5.8592,-6.1738,-6.2042,-6.2398,-6.3582,-6.2415,-6.1924,-6.299,-6.1552,-6.0757,-6.1264,-5.9811,-5.8616,-5.7963,-5.6353,-5.5119,-5.439,-5.4454,-5.4227,-5.3712,-5.3695,-5.3359,-5.2717,0.0,0.0,-5.4465,-5.4513,-5.4972,-5.5721,-5.5432,-5.4565,-5.3417,-5.4142,-5.3815,-5.2735,-5.1769,-5.058,-4.8983,-4.563,-4.5294,-4.6067,0.0,0.0,0.0,0.0,0.0,0.0,0.0,0.0,-2.7199,-2.7737,-2.9397,-3.1271,-3.3175,-3.2872,-3.2787,-3.3519,-3.0222,-2.8227,-2.8539,-2.9407,-3.1283,-3.4354,-3.6166,-3.7509,-3.8385,-3.9171,-3.9202,-3.8491,-3.9377,-3.9785,-3.9737,-3.9786,-4.0148,-4.0799,-4.0593,-4.0874,-4.152,-4.1643,-4.2162,-4.2955,-4.3707,-4.4559,-4.5543,-4.6846,-4.7861,-4.8597,-4.8961,-4.9776,-5.0442,-4.8849,-4.8531,-4.8779,-4.877,-4.69,-4.3907,0.0,0.0,0.0,0.0,0.0,0.0,0.0,0.0,0.0,0.0,0.0,0.0,0.0,0.0,-4.3124,-4.4339,0.0,-5.0043,-5.3923,-5.6748,-5.9624,-6.3024,-6.2854,-6.2939,-6.4427,-6.2973,-6.2144,-6.2888,-6.1924,-6.1264,-6.1298,-5.9502,-5.8234,-5.7823,-5.5957,-5.4463,-5.3523,-5.4015,-5.3877,-5.2948,-5.2718,-5.2321,-5.1783,-5.1618,-5.19,-5.2578,-5.3231,-5.3894,-5.451,-5.4529,-5.3983,-5.3096,-5.3096,-5.2601,-5.185,-5.1684,-5.0768,-4.9262,-4.7185,-4.6442,-4.6197,0.0,0.0,0.0,0.0,0.0,0.0,0.0,0.0,0.0,0.0,-2.7498,-2.9045,-3.1287,-2.9954,-2.8982,0.0,-2.7153,-2.697,-2.952,-3.1526,-3.3841,-3.664,-3.7855,-3.8402,-3.8339,-3.8653,-3.8479,-3.7861,-3.9677,-4.0261,-3.974,-4.0617,-4.108,-4.1189,-4.0867,-4.099,-4.1515,-4.1599,-4.2124,-4.2969,-4.3346,-4.4202,-4.5457,-4.7862,-4.9349,-5.0336,-5.1512,-5.2014,-5.2114,-5.2315,-5.2175,-5.1989,-5.2498,-5.1649,-4.9154,-4.2576,-4.1744,0.0,0.0,0.0,0.0,0.0,0.0,0.0,0.0,-3.9621,-4.1001,-4.2794,-4.4632,-4.668,-4.9173,-5.0377,-5.2606,-5.7543,-5.8558,-6.008,-6.3852,-6.3226,-6.2888,-6.4224,-6.2939,-6.2009,-6.2161,-6.1772,-6.1332,-6.0892,-5.8744,-5.7459,-5.7459,-5.5497,-5.4007,-5.3139,-5.3922,-5.3837,-5.266,-5.2275,-5.177,-5.1188,-5.0948,-5.0778,-5.0718,-5.1927,-5.2426,-5.2436,-5.3376,-5.3225,-5.2321,-5.2189,-5.1919,-5.1668,-5.2103,-5.1468,-5.0228,-4.9262,-4.7887,-4.6382,0.0,0.0,0.0,0.0,0.0,0.0,0.0,0.0,0.0,0.0,0.0,0.0,0.0,0.0,0.0,-2.513,-2.7158,-2.8408,-2.7848,-3.1966,-3.5095,-3.6642,-3.8365,-3.9014,-3.8492,-3.9359,-3.9576,-3.911,-3.9927,-4.0401,-4.0482,-4.0608,-4.0954,-4.1555,-4.1489,-4.1537,-4.1614,-4.1919,-4.2447,-4.3091,-4.3383,-4.4371,-4.5812,-4.7423,-4.8926,-5.0222,-5.0337,-5.0777,-5.1469,-5.2437,-5.1865,-5.1186,-5.3521,-5.3201,-5.0998,-4.6092,-4.3855,-4.1288,-3.341,-3.0155,-3.0061,-3.4549,-3.6728,-3.9012,0.0,-4.731,-4.9765,-5.005,-5.2841,-5.5412,-5.575,-5.7476,-5.9082,-5.9742,-6.0994,-6.2296,-6.348,-6.2922,-6.2702,-6.3548,-6.1687,-6.0639,-6.1349,-5.959,-5.8643,-5.9218,-5.7222,-5.5953,-5.5953,-5.4482,-5.3585,-5.3432,-5.3568,-5.2925,-5.1417,-5.1336,-5.0625,-4.93,-4.9976,-5.0816,-5.1708,-5.1432,-5.1815,-5.2709,-5.2144,-5.167,-5.1453,-5.2529,-5.3175,-5.3492,-5.355,-5.2642,-5.1063,-4.9485,-4.7887,-4.6382,0.0,0.0,0.0,0.0,0.0,0.0,0.0,0.0,0.0,0.0,0.0,0.0,0.0,-2.8454,-2.6029,-2.2428,-2.5159,-2.7243,-2.7648,-3.2288,-3.5723,-3.7221,-3.8936,-3.957,-3.8914,-3.9929,-4.0182,-3.9581,-4.0381,-4.0579,-4.0253,-4.0676,-4.1072,-4.1439,-4.1864,-4.212,-4.2268,-4.2824,-4.3275,-4.3738,-4.4382,-4.5152,-4.5981,-4.7151,-4.8051,-4.8505,-4.7621,-4.7379,0.0,0.0,-4.7848,-4.8169,-5.1985,-5.0865,-4.772,-4.5343,-4.291,-4.0364,-3.7524,-3.704,-3.7969,-4.0554,-4.36,-4.6442,-4.8154,-5.0617,-5.279,-5.3619,-5.6105,-5.822,-5.8643,-5.9133,-6.0047,-6.1806,-6.1501,-6.1789,-6.3852,-6.3142,-6.2347,-6.2245,-5.9827,-5.8812,-6.0436,-5.9742,-5.8947,-5.8406,-5.712,-5.6156,-5.5733,-5.4313,-5.3501,-5.3501,-5.3501,-5.2976,-5.186,-5.1388,-5.0693,-4.9627,-4.9744,-5.0269,-5.1123,-5.0844,-5.1211,-5.2072,-5.1544,-5.1077,-5.0784,-5.1313,-5.1353,-5.1253,-5.2444,-5.211,-5.0894,-5.049,-4.8723,-4.6438,0.0,0.0,0.0,0.0,0.0,0.0,0.0,0.0,0.0,0.0,0.0,0.0,0.0,-2.6233,-2.385,-2.0929,-2.3759,-2.6269,-2.7552,-3.2168,-3.5695,-3.7546,-3.9328,-4.0059,-3.9573,-4.0622,-4.0848,-4.0193,-4.1052,-4.1121,-4.052,-4.1053,-4.1525,-4.1904,-4.2249,-4.2721,-4.3216,-4.3725,-4.4259,-4.4807,-4.5695,-4.6185,-4.6464,-4.7125,-4.6754,-4.5824,-4.5157,-4.453,0.0,-4.3233,-4.3459,-4.4534,-4.7479,-4.6704,-4.444,-4.3013,-4.0072,-3.7615,-3.923,-4.0614,-4.2268,-4.5081,-4.8311,-5.0926,-5.1373,-5.2836,-5.4482,-5.575,-5.7611,-5.9302,-6.025,-5.9996,-6.0436,-6.2821,-6.1806,-6.1501,-6.3683,-6.2888,-6.167,-6.0503,-5.8254,-5.7019,-5.7594,-5.8034,-5.8017,-5.734,-5.6613,-5.5869,-5.5141,-5.4093,-5.3501,-5.3501,-5.3501,-5.3027,-5.2012,-5.1488,-5.0744,-4.9779,-4.9501,-4.9687,-5.0291,-5.0374,-5.0538,-5.0776,-5.0862,-5.0478,-4.9787,-5.014,-4.9955,-4.9554,-5.1081,-5.11,-5.0345,-5.073,-4.9303,-4.7107,0.0,0.0,0.0,0.0,0.0,0.0,0.0,0.0,0.0,0.0,0.0,0.0,0.0,-2.4712,-2.3536,-2.0848,-2.3898,-2.6349,-2.7162,-3.1323,-3.4873,-3.7394,-3.9405,-4.048,-4.0464,-4.1515,-4.1805,-4.124,-4.1996,-4.2142,-4.1754,-4.1834,-4.2414,-4.3301,-4.2689,-4.3162,-4.4442,-4.4458,-4.521,-4.6405,-4.7143,-4.7404,-4.7356,-4.7331,-4.5029,-4.2072,-4.3533,0.0,-4.1614,-3.9288,-3.9558,-4.0601,-3.9266,-4.0855,-4.2664,-3.9495,-3.5279,-3.2466,-3.628,-3.6237,-3.7058,-4.5193,-4.779,-4.9243,-5.2799,-5.4669,-5.5869,-5.6613,-5.7966,-5.9471,-6.0994,-6.1247,-6.1501,-6.2296,-6.2364,-6.2347,-6.2431,-6.1806,-6.0503,-5.8254,-5.7289,-5.5412,0.0,-5.2824,-5.4279,-5.5683,-5.5074,-5.4329,-5.3619,-5.3518,-5.3501,-5.3501,-5.3501,-5.2773,-5.1236,-5.1202,-5.049,-4.9035,-4.9018,-4.9202,-4.9552,-5.0132,-4.9779,-4.8748,-4.9923,-4.9561,-4.8286,-4.95,-5.0007,-4.997,-5.0047,-4.9849,-4.9536,-4.9555,-4.9252,-4.8612,0.0,0.0,0.0,0.0,0.0,0.0,0.0,0.0,0.0,0.0,0.0,0.0,0.0,0.0,0.0,0.0,-2.3371,-2.4663,-2.625,-2.9674,-3.2833,-3.5531,-3.8835,-4.046,-4.0119,-4.163,-4.2168,-4.1626,-4.2027,-4.2142,-4.2013,-4.2524,-4.2988,-4.3417,-4.4186,-4.4923,-4.5585,-4.6022,-4.6842,-4.7718,-4.683,-4.709,-4.7651,-4.5081,-4.2723,-4.051,0.0,-3.6282,-3.3997,-3.2696,-3.3259,-3.489,-3.6953,-3.6945,-3.5475,-3.1824,-3.294,-3.5566,-3.6744,-4.0456,-4.5047,-4.9399,-5.2104,-5.4027,-5.5276,-5.6133,-5.6724,-5.7067,-5.6161,-5.5548,-5.6145,-5.5736,-5.5902,-5.7679,-5.8372,-5.9539,-6.2042,-6.0452,-5.893,-5.866,-5.6258,0.0,0.0,0.0,0.0,-5.2774,-5.389,-5.4279,-5.3551,-5.3501,-5.3501,-5.3501,-5.3501,-5.2773,-5.1202,-5.1185,-5.0473,-4.9018,-4.9492,-4.9736,-4.9784,-5.0471,-5.0254,-4.9354,-4.9748,-4.9048,-4.7713,-4.8628,-4.8598,-4.8057,-4.9121,-4.9342,-4.8967,-4.8439,-4.8353,-4.8311,0.0,0.0,0.0,0.0,0.0,0.0,0.0,0.0,0.0,0.0,0.0,0.0,0.0,0.0,0.0,0.0,0.0,-2.3903,-2.5917,-2.8063,-3.0403,-3.2918,-3.6001,-3.752,-3.7243,-3.9232,-4.0238,-4.0172,-4.0929,-4.148,-4.1789,-4.2013,-4.2543,-4.333,-4.4461,-4.5538,-4.6584,-4.7159,-4.7668,-4.7878,-4.6032,-4.5471,-4.5358,-4.1856,-3.9309,0.0,-3.4206,-3.1421,-2.9038,-2.8492,-2.9513,-3.1287,-3.2929,-3.2261,-3.0793,-3.0354,-3.2957,-3.6718,-3.9925,-4.4652,-4.9533,-5.2922,-5.4939,-5.6127,-5.6127,-5.6252,-5.6388,-5.6405,-5.4924,-5.355,-5.3244,-5.2567,-5.2569,-5.4228,-5.5124,-5.6917,-6.0655,-5.9049,-5.778,-5.8524,-5.6055,-5.4346,0.0,0.0,0.0,-5.1725,-5.2942,-5.345,-5.2723,-5.2689,-5.2942,-5.3484,-5.3501,-5.2773,-5.1202,-5.1185,-5.0473,-4.9018,-4.9475,-4.9583,-4.9389,-5.0216,-5.0018,-4.8974,-4.9205,-4.85,-4.7265,-4.7561,-4.7273,-4.6755,-4.7796,-4.8156,-4.8063,-4.754,-4.7291,-4.7071,0.0,0.0,0.0,0.0,0.0,0.0,0.0,0.0,0.0,0.0,0.0,0.0,0.0,0.0,0.0,0.0,0.0,0.0,-2.6055,-2.6694,-2.7845,-2.9775,-3.1374,-3.2256,-3.2326,-3.4711,-3.6263,-3.697,-3.8721,-3.998,-4.0788,-4.0236,-4.095,-4.2734,-4.3279,-4.4735,-4.6837,-4.7221,-4.7157,-4.6595,-4.4358,-4.2501,-4.0756,-3.7784,-3.4921,-3.2278,-3.0815,-2.8852,-2.6922,-2.6758,-2.837,-3.0091,-2.7945,-2.7791,-2.9437,-3.4692,-3.5343,-3.6288,-4.5169,-4.8317,-5.0341,-5.5583,-5.6191,-5.5475,-5.5475,-5.5241,-5.4904,-5.4617,-5.3867,-5.2965,-5.1891,-5.1278,-5.1157,-5.196,-5.2824,-5.4685,-5.8423,-5.7679,-5.7002,-5.7695,-5.6562,-5.4854,-5.2638,-5.3145,0.0,-5.2317,0.0,-5.2063,-5.1369,-5.1303,-5.1978,-5.3399,-5.345,-5.2706,-5.1166,-5.1116,-5.0388,-4.9032,-4.9001,-4.8829,-4.8492,-4.9406,-4.9013,-4.7674,-4.8272,-4.7901,-4.6817,-4.6398,-4.6179,-4.6144,-4.6144,-4.6424,-4.6791,-4.6756,-4.6079,-4.5111,0.0,0.0,0.0,0.0,0.0,0.0,0.0,0.0,0.0,0.0,0.0,0.0,0.0,0.0,0.0,0.0,0.0,0.0,-2.4527,-2.6847,-2.8119,-2.7855,-3.1115,-3.2408,-3.1234,-3.2992,-3.3842,-3.3613,-3.465,-3.5214,-3.5411,-3.6343,-3.7028,-3.746,-3.817,-3.9126,-4.0248,-3.9191,-3.9712,-4.0957,-3.7598,-3.6996,-3.7659,-3.3666,-3.1619,-3.0711,-2.9333,-2.7705,-2.6254,-2.6705,-2.9422,-3.291,-3.4597,-3.5737,-3.649,-3.6667,-3.9734,-4.3708,-4.6587,-5.0771,-5.4982,-5.7755,-5.7327,-5.6264,-5.6413,-5.4893,-5.3004,-5.1388,-4.7982,-4.4879,-4.3661,-4.3199,-4.4376,-4.857,-5.0813,-5.3498,-5.7793,-5.7114,-5.623,-5.6258,-5.5936,-5.5277,-5.411,-5.4702,0.0,0.0,-5.2553,-5.3112,-5.2926,-5.2926,-5.2824,-5.2604,-5.2604,-5.1894,-5.0388,-4.9847,-4.9497,-4.9367,-4.9124,-4.9158,-4.9487,-4.8998,-4.8504,-4.7954,-4.7553,-4.7033,-4.6374,-4.6246,-4.5881,-4.5378,-4.5378,-4.5451,-4.5482,-4.4906,-4.4667,-4.4599,0.0,0.0,0.0,0.0,0.0,0.0,0.0,0.0,0.0,0.0,0.0,0.0,0.0,0.0,0.0,0.0,0.0,0.0,0.0,-2.6339,-2.6676,-2.5773,-2.7935,-2.8917,-2.8415,-3.0024,-3.1061,-3.1445,-3.216,-3.2678,-3.2975,-3.333,-3.3943,-3.4746,-3.5642,-3.659,-3.7504,-3.678,-3.6991,0.0,0.0,-3.3247,-3.3636,-3.0474,-2.9102,-2.8802,-2.8471,-2.8372,-2.8802,-3.146,-3.3281,-3.5169,-3.9185,-4.056,-4.0959,-4.2482,-4.5135,-4.815,-5.0543,-5.3878,-5.7021,-5.841,-5.7552,-5.589,-5.408,-5.1981,-4.9706,-4.7164,-4.3661,-4.0925,-4.0382,-4.0213,-4.163,-4.6005,-4.8592,-5.1607,-5.6132,-5.5468,-5.4941,-5.6038,-5.5344,-5.4955,-5.5513,-5.5344,-5.4532,0.0,-5.2875,-5.2841,-5.252,-5.2181,-5.2097,-5.23,-5.1995,-5.1268,-5.0101,-4.9373,-4.9094,-4.9277,-4.9094,-4.9016,-4.9005,-4.8595,-4.8077,-4.7517,0.0,-4.6747,-4.6332,-4.6246,-4.5951,-4.5589,-4.5589,-4.5396,-4.5045,-4.4589,-4.4137,-4.3713,0.0,0.0,0.0,0.0,0.0,0.0,0.0,0.0,0.0,0.0,0.0,0.0,0.0,0.0,0.0,0.0,0.0,0.0,0.0,0.0,-2.5171,-2.4227,-2.4302,-2.4661,-2.5269,-2.6784,-2.8259,-2.9704,-3.0361,-3.0921,-3.1436,-3.0583,-3.0982,-3.2409,-3.336,-3.4389,-3.5438,-3.5526,-3.5207,-3.4411,-3.1698,-3.0104,-2.9233,0.0,0.0,-2.6978,-2.8004,-2.9643,-3.2107,-3.7427,-3.8086,-3.7613,-4.2921,-4.4173,-4.4603,-4.9409,-5.0461,-5.0907,-5.4956,-5.6628,-5.7447,-5.8302,-5.7243,-5.4955,-5.098,-4.8453,-4.6122,-4.3113,-4.0546,-3.9027,-3.9713,-3.9925,-4.1129,-4.4569,-4.6851,-4.9661,-5.3733,-5.3495,-5.3685,-5.5819,-5.4634,-5.4397,-5.6325,-5.5158,-5.4279,-5.4279,-5.3145,-5.2181,-5.1555,-5.0794,-5.0879,-5.1978,-5.1302,-5.0608,-4.9949,-4.9323,-4.9032,-4.9063,-4.9032,-4.868,-4.8115,-4.8269,-4.7786,-4.6855,0.0,0.0,-4.64,-4.6253,-4.6144,-4.6056,-4.6056,-4.5653,-4.5098,-4.4975,-4.4097,-4.2984,0.0,0.0,0.0,0.0,0.0,0.0,0.0,0.0,0.0,0.0,-2.9664,0.0,0.0,0.0,0.0,0.0,0.0,0.0,0.0,0.0,0.0,-2.5273,-2.5849,-2.5902,-2.5236,-2.5578,-2.6213,-2.7137,-2.7283,-2.7031,-2.6471,-2.689,-2.6492,-2.544,-2.5637,-2.6108,-2.6684,-2.5463,-2.5925,-2.733,-2.5544,-2.5134,-2.5613,0.0,0.0,0.0,-2.7709,-2.8898,-3.0714,-3.6755,-3.9945,-4.2326,-4.8081,-5.0297,-5.0968,-5.1771,-5.2888,-5.404,-5.4873,-5.5977,-5.7147,-5.8232,-5.6764,-5.4616,-5.2877,-4.8748,-4.4586,-4.2305,-3.8404,-3.6005,-3.8071,-3.8469,-4.0328,-4.5952,-4.7723,-4.9031,-5.0907,-5.3104,-5.3939,-5.235,-5.3501,-5.4549,-5.4938,-5.3602,0.0,0.0,-5.3078,-5.3247,-5.3112,-5.235,-5.1471,-5.0507,-4.9779,-4.9323,-4.9187,-4.9069,-4.9155,-4.9428,-4.9124,-4.9087,-4.9176,-4.8371,-4.7678,-4.7101,0.0,0.0,-4.592,-4.6105,-4.5828,-4.5291,-4.5291,-4.522,-4.5027,-4.4343,-4.3939,-4.3646,0.0,0.0,0.0,0.0,0.0,0.0,0.0,0.0,0.0,0.0,-3.0632,-3.0578,0.0,0.0,0.0,0.0,0.0,0.0,0.0,0.0,0.0,0.0,0.0,0.0,-2.5579,-2.6441,-2.7101,-2.7491,0.0,-2.7061,-2.6653,-2.6449,-2.5978,-2.5319,-2.5238,-2.5197,-2.5121,-2.4306,-2.4579,-2.5486,-2.4741,-2.4668,0.0,0.0,0.0,0.0,-2.7965,-2.8842,-3.016,-3.5499,-3.8556,-4.1398,-4.8866,-5.2299,-5.3499,-5.2784,-5.4109,-5.5704,-5.5128,-5.6146,-5.7478,-5.8067,-5.6418,-5.3464,-4.8724,-4.464,-4.0745,-3.6708,-3.3966,-3.3029,-3.5394,-3.6684,-3.9081,-4.4141,-4.6561,-4.8565,-5.0686,-5.2333,-5.3068,-5.2468,-5.2655,-5.2976,-5.3365,-5.2046,-5.1302,-5.1708,-5.1386,-5.1488,-5.2266,-5.1572,-5.0659,-4.956,-4.9187,-4.9001,-4.9001,-4.9001,-4.9094,-4.9246,-4.9063,-4.9094,-4.9212,-4.8301,-4.7556,-4.6952,-4.6636,0.0,-4.5334,-4.5954,-4.5886,-4.5428,-4.5591,-4.5449,-4.5045,-4.4659,-4.4027,-4.3289,0.0,0.0,0.0,0.0,0.0,0.0,0.0,-2.8313,-2.9221,-3.1428,-3.1845,-3.1797,-3.145,-3.1821,0.0,0.0,0.0,0.0,0.0,0.0,0.0,0.0,0.0,0.0,0.0,0.0,0.0,-2.8134,-2.811,0.0,0.0,0.0,0.0,0.0,-2.5968,-2.5653,-2.5151,-2.5042,-2.5059,0.0,0.0,-2.5393,0.0,0.0,0.0,0.0,0.0,-2.9254,-3.0194,-3.4618,-3.6906,-3.9199,-4.6957,-5.0961,-5.2751,-5.2401,-5.4125,-5.6025,-5.5536,-5.6674,-5.7993,-5.7823,-5.5992,-5.236,-4.5128,-4.1016,-3.7365,-3.2526,-3.0772,-3.0953,-3.3727,-3.5577,-3.7942,-4.1945,-4.439,-4.692,-5.0093,-5.0799,-5.1469,-5.284,-5.2097,-5.1742,-5.2486,-5.1065,0.0,-5.115,-4.9847,0.0,-5.0896,-5.0405,-4.9763,-4.9018,-4.9001,-4.9001,-4.9001,-4.9001,-4.9001,-4.9001,-4.9001,-4.9001,-4.8984,-4.8409,-4.7733,-4.7018,-4.6753,0.0,0.0,-4.5775,-4.5892,-4.5607,-4.6027,-4.5846,-4.5326,-4.5168,-4.422,-4.3026,0.0,0.0,0.0,0.0,0.0,0.0,0.0,-2.9656,-3.0788,-3.2526,-3.3293,-3.359,-3.3364,-3.3229,0.0,0.0,0.0,0.0,0.0,0.0,0.0,0.0,0.0,0.0,0.0,0.0,0.0,-2.7317,-2.8024,0.0,0.0,0.0,0.0,0.0,0.0,-2.3654,-2.3425,-2.3417,0.0,0.0,0.0,0.0,0.0,0.0,0.0,0.0,0.0,-3.0184,-3.0858,-3.5108,-3.7055,-3.8401,-4.2251,-4.512,-4.7518,-4.9913,-5.2269,-5.4465,-5.6177,-5.7525,-5.8284,-5.7532,-5.5194,-5.187,-4.7345,-4.1589,-3.6766,-3.5183,-3.1985,-3.0827,-3.5253,-3.6088,-3.7348,-4.1248,-4.1348,-4.2473,-4.6799,-4.7903,-4.9049,-5.1166,-5.1894,-5.252,-5.3315,-5.1386,-5.0405,-5.115,0.0,0.0,-5.0152,-5.0135,-4.9763,-4.9018,-4.9001,-4.9001,-4.9001,-4.9001,-4.9001,-4.9001,-4.9001,-4.9001,-4.9001,-4.8934,-4.8511,-4.7767,-4.734,0.0,0.0,-4.5692,-4.5551,-4.5216,-4.594,-4.6161,-4.6021,-4.5361,-4.4553,-4.3693,0.0,0.0,0.0,0.0,0.0,0.0,0.0,-2.9066,-3.041,-3.2602,-3.3127,-3.3623,-3.4461,-3.4377,-3.4252,0.0,0.0,0.0,0.0,0.0,0.0,0.0,0.0,0.0,0.0,0.0,-2.7074,-2.7136,-2.7997,0.0,0.0,0.0,0.0,0.0,0.0,-2.4602,-2.3925,-2.3925,0.0,0.0,0.0,0.0,0.0,0.0,0.0,0.0,0.0,0.0,-3.0704,-3.336,-3.4375,-3.4826,-3.6689,-3.8431,-4.0715,-4.5446,-4.9305,-5.2331,-5.3614,-5.6191,-5.8373,-5.781,-5.4946,-5.0802,-4.5243,-4.0431,-3.6272,-3.326,-3.1647,-3.1658,-3.4515,-3.4772,-3.5544,-3.854,-3.8993,-4.0534,-4.5031,-4.6334,-4.7954,-5.1038,-5.1634,-5.172,-5.1471,0.0,-4.9187,-4.8595,0.0,0.0,-4.9407,-4.9441,-4.9306,-4.9018,-4.9001,-4.9001,-4.9001,-4.9001,-4.9001,-4.9001,-4.9216,-4.9185,-4.9001,-4.9216,-4.854,-4.7225,-4.7208,0.0,0.0,-4.5428,-4.5376,-4.4842,-4.5826,-4.6196,-4.6161,-4.5863,-4.4879,-4.3645,0.0,0.0,0.0,0.0,0.0,0.0,-2.8551,-2.9296,-3.0679,-3.2987,-3.3506,-3.3965,-3.4729,-3.492,-3.4718,-3.4087,0.0,0.0,0.0,0.0,0.0,0.0,0.0,0.0,0.0,0.0,-2.7503,-2.7074,-2.7932,-2.8241,0.0,0.0,-2.7317,-2.6,0.0,0.0,0.0,0.0,0.0,0.0,0.0,0.0,0.0,0.0,0.0,0.0,0.0,0.0,0.0,0.0,0.0,-3.299,-3.3922,-3.4607,-3.6107,-4.1268,-4.6052,-5.0004,-5.149,-5.505,-5.8239,-5.7803,-5.4152,-4.9286,-4.393,-3.9225,-3.5153,-3.2228,-3.1548,-3.1959,-3.3592,-3.3745,-3.4341,-3.6551,-3.7581,-3.9435,-4.3272,-4.4323,-4.6004,-4.9433,-4.9828,-5.0048,-5.0529,-5.006,-4.9114,-4.7564,0.0,0.0,-4.9029,-4.9063,-4.9032,-4.9001,-4.9001,-4.9001,-4.9001,-4.9001,-4.9001,-4.9001,-4.9277,-4.9069,-4.848,-4.8895,-4.815,-4.6564,0.0,0.0,0.0,-4.5138,-4.5176,-4.4638,-4.5431,-4.593,-4.6179,-4.5951,-4.5016,-4.3851,0.0,0.0,0.0,0.0,0.0,0.0,0.0,-3.1066,-3.2275,-3.3975,-3.4949,-3.506,-3.4022,-3.4674,-3.4764,-3.3695,0.0,0.0,0.0,0.0,0.0,0.0,0.0,0.0,0.0,0.0,-2.861,-2.6999,-2.7877,-2.7895,-2.7118,-2.7179,-2.6781,-2.5992,0.0,0.0,0.0,0.0,0.0,0.0,0.0,0.0,0.0,0.0,0.0,0.0,0.0,0.0,0.0,0.0,0.0,0.0,0.0,-3.4808,-3.4713,-3.7773,-4.2546,-4.75,-5.0589,-5.4589,-5.7785,-5.7332,-5.263,-4.7387,-4.4517,-3.8307,-3.3183,-3.3331,-3.2074,-3.1359,-3.2831,-3.3444,-3.4257,-3.5942,-3.7274,-3.8884,-4.1104,-4.1427,-4.2566,-4.5609,-4.5966,-4.7486,-5.1319,-5.1551,-5.0781,0.0,0.0,0.0,-4.9199,-4.9199,-4.9138,-4.9001,-4.9001,-4.9001,-4.9001,-4.9001,-4.9001,-4.9001,-4.9138,-4.8524,-4.7244,-4.7843,-4.735,0.0,0.0,0.0,0.0,-4.4961,-4.4879,-4.4689,-4.4707,-4.5326,-4.6109,-4.5378,-4.4928,-4.4585,0.0,0.0,0.0,0.0,0.0,0.0,0.0,-3.0732,-3.2083,-3.316,-3.4064,-3.4698,-3.4976,-3.512,-3.507,-3.4717,0.0,0.0,0.0,0.0,0.0,0.0,0.0,0.0,0.0,0.0,-2.8552,-2.8638,-2.8369,-2.811,-2.7914,-2.7997,-2.7291,-2.5992,-2.5855,-2.5276,0.0,0.0,0.0,0.0,0.0,0.0,0.0,0.0,0.0,0.0,0.0,0.0,0.0,0.0,0.0,0.0,0.0,0.0,0.0,-3.5285,-3.8775,-4.2804,-4.5165,-4.7951,-5.0083,-4.9657,-4.6618,-4.2972,-4.0061,-3.6521,-3.3594,-3.2699,-3.202,-3.207,-3.3688,-3.3001,-3.3268,-3.6565,-3.6811,-3.7967,-4.1945,-4.3374,-4.493,-4.746,-4.9005,-5.0151,0.0,0.0,-4.9376,0.0,0.0,0.0,-4.9359,-4.892,-4.8869,-4.932,-4.9337,-4.9277,-4.9138,-4.9138,-4.9138,-4.9138,-4.9411,-4.8773,-4.7352,-4.822,0.0,0.0,0.0,0.0,0.0,-4.4226,-4.4001,-4.3677,-4.4414,-4.4572,-4.4401,-4.4927,-4.415,-4.2853,0.0,0.0,0.0,0.0,0.0,0.0,0.0,-3.0776,-3.1987,-3.2795,-3.366,-3.4417,-3.4949,-3.5184,-3.5189,-3.4845,0.0,0.0,0.0,0.0,0.0,0.0,0.0,0.0,0.0,-2.9377,-2.9157,-2.9315,-2.8849,-2.8629,-2.8677,-2.8783,-2.8119,-2.6863,-2.6692,-2.595,0.0,0.0,0.0,0.0,0.0,0.0,-3.065,0.0,0.0,0.0,0.0,0.0,0.0,0.0,0.0,0.0,0.0,0.0,0.0,0.0,-3.643,-3.8935,-4.1555,-4.418,-4.6247,-4.6398,-4.3549,-4.0275,-3.8581,-3.5627,-3.3123,-3.2613,-3.2643,-3.3004,-3.3774,-3.3237,-3.3342,-3.5328,-3.6493,-3.7795,-3.9685,-4.2159,-4.4422,-4.621,-4.91,0.0,0.0,-4.9545,0.0,0.0,0.0,0.0,-4.9509,-4.9132,-4.9127,-4.9666,-4.932,-4.9031,-4.8912,-4.8912,-4.8912,-4.8912,-4.9179,-4.8352,-4.668,-4.7784,0.0,0.0,0.0,0.0,0.0,-4.3853,-4.3577,-4.3417,-4.3491,-4.346,-4.3426,-4.3798,-4.3221,-4.2255,0.0,0.0,0.0,0.0,0.0,0.0,0.0,0.0,0.0,0.0,-3.366,-3.4225,-3.4282,-3.5026,-3.5173,0.0,0.0,0.0,0.0,0.0,0.0,0.0,0.0,0.0,-3.1026,-3.0907,-3.035,-2.9303,-2.9352,-2.9349,-2.9293,-2.9443,-2.9053,-2.8277,-2.8071,-2.7091,-2.5631,-2.6379,-2.7574,-2.9078,-2.9879,-3.0687,0.0,0.0,0.0,0.0,0.0,0.0,0.0,0.0,0.0,0.0,0.0,0.0,0.0,0.0,0.0,0.0,0.0,-4.2403,-4.4975,-4.6097,-4.251,-3.8833,-3.9235,-3.5419,0.0,-3.3069,-3.3769,-3.3986,-3.3297,-3.4045,-3.4342,-3.3,-3.6297,-3.8173,-3.5645,-3.9026,-4.2081,-4.2952,-4.701,0.0,-4.8528,-4.9851,0.0,0.0,0.0,0.0,-4.9563,-4.9563,-4.9617,-4.9769,-4.8855,-4.8355,-4.8407,-4.8355,-4.8304,-4.8253,-4.8449,-4.7423,-4.5406,-4.6804,0.0,0.0,0.0,0.0,0.0,-4.3823,-4.3566,-4.3663,-4.2245,-4.2208,-4.2923,-4.2233,-4.224,-4.2441,0.0,0.0,0.0,0.0,0.0,0.0,0.0,0.0,0.0,0.0,0.0,-3.4449,-3.5115,-3.5385,0.0,0.0,0.0,0.0,0.0,0.0,0.0,0.0,0.0,0.0,-3.1862,-3.2147,-3.1647,-3.0275,-3.018,-2.9843,-2.9304,-2.9322,-2.8886,-2.8064,-2.803,-2.7382,-2.6387,-2.7174,-2.8099,-2.9078,-2.9879,-3.0687,0.0,0.0,0.0,0.0,-3.2601,-3.3128,0.0,0.0,0.0,0.0,0.0,0.0,0.0,0.0,-3.3969,-3.3809,-3.5325,0.0,-3.7081,-3.8022,-3.6637,-3.5144,0.0,-3.403,-3.2812,-3.3759,-3.4092,-3.4142,-3.3969,-3.4816,-3.5343,-3.4679,-3.6241,-3.7897,-3.9023,-4.2674,-4.5265,-4.5384,-4.8083,-4.9159,-4.7094,-4.8447,0.0,0.0,0.0,-4.826,-4.8256,-4.8252,-4.8012,-4.7414,-4.7703,-4.81,-4.8552,-4.7986,-4.7459,-4.6942,-4.7505,-4.6759,-4.4894,-4.6218,0.0,0.0,0.0,0.0,-4.4872,-4.4004,-4.3314,-4.2798,-4.2544,-4.1902,-4.1214,-4.1788,-4.1587,-4.0988,0.0,0.0,0.0,0.0,0.0,0.0,0.0,0.0,0.0,0.0,0.0,0.0,0.0,0.0,0.0,0.0,0.0,0.0,0.0,0.0,0.0,0.0,0.0,-3.3601,-3.2135,-3.193,-3.1229,-2.9953,-2.9843,-2.961,-2.9251,-2.9214,-2.8973,-2.8537,-2.8094,-2.7834,-2.7703,-2.7769,-2.8686,-3.0136,-3.0577,0.0,0.0,0.0,0.0,0.0,-3.15,-3.2252,0.0,-3.3256,-3.3495,-3.382,0.0,0.0,0.0,0.0,-3.4326,-3.4129,-3.4655,-3.4494,-3.4581,-3.6251,-3.5602,-3.4743,-3.5356,-3.4199,-3.321,-3.3944,-3.4155,-3.4174,-3.4135,-3.4881,-3.5411,-3.5063,-3.6238,-3.8105,-4.0773,-4.3219,-4.4867,-4.5241,-4.7023,-4.78,0.0,0.0,0.0,0.0,0.0,-4.7398,0.0,-4.7038,-4.6683,-4.6247,-4.6567,-4.7049,-4.7681,-4.7286,-4.6594,-4.5606,-4.6611,-4.6019,-4.4113,-4.5813,-4.5931,0.0,0.0,0.0,-4.4949,-4.3065,-4.2364,-4.2439,-4.1835,-4.1086,-4.0372,-4.0929,-4.0785,-4.0337,0.0,0.0,0.0,0.0,0.0,0.0,0.0,0.0,0.0,0.0,0.0,0.0,0.0,0.0,0.0,0.0,0.0,0.0,0.0,0.0,0.0,0.0,0.0,-3.3271,-3.2116,-3.1483,-3.053,-2.92,-2.9358,-2.9347,-2.9156,-2.9112,-2.9112,-2.9138,-2.8467,-2.8558,-2.9152,-2.8594,-2.9597,-3.1568,-3.1568,0.0,0.0,0.0,0.0,0.0,0.0,0.0,0.0,-3.2454,-3.3036,-3.377,-3.366,0.0,0.0,0.0,0.0,0.0,-3.5373,-3.5039,-3.5134,-3.7408,-3.6696,-3.5662,-3.6625,-3.4834,-3.3218,-3.4146,-3.4318,-3.4357,-3.4461,-3.537,-3.5856,-3.5083,-3.6578,-3.8789,-4.1513,-4.2624,-4.3459,-4.41,-4.545,0.0,0.0,0.0,0.0,0.0,0.0,-4.6469,0.0,-4.5935,-4.5568,-4.5429,-4.5547,-4.5824,-4.6271,-4.637,-4.5769,-4.4516,-4.5804,-4.539,-4.3546,-4.5528,-4.6035,0.0,0.0,0.0,-4.5014,-4.2388,-4.1792,-4.2431,-4.1146,-4.0417,-4.0096,-4.0096,-4.0096,-4.0096,0.0,0.0,0.0,0.0,0.0,0.0,0.0,0.0,0.0,0.0,0.0,0.0,0.0,0.0,0.0,0.0,0.0,0.0,0.0,0.0,0.0,-3.3157,-3.4136,-3.3876,-3.2135,-3.29,-3.1968,-2.92,-3.0375,-3.0283,-2.8952,-2.9044,-2.9085,-2.9046,-2.9586,-2.9898,-3.0063,-3.0613,-3.1439,-3.2417,-3.2417,0.0,0.0,0.0,0.0,0.0,0.0,0.0,0.0,-3.1806,-3.2559,-3.3678,-3.2999,0.0,0.0,0.0,0.0,0.0,-3.4994,-3.581,-3.6523,-3.7699,-3.6529,-3.5415,-3.6753,-3.4357,-3.2622,-3.5313,-3.5349,-3.5252,-3.6407,-3.8629,-3.927,-3.6234,-3.8098,-4.0386,-4.1635,-4.3638,-4.475,-4.4091,0.0,-4.6203,0.0,0.0,0.0,0.0,0.0,0.0,0.0,-4.4903,-4.4556,-4.3876,-4.498,-4.5354,-4.4828,-4.5329,-4.5217,-4.4498,-4.5252,-4.5148,-4.4343,-4.5217,-4.5518,0.0,0.0,-4.5173,-4.5319,-4.4749,-4.3811,-4.2714,-4.2312,-4.1325,-4.0096,-4.0096,-4.0096,-4.0096,0.0,0.0,0.0,0.0,0.0,0.0,0.0,0.0,0.0,0.0,0.0,0.0,0.0,0.0,0.0,0.0,0.0,0.0,0.0,0.0,0.0,-3.3216,-3.3715,-3.3347,-3.1864,-3.2335,-3.1464,-2.9078,-3.0143,-3.0076,-2.897,-2.9028,-2.926,-2.9647,-3.0026,-3.0448,-3.087,-3.125,-3.1861,-3.2601,0.0,0.0,0.0,0.0,0.0,0.0,0.0,0.0,0.0,0.0,-3.1825,-3.3091,-3.2711,0.0,0.0,0.0,0.0,0.0,-3.4463,-3.5316,-3.65,-3.878,-3.8411,-3.8026,-4.0144,-3.7181,-3.4796,-3.7774,-3.6024,-3.4596,-3.6626,-3.8161,-3.9255,-3.9631,-4.144,-4.2894,-4.3121,-4.37,-4.4141,0.0,0.0,0.0,0.0,0.0,0.0,0.0,0.0,0.0,0.0,0.0,-4.2864,-4.2491,-4.345,-4.3817,-4.3486,-4.4054,-4.4211,-4.3858,-4.488,-4.4854,-4.3892,-4.4915,-4.5397,-4.5328,0.0,-4.4337,-4.5242,-4.3182,-4.2565,-4.2792,-4.1809,-4.0933,-4.0188,-4.0138,-4.0096,-4.0096,0.0,0.0,0.0,0.0,0.0,0.0,0.0,0.0,0.0,0.0,0.0,0.0,0.0,0.0,0.0,0.0,0.0,0.0,0.0,0.0,-3.4147,-3.3272,-3.3016,-3.2482,-3.1621,-3.1573,-3.079,-2.9257,-2.982,-2.971,-2.9005,-2.9005,-2.9335,-2.9953,-3.032,-3.0815,-3.1415,-3.1801,-3.232,-3.2876,0.0,0.0,0.0,0.0,0.0,0.0,0.0,0.0,0.0,0.0,0.0,0.0,0.0,0.0,0.0,-3.3855,-3.3868,-3.3931,-3.4251,-3.4986,-3.636,-3.9305,-3.9211,-3.9374,-4.3031,-3.9479,-3.6464,-4.0256,-3.7609,-3.5291,-3.7535,-3.8168,-3.9262,-4.2128,-4.4057,-4.5115,-4.4859,-4.4277,-4.4183,-4.4933,0.0,0.0,0.0,0.0,0.0,0.0,0.0,0.0,0.0,0.0,-4.1841,-4.1841,-4.2334,-4.2617,-4.2617,-4.3183,-4.3524,-4.3588,-4.4654,-4.4595,-4.3566,-4.4639,-4.5061,-4.4803,-4.3143,-4.336,-4.4682,-4.1847,-4.1474,-4.2585,-4.1302,-4.059,-4.0288,-4.0238,-4.0146,-4.0096,0.0,0.0,0.0,0.0,0.0,0.0,0.0,0.0,0.0,0.0,0.0,0.0,0.0,0.0,0.0,0.0,0.0,0.0,0.0,0.0,-3.3299,-3.3036,-3.2189,-3.1681,-3.1597,-3.1489,-3.0956,-3.0009,-3.0014,-2.9667,-2.9005,-2.9005,-2.9023,-2.9152,-3.065,-3.136,-3.1507,-3.2981,-3.366,-3.3715,-3.3715,0.0,0.0,0.0,0.0,0.0,0.0,0.0,0.0,0.0,0.0,0.0,0.0,0.0,-3.3807,-3.382,-3.382,-3.3985,-3.4821,-3.5722,-3.6772,-3.8275,-3.6734,-3.6593,-4.3203,-3.8934,-3.5446,-4.2074,-4.1108,-3.9446,-4.0814,-4.1095,-4.1233,-4.1556,-4.4154,-4.6162,-4.6303,0.0,-4.6571,-4.6645,0.0,0.0,0.0,0.0,0.0,0.0,0.0,0.0,0.0,0.0,0.0,-4.2616,-4.2607,-4.2617,-4.2617,-4.3183,-4.3802,-4.4389,-4.4507,-4.4453,-4.4225,-4.4328,-4.4018,-4.3345,-4.3189,-4.3207,-4.3345,-4.3069,-4.2546,-4.1881,-4.1736,-4.1125,-4.0313,-4.0436,-4.0296,-4.0138,0.0,0.0,0.0,0.0,0.0,0.0,0.0,0.0,0.0,0.0,0.0,0.0,0.0,0.0,0.0,0.0,0.0,0.0,0.0,-3.3016,-3.2117,-3.1533,-3.1087,-3.1068,-3.1525,-3.1403,-3.1168,-3.0775,-3.0295,-2.9942,-2.9739,-2.9739,-2.9739,-2.9824,-3.1439,-3.1949,-3.1688,-3.3346,-3.3821,-3.3513,-3.3907,-3.3568,0.0,0.0,0.0,0.0,0.0,0.0,0.0,0.0,-3.0522,-3.177,-3.1274,-3.1995,-3.3041,-3.3041,-3.2732,-3.2647,-3.3984,-3.4468,-3.5278,-3.8266,-3.6806,-3.6462,-4.3237,-4.1207,-3.9221,-4.3949,-4.2703,-4.0565,-4.0009,-4.1777,-4.3195,-4.2749,-4.4651,-4.6228,-4.6297,-4.6255,-4.6187,0.0,0.0,0.0,0.0,0.0,0.0,0.0,0.0,0.0,0.0,0.0,0.0,-4.2015,-4.1978,-4.1997,-4.1997,-4.1772,-4.2014,-4.2644,-4.3412,-4.3722,-4.3676,-4.3615,-4.3465,-4.3172,-4.2672,-4.2741,-4.312,-4.2171,-4.1836,-4.1867,-4.1322,-4.084,-4.0436,-4.0485,-4.0436,-4.0362,0.0,0.0,0.0,0.0,0.0,0.0,0.0,0.0,0.0,0.0,0.0,0.0,0.0,0.0,0.0,0.0,0.0,0.0,-3.358,-3.2231,-3.127,-3.0939,-3.0801,-3.1088,-3.182,-3.1481,-3.1386,-3.1616,-3.0875,-3.0393,-3.021,-3.021,-3.021,-3.0265,-3.1623,-3.2133,-3.207,-3.321,-3.3467,-3.3093,-3.3258,-3.313,0.0,0.0,0.0,0.0,0.0,0.0,0.0,0.0,-3.0118,-3.0999,-3.098,-3.1549,-3.2284,-3.2528,-3.2254,-3.2052,-3.3043,-3.3378,-3.4214,-3.7328,-3.6612,-3.6768,-4.3014,-4.2501,-4.1918,-4.6213,-4.5015,-4.2649,-4.075,-4.2492,-4.3896,-4.2878,-4.4503,-4.5792,-4.5584,-4.5489,0.0,0.0,0.0,0.0,0.0,0.0,0.0,0.0,0.0,0.0,0.0,0.0,0.0,0.0,-4.1715,-4.1588,-4.1588,-4.0941,-4.0801,-4.1209,-4.1799,-4.2178,-4.2354,-4.2309,-4.2151,-4.1921,-4.1542,-4.1685,-4.2114,-4.1254,-4.1205,-4.1578,-4.0999,-4.0697,-4.0558,-4.0607,-4.0583,-4.051,0.0,0.0,0.0,0.0,0.0,0.0,0.0,0.0,0.0,0.0,0.0,0.0,0.0,0.0,0.0,0.0,0.0,0.0,-3.3524,-3.1706,-3.0902,-3.156,-3.1531,-3.1845,-3.2583,-3.1761,-3.1704,-3.2496,-3.1768,-3.0999,-3.0228,-3.0228,-3.0228,-3.0246,-3.1085,-3.1861,-3.2583,-3.2619,-3.2632,-3.254,-3.1745,-3.1911,-3.254,0.0,0.0,0.0,0.0,0.0,0.0,0.0,-3.0191,-3.0485,-3.2069,-3.2027,-3.1549,-3.2362,-3.2583,-3.2504,-3.2133,-3.2802,-3.3903,-3.5216,-3.568,-3.721,-4.2509,-4.2268,-4.2677,-4.8819,-4.8433,-4.627,-4.384,-4.3529,-4.3092,-4.1461,-4.3448,-4.4913,-4.4184,-4.4436,0.0,0.0,0.0,0.0,0.0,0.0,0.0,0.0,0.0,0.0,0.0,0.0,0.0,0.0,-4.1952,-4.1573,-4.1573,-4.0909,-4.0577,-4.0561,-3.9764,-3.9695,-4.0293,-4.0276,-3.9895,-3.9232,-3.9749,-4.0003,-4.0053,-4.0662,-4.0912,-4.0912,-4.0912,-4.0817,-4.0721,-4.0864,-4.0728,-4.0534,0.0,0.0,0.0,0.0,0.0,0.0,0.0,0.0,0.0,0.0,0.0,0.0,0.0,0.0,0.0,0.0,0.0,0.0,-3.2533,-3.1241,-3.0542,-3.0736,-3.1127,-3.1744,-3.2583,-3.2349,-3.2337,-3.2575,-3.2362,-3.2118,-3.1885,-3.1885,-3.1586,-3.1158,-3.3697,-3.3771,-3.2107,-3.4431,-3.4525,-3.306,-3.2676,-3.3012,-3.3562,0.0,0.0,0.0,0.0,0.0,0.0,0.0,0.0,0.0,-3.0106,-3.0687,-3.1609,-3.2585,-3.2014,-3.1556,-3.3846,-3.3833,-3.3764,-3.6165,-3.7653,-3.9295,-4.2202,-4.2858,-4.4085,-4.8436,-4.8423,-4.6759,-4.3923,-4.5175,0.0,-4.1354,-4.2805,-4.4051,-4.304,0.0,0.0,0.0,0.0,0.0,0.0,0.0,0.0,0.0,0.0,0.0,0.0,0.0,0.0,0.0,-4.023,-4.0119,-4.0119,-3.9471,-3.9123,-3.9123,-3.8418,-3.8624,-3.965,-3.9561,-3.9404,-3.9206,-3.9375,-3.9645,-4.0053,-4.0662,-4.0912,-4.0912,-4.0912,-4.0888,-4.084,-4.0888,-4.0847,-4.0776,0.0,0.0,0.0,0.0,0.0,0.0,0.0,0.0,0.0,0.0,-3.55,0.0,0.0,0.0,0.0,0.0,0.0,0.0,0.0,-3.1406,-3.0918,-3.1225,-3.161,-3.2049,-3.2583,-3.3225,-3.3243,-3.2601,-3.2601,-3.2601,-3.2601,-3.2601,-3.2339,-3.1953,-3.3954,-3.3979,-3.2644,-3.4301,-3.4241,-3.298,-3.2536,-3.2847,-3.3432,0.0,0.0,0.0,0.0,0.0,0.0,0.0,0.0,0.0,-2.9629,-3.0216,-3.1223,-3.1751,-3.1601,-3.1733,-3.3753,-3.4169,-3.4818,-3.8108,-3.9759,-4.1157,-4.3413,-4.4671,-4.6021,-4.8478,-4.8374,-4.7125,-4.4756,-4.5556,0.0,-4.2312,-4.2888,-4.3383,0.0,0.0,0.0,0.0,0.0,0.0,0.0,0.0,0.0,0.0,0.0,0.0,0.0,0.0,0.0,0.0,-3.9503,-3.9503,-3.9503,-3.8839,-3.8507,-3.8507,-3.7812,-3.7894,-3.8643,-3.8566,-3.8523,-3.8523,-3.8756,-3.9279,-4.0028,-4.0385,-4.0686,-4.0912,-4.0912,-4.0912,-4.0912,-4.0912,-4.0912,-4.0912,0.0,0.0,0.0,0.0,0.0,0.0,0.0,0.0,0.0,0.0,-3.55,-3.5493,0.0,0.0,0.0,0.0,0.0,0.0,0.0,0.0,-3.181,-3.2477,-3.2635,-3.2748,-3.2821,-3.4105,-3.4105,-3.2711,-3.2711,-3.2711,-3.2711,-3.2711,-3.2711,-3.2711,-3.2858,-3.3269,-3.3792,-3.3209,-3.2878,-3.2676,-3.1862,-3.2028,-3.2732,-3.2632,0.0,0.0,0.0,0.0,0.0,0.0,0.0,0.0,-3.0118,-3.0337,-3.0621,-3.0416,-3.1433,-3.269,-3.2855,-3.4339,-3.6722,-4.0466,-4.1791,-4.2911,-4.5646,-4.7024,-4.7952,-4.8763,-4.8253,-4.7323,-4.6031,-4.5203,-4.4535,-4.3847,-4.3329,-4.2856,0.0,0.0,0.0,0.0,0.0,0.0,0.0,0.0,0.0,0.0,0.0,0.0,0.0,0.0,0.0,-3.9313,-3.9313,-3.9313,-3.9313,-3.8713,-3.8428,0.0,-3.778,-3.751,-3.751,-3.751,-3.751,-3.7539,-3.8055,-3.8924,-3.9927,-3.9978,-4.036,-4.0912,-4.0912,-4.0912,-4.0912,-4.0912,-4.0912,-4.0912,0.0,0.0,0.0,0.0,0.0,0.0,0.0,0.0,0.0,0.0,0.0,0.0,0.0,0.0,0.0,0.0,0.0,0.0,0.0,0.0,-3.2326,-3.2496,-3.3126,-3.3776,-3.4472,-3.3592,-3.3261,-3.3532,-3.3532,-3.3532,-3.3532,-3.3532,-3.3532,-3.3605,-3.4926,-3.4994,-3.4185,-3.5284,-3.5006,-3.3778,-3.2974,-3.3141,-3.3753,-3.2912,-3.322,0.0,0.0,0.0,0.0,0.0,0.0,0.0,-2.9464,-2.9734,-3.0463,-3.1288,-3.2238,-3.3442,-3.5545,-3.6786,-3.809,-4.0676,-4.2839,-4.4882,-4.7044,-4.7358,-4.7371,-4.7985,-4.7551,-4.6907,-4.6627,-4.6131,-4.5215,-4.3539,-4.2856,0.0,0.0,0.0,0.0,0.0,0.0,0.0,0.0,0.0,0.0,0.0,0.0,0.0,0.0,0.0,0.0,-3.7968,-3.7937,-3.7937,-3.7937,-3.781,-3.7731,0.0,-3.7589,-3.751,-3.751,-3.751,-3.751,-3.7539,-3.8055,-3.8712,-3.9401,-3.9825,-4.036,-4.0912,-4.0912,-4.0912,-4.0912,-4.0912,-4.0912,-4.0912,0.0,0.0,0.0,0.0,0.0,0.0,0.0,0.0,0.0,0.0,0.0,0.0,0.0,0.0,0.0,0.0,0.0,0.0,0.0,0.0,-3.3177,-3.3643,-3.4073,-3.4541,-3.5004,-3.4179,-3.3573,-3.3238,-3.3605,-3.3807,-3.3807,-3.3807,-3.3807,-3.3844,-3.4706,-3.4696,-3.4066,-3.4903,-3.4774,-3.3974,-3.3549,-3.3641,-3.3961,-3.3382,-3.3591,-3.4105,-3.3416,0.0,0.0,0.0,0.0,0.0,0.0,0.0,-3.1,-3.0672,-3.1693,-3.3245,-3.4569,-3.6886,-3.9734,-4.318,-4.5733,-4.7547,-4.7917,-4.7787,-4.7663,-4.7934,-4.7123,-4.6275,-4.5939,-4.5405,-4.4605,-4.3412,-4.2777,0.0,0.0,0.0,0.0,0.0,0.0,0.0,0.0,0.0,0.0,0.0,0.0,0.0,0.0,-3.8207,-3.7859,-3.7526,-3.751,-3.751,-3.751,-3.751,-3.751,-3.751,-3.751,-3.751,-3.751,-3.751,-3.751,-3.751,-3.7815,-3.8226,-3.8821,-3.9385,-3.9944,-4.0476,-4.0476,-4.0638,-4.0871,-4.0573,-4.0662,-4.0912,0.0,0.0,0.0,0.0,0.0,0.0,0.0,0.0,0.0,0.0,0.0,0.0,0.0,0.0,0.0,0.0,0.0,0.0,0.0,0.0,0.0,-3.4879,-3.483,-3.4857,-3.5004,-3.4857,-3.4142,-3.2803,-3.3476,-3.4082,-3.4633,-3.4357,-3.4229,-3.4229,-3.4229,-3.4091,-3.3868,-3.3868,-3.3868,-3.3868,-3.3868,-3.3868,-3.3855,-3.382,-3.3972,-3.4161,-3.3895,-3.3947,-3.3969,-3.2936,0.0,0.0,0.0,0.0,-3.1592,-3.0001,-3.1129,-3.2874,-3.2905,-3.6517,-4.1283,-4.5544,-4.8018,-4.9131,-4.8118,-4.7911,-4.785,-4.7785,-4.6712,-4.5654,-4.5229,-4.4355,-4.3661,-4.3455,0.0,0.0,0.0,0.0,0.0,0.0,0.0,0.0,0.0,0.0,0.0,0.0,0.0,0.0,-3.8333,-3.7796,-3.751,-3.751,-3.751,-3.751,-3.751,-3.751,-3.751,-3.751,-3.751,-3.751,-3.751,-3.751,-3.751,-3.751,-3.751,-3.7815,-3.8334,-3.8821,-3.9375,-3.9851,-3.9851,-4.0187,-4.0566,-4.0145,-4.0311,-4.0734,0.0,0.0,0.0,0.0,0.0,0.0,0.0,0.0,0.0,0.0,-3.5335,-3.53,0.0,0.0,0.0,0.0,0.0,0.0,0.0,0.0,0.0,-3.4954,-3.4325,-3.4302,-3.4986,-3.4307,-3.3862,-3.3642,-3.3752,-3.5257,-3.8028,-3.6615,-3.5973,-3.5973,-3.5973,-3.5284,-3.4148,-3.4148,-3.4148,-3.4148,-3.4148,-3.4148,-3.4124,-3.3881,-3.3972,-3.4161,-3.3895,-3.3815,-3.3732,-3.2871,-3.2601,0.0,0.0,0.0,-3.1526,-3.1328,-3.2163,-3.3292,-3.3978,-3.7911,-4.2341,-4.4548,-4.588,-4.6719,-4.7077,-4.6884,-4.6608,-4.6388,-4.578,-4.543,-4.5949,-4.4603,-4.3435,-4.3411,0.0,0.0,0.0,0.0,0.0,0.0,0.0,0.0,0.0,0.0,0.0,0.0,0.0,0.0,-3.7622,-3.7557,-3.751,-3.751,-3.751,-3.751,-3.751,-3.751,-3.751,-3.751,-3.751,-3.751,-3.751,-3.751,-3.751,-3.751,-3.751,-3.7815,-3.8322,-3.839,-3.8767,-3.9295,-3.9295,-3.9365,-3.9454,-3.9851,-4.0053,-4.0103,0.0,0.0,0.0,0.0,0.0,0.0,0.0,0.0,0.0,0.0,0.0,-3.5269,0.0,0.0,0.0,0.0,0.0,0.0,0.0,0.0,0.0,-3.4954,-3.4215,-3.4192,-3.4986,-3.4211,-3.3587,-3.3115,-3.3587,-3.5238,-3.8028,-3.8689,-3.8744,-3.8355,-3.8827,-3.7411,-3.4679,-3.5206,-3.4874,-3.3972,-3.3972,-3.3972,-3.3959,-3.3842,-3.3972,-3.4173,-3.3934,-3.3947,-3.4006,-3.3541,-3.3392,-3.3245,-3.2434,0.0,0.0,0.0,-3.2017,-3.304,-3.5969,-3.739,-3.9264,-4.4228,-4.4323,-4.3862,-4.6422,-4.603,-4.545,-4.6653,-4.6108,-4.5393,-4.5207,-4.4186,-4.3262,-4.3037,0.0,0.0,0.0,0.0,0.0,0.0,0.0,0.0,0.0,0.0,0.0,0.0,0.0,-3.7891,-3.7526,-3.751,-3.751,-3.751,-3.751,-3.751,-3.751,-3.751,-3.751,-3.751,-3.751,-3.751,-3.751,-3.751,-3.751,-3.7494,-3.7054,-3.7009,-3.7233,-3.7148,-3.753,-3.8139,-3.8139,-3.8574,-3.9206,-3.9076,-3.9262,-3.9542,0.0,0.0,0.0,0.0,0.0,0.0,0.0,0.0,0.0,0.0,0.0,0.0,0.0,0.0,0.0,0.0,0.0,0.0,0.0,0.0,0.0,-3.4674,-3.4119,-3.4082,-3.4674,-3.4119,-3.3513,-3.2894,-3.3513,-3.5275,-3.8153,-4.0157,-4.1001,-4.085,-4.1303,-3.943,-3.6001,-3.6495,-3.5846,-3.4499,-3.4719,-3.4554,-3.4186,-3.4186,-3.4305,-3.4433,-3.4059,-3.4049,-3.4197,-3.4049,-3.3998,-3.3906,-3.3296,-3.3161,0.0,0.0,0.0,-3.2551,-3.6005,-3.6023,-3.6394,-4.203,-4.2033,-4.149,-4.4565,-4.451,-4.441,-4.6289,-4.6235,-4.5552,-4.459,-4.3864,-4.3232,-4.278,0.0,0.0,0.0,0.0,0.0,0.0,0.0,0.0,0.0,0.0,0.0,0.0,0.0,-3.8207,-3.7541,-3.751,-3.751,-3.751,-3.751,-3.751,-3.751,-3.751,-3.751,-3.751,-3.751,-3.751,-3.751,-3.751,-3.751,-3.7478,-3.6927,-3.669,-3.6672,-3.6565,-3.6856,-3.7355,-3.7355,-3.7929,-3.8745,-3.8407,-3.8574,-3.8974,0.0,0.0,0.0,0.0,0.0,0.0,0.0,0.0,0.0,0.0,0.0,0.0,-3.4674,-3.439,-3.4213,-3.4124,0.0,0.0,0.0,0.0,0.0,-3.3862,-3.3825,0.0,-3.3862,-3.3825,-3.377,-3.3733,-3.377,-3.5844,-3.979,-4.0689,-4.1934,-4.3361,-4.2595,-4.0885,-3.8552,-3.7834,-3.7081,-3.6431,-3.7188,-3.6579,-3.5217,-3.5217,-3.523,-3.5132,-3.4293,-3.3998,-3.4011,-3.3998,-3.3998,-3.3998,-3.3943,-3.3975,-3.4025,0.0,0.0,0.0,-3.2229,-3.3861,-3.5616,-3.6198,-3.826,-4.0201,-4.0413,-4.1895,-4.3484,-4.4285,-4.5577,-4.6134,-4.4756,-4.4009,-4.3411,-4.2814,0.0,0.0,0.0,0.0,0.0,0.0,0.0,0.0,0.0,0.0,0.0,0.0,0.0,-3.8207,-3.7541,-3.751,-3.751,-3.751,-3.751,-3.751,-3.751,-3.751,-3.751,-3.751,-3.751,-3.751,-3.751,-3.751,-3.751,-3.751,-3.7462,-3.7447,-3.7447,-3.7445,-3.7445,-3.7476,-3.7476,-3.7537,-3.7642,-3.8112,-3.8306,-3.8351,0.0,0.0,0.0,0.0,0.0,0.0,0.0,0.0,0.0,0.0,0.0,0.0,0.0,-3.4165,-3.4024,-3.4099,-3.3829,0.0,0.0,0.0,0.0,-3.3807,-3.3807,-3.3807,-3.3807,-3.3807,-3.3807,-3.3807,-3.3807,-3.5092,-3.7624,-3.8946,-4.0173,-4.1326,-4.3744,-4.2269,-3.8125,-3.9516,-3.8057,-3.5034,-3.7488,-3.7202,-3.5359,-3.5858,-3.6389,-3.6611,-3.4733,-3.4759,-3.5499,-3.4476,-3.4136,-3.4136,-3.4136,-3.4148,-3.4049,-3.356,-3.2644,-3.198,-3.2802,-3.2321,-3.23,-3.531,-3.5066,-3.473,-3.7266,-3.9133,-4.0395,-4.0712,-4.3473,-4.5282,-4.3474,-4.336,-4.3348,-4.2719,0.0,0.0,0.0,0.0,0.0,0.0,0.0,0.0,0.0,0.0,0.0,0.0,0.0,0.0,-3.7526,-3.6979,-3.6902,-3.7494,-3.751,-3.751,-3.751,-3.751,-3.751,-3.751,-3.751,-3.751,-3.751,-3.751,-3.751,-3.751,-3.751,-3.7227,-3.6769,-3.6327,-3.6406,-3.6801,-3.6801,-3.7069,-3.7539,-3.7714,-3.7786,-3.7786,0.0,0.0,0.0,0.0,0.0,0.0,0.0,0.0,0.0,-3.5162,0.0,0.0,0.0,0.0,-3.4352,-3.4365,-3.4238,-3.4046,-3.3807,-3.3807,-3.3807,-3.3807,-3.3807,-3.3807,-3.3807,-3.3807,-3.3807,-3.3807,-3.3807,-3.4504,-3.5899,-3.7257,-3.8352,-3.9314,-4.2373,-4.206,-3.9295,-4.1071,-3.9704,-3.6569,-3.8876,-3.8678,-3.7049,-3.7289,-3.7697,-3.7956,-3.6348,-3.6324,-3.6912,-3.6116,-3.5479,-3.5033,-3.5033,-3.4643,-3.403,-3.3243,-3.263,-3.2256,-3.2508,-3.1418,-3.0868,-3.3633,-3.2762,-3.1909,-3.4429,-3.6794,-3.853,-3.872,-4.2116,-4.4698,-4.3603,-4.3653,-4.3558,-4.2725,0.0,0.0,0.0,0.0,0.0,0.0,0.0,0.0,0.0,0.0,0.0,0.0,0.0,0.0,-3.748,-3.6963,-3.6886,-3.7494,-3.751,-3.751,-3.751,-3.751,-3.751,-3.751,-3.751,-3.751,-3.751,-3.751,-3.751,-3.751,-3.751,-3.7212,-3.6738,-3.6279,-3.6358,-3.6785,-3.6785,-3.7069,-3.751,-3.751,-3.751,-3.751,0.0,0.0,0.0,0.0,0.0,0.0,0.0,0.0,-3.5855,-3.5814,0.0,0.0,0.0,0.0,0.0,-3.493,-3.4926,-3.4637,-3.388,-3.3807,-3.3807,-3.3807,0.0,0.0,-3.3807,-3.3807,-3.3807,-3.3807,-3.3807,-3.4197,-3.4986,-3.5826,-3.6738,-3.7659,-3.8453,-4.0059,-4.2158,-4.2312,-4.1896,-4.1163,-4.1516,-4.1126,-4.0248,-3.9454,-3.9157,-3.912,-3.9101,-3.8599,-3.8079,-3.8841,-3.8024,-3.6686,-3.6643,-3.5497,-3.4048,-3.325,-3.3008,-3.2667,0.0,0.0,0.0,-3.0827,-3.1446,-3.2183,-3.1917,-3.496,-3.7985,-3.8447,-4.1564,-4.4432,-4.5156,-4.4899,-4.4117,-4.2849,0.0,0.0,0.0,0.0,0.0,0.0,0.0,0.0,0.0,0.0,0.0,0.0,0.0,-3.816,-3.7541,-3.751,-3.751,-3.751,-3.751,-3.751,-3.751,-3.751,-3.751,-3.751,-3.751,-3.751,-3.751,-3.751,-3.751,-3.751,-3.751,-3.751,-3.751,-3.751,-3.751,-3.751,-3.751,-3.751,-3.751,-3.751,-3.751,-3.751,0.0,0.0,0.0,0.0,0.0,0.0,0.0,0.0,-3.7199,0.0,0.0,0.0,-3.596,-3.5395,-3.5028,-3.4976,-3.4472,-3.427,-3.4637,-3.4119,-3.3807,-3.3807,-3.3807,-3.3807,-3.3807,-3.3807,-3.3807,-3.3807,-3.3807,-3.3917,-3.4137,-3.443,-3.5004,-3.586,-3.6556,-3.7606,-3.8952,-4.0812,-3.9834,-3.7373,-4.1359,-4.1213,-3.8753,-4.0163,-4.0415,-3.9955,-3.9324,-3.9361,-3.964,-3.9231,-3.8024,-3.6495,-3.5256,-3.4569,-3.416,-3.3918,-3.3466,-3.2908,-3.2462,0.0,0.0,0.0,0.0,0.0,-3.0628,-3.2417,-3.427,-3.488,-3.8699,-4.2141,-4.2943,-4.4225,-4.4906,-4.41,0.0,0.0,0.0,0.0,0.0,0.0,0.0,0.0,0.0,0.0,0.0,0.0,-3.747,-3.7028,-3.7494,-3.751,-3.751,-3.751,-3.751,-3.751,-3.751,-3.751,-3.751,-3.751,-3.751,-3.751,-3.751,-3.751,-3.751,-3.751,-3.751,-3.751,-3.751,-3.751,-3.751,-3.751,-3.751,-3.751,-3.751,-3.751,-3.751,-3.751,0.0,0.0,0.0,0.0,0.0,0.0,0.0,-3.8219,-3.7703,0.0,0.0,0.0,-3.6241,-3.6402,-3.627,-3.5591,-3.511,-3.489,-3.4986,-3.4252,-3.3807,-3.3807,-3.3807,-3.3807,-3.3807,-3.3807,-3.3807,-3.3807,-3.3666,-3.3611,-3.3671,0.0,-3.3759,-3.42,-3.4588,-3.5165,-3.5948,-3.7979,-3.8306,-3.7723,-4.0925,-4.1322,-4.0164,-4.1431,-4.1705,-4.1367,-4.12,-4.1193,-4.126,-4.1171,-3.9602,-3.7509,-3.6496,-3.5261,-3.4315,-3.4945,-3.4352,-3.3429,-3.3094,-3.2667,-3.2295,-3.2295,0.0,0.0,-3.0607,-3.2184,-3.3735,0.0,-3.7433,-4.0516,-4.0654,-4.1729,-4.254,-4.2484,-4.1575,0.0,0.0,0.0,0.0,0.0,0.0,0.0,0.0,0.0,0.0,-3.8507,-3.7421,-3.6963,-3.7478,-3.751,-3.751,-3.751,-3.751,-3.751,-3.751,-3.751,-3.751,-3.751,-3.751,-3.751,-3.751,-3.751,-3.751,-3.751,-3.751,-3.751,-3.751,-3.751,-3.751,-3.751,-3.7569,-3.7583,-3.7583,-3.7583,-3.7583,-3.7569,0.0,0.0,0.0,0.0,0.0,0.0,0.0,-3.8396,-3.7825,0.0,-3.7145,-3.6595,-3.6446,-3.7624,-3.7863,-3.6413,-3.6119,-3.5734,-3.5041,-3.4252,-3.3807,-3.3807,-3.3807,-3.3807,-3.3807,-3.3807,-3.3793,-3.3766,-3.3484,-3.3353,-3.3419,0.0,0.0,0.0,-3.2928,-3.3126,-3.3484,-3.4598,-3.6838,-3.9698,-4.0147,-4.1252,-4.2632,-4.2742,-4.2656,-4.2653,-4.3624,-4.3341,-4.2622,-4.3426,-4.1731,-3.9221,-3.8748,-3.6693,-3.4655,-3.5776,-3.5208,-3.4048,-3.3312,-3.312,-3.3131,-3.3131,-3.2525,0.0,-3.1482,-3.3143,-3.4666,0.0,-3.6861,-3.8874,-3.8372,-3.8311,-3.8543,-3.9238,-3.9447,0.0,0.0,0.0,0.0,0.0,0.0,0.0,0.0,-3.9408,-3.8602,-3.8523,-3.7875,-3.751,-3.751,-3.751,-3.751,-3.751,-3.751,-3.751,-3.751,-3.751,-3.751,-3.751,-3.751,-3.751,-3.751,-3.751,-3.751,-3.751,-3.7415,-3.7431,-3.7494,-3.7415,-3.7431,-3.751,-3.7612,-3.7671,-3.77,-3.7671,-3.7716,-3.77,0.0,0.0,0.0,0.0,0.0,0.0,0.0,-3.8748,-3.8582,-3.8582,-3.8397,-3.8006,-3.7345,-3.6978,-3.6633,-3.6321,-3.5073,-3.4504,-3.4968,-3.4252,-3.3807,-3.3807,-3.3807,-3.3807,-3.3807,-3.3807,-3.3726,0.0,0.0,0.0,0.0,0.0,0.0,-3.2681,-3.3221,-3.3232,-3.2867,-3.2999,-3.4057,-3.5878,-3.876,-4.0072,-4.0444,-4.1954,-4.1833,-4.1047,-4.3098,-4.3266,-4.2421,-4.1973,-4.1285,-4.0165,0.0,0.0,0.0,-3.4627,-3.4269,-3.4136,-3.3889,-3.3883,-3.3956,0.0,-3.3326,0.0,-3.2594,-3.2269,-3.2305,0.0,-3.4249,-3.5105,-3.6097,-3.653,-3.6822,-3.7076,-3.7068,0.0,0.0,0.0,0.0,0.0,0.0,0.0,0.0,-3.9819,-3.9092,-3.8555,-3.7875,-3.751,-3.751,-3.751,-3.751,-3.751,-3.751,-3.751,-3.751,-3.751,-3.751,-3.751,-3.751,-3.751,-3.751,-3.751,-3.751,-3.7478,-3.688,-3.6959,-3.7462,-3.6864,-3.6959,-3.751,-3.7539,-3.7583,-3.7671,-3.7599,-3.7687,-3.7847,0.0,0.0,0.0,0.0,0.0,0.0,0.0,0.0,-3.8807,-3.8807,-3.875,-3.8248,-3.7033,-3.6905,-3.6725,-3.634,-3.5532,-3.522,-3.561,-3.5275,-3.4669,-3.3844,-3.4192,-3.4128,-3.3569,-3.3629,0.0,0.0,0.0,0.0,0.0,0.0,0.0,-3.265,-3.2578,-3.2494,-3.2399,-3.2196,-3.2965,-3.459,-3.7462,-3.8904,-3.956,-4.1542,-4.1846,-4.1389,-4.2796,-4.3187,-4.2879,-4.2071,-4.1436,0.0,-3.9609,-3.7938,-3.6279,0.0,-3.4892,-3.4074,0.0,0.0,0.0,-3.4099,0.0,0.0,0.0,-3.2823,-3.2964,-3.3237,-3.357,-3.3772,-3.372,-3.3441,-3.3344,-3.3799,-3.3956,-3.4771,0.0,0.0,0.0,0.0,0.0,0.0,0.0,-3.9896,-3.9076,-3.8081,-3.77,-3.751,-3.751,-3.751,-3.751,-3.751,-3.751,-3.751,-3.751,-3.751,-3.751,-3.751,-3.751,-3.751,-3.751,-3.751,-3.751,-3.7494,-3.7101,-3.6959,-3.6959,-3.6959,-3.6959,-3.702,-3.7515,-3.773,-3.7788,-3.7847,-3.7934,-3.802,-3.6864,-3.7661,0.0,0.0,0.0,0.0,0.0,0.0,-3.8792,-3.8777,-3.8863,-3.8456,-3.7177,-3.7451,-3.7613,-3.7305,-3.6687,-3.6442,-3.6743,-3.6475,-3.5692,-3.4293,-3.4659,-3.4448,-3.3511,-3.3367,-3.3155,0.0,0.0,0.0,0.0,0.0,0.0,-3.2581,-3.1939,-3.1909,-3.2348,-3.2125,-3.2986,-3.4683,-3.6695,-3.7873,-3.8674,-4.0965,-4.1668,-4.1517,-4.232,-4.2847,-4.305,-4.2153,-4.1386,-4.0859,-4.1362,-3.9129,0.0,0.0,0.0,0.0,0.0,0.0,0.0,0.0,0.0,-3.3768,0.0,0.0,0.0,-3.3284,-3.3399,-3.319,-3.164,0.0,0.0,0.0,0.0,0.0,0.0,0.0,0.0,0.0,0.0,0.0,0.0,-3.9404,-3.8629,-3.7573,-3.751,-3.751,-3.751,-3.751,-3.751,-3.751,-3.751,-3.751,-3.751,-3.751,-3.751,-3.751,-3.751,-3.751,-3.751,-3.751,-3.751,-3.7494,-3.7368,-3.7022,-3.6629,-3.7101,-3.7022,-3.669,-3.7536,-3.7876,-3.7934,-3.8078,-3.8164,-3.8209,-3.8047,-3.7739,-3.7609,0.0,0.0,0.0,0.0,0.0,-3.8777,-3.8719,-3.9328,-3.9741,-3.968,-3.9006,-3.9159,-4.0691,-3.8113,-3.6966,-3.8346,-3.714,-3.621,-3.5842,-3.4948,-3.4388,-3.4189,-3.3152,-3.2822,0.0,0.0,0.0,0.0,0.0,0.0,-3.2334,-3.2249,-3.2608,-3.326,-3.3219,-3.4172,-3.5826,-3.7268,-3.7098,0.0,-3.9681,-4.0141,-3.9251,-4.1209,-4.1958,-4.1831,0.0,-4.0181,-3.9782,0.0,-3.7496,-3.6105,-3.6002,0.0,0.0,0.0,0.0,0.0,0.0,-3.3855,0.0,0.0,0.0,-3.3688,-3.2921,0.0,-3.1926,-3.0399,0.0,0.0,0.0,0.0,0.0,-3.0958,0.0,0.0,0.0,0.0,0.0,0.0,0.0,-3.7406,-3.7492,-3.751,-3.751,-3.751,-3.751,-3.751,-3.751,-3.751,-3.751,-3.751,-3.751,-3.751,-3.751,-3.751,-3.751,-3.751,-3.751,-3.751,-3.7478,-3.6817,-3.6864,-3.7352,-3.6769,-3.6864,-3.7399,-3.7639,-3.7788,-3.7905,-3.7934,-3.8135,-3.8379,-3.7408,-3.7831,-3.7885,0.0,0.0,0.0,0.0,0.0,-3.8499,-3.8469,-3.8761,-3.9053,-3.9245,-3.8959,-3.9302,-4.0704,-3.9518,-3.8799,-3.903,-3.8204,-3.7167,-3.6037,-3.4815,-3.4185,-3.4235,-3.3407,-3.3138,0.0,-3.3948,0.0,0.0,0.0,0.0,0.0,-3.189,-3.2347,-3.3507,-3.3427,-3.4295,-3.5785,-3.6338,-3.6174,0.0,-3.9187,-4.0185,-3.994,-4.0485,-4.1099,-4.1403,0.0,-4.0039,0.0,0.0,0.0,0.0,-3.7255,0.0,0.0,0.0,0.0,0.0,0.0,0.0,0.0,-3.4881,0.0,-3.371,0.0,0.0,0.0,0.0,0.0,0.0,0.0,-2.8169,0.0,0.0,0.0,-3.0419,0.0,0.0,0.0,0.0,0.0,0.0,0.0,0.0,-3.6626,-3.6626,-3.7181,-3.751,-3.751,-3.751,-3.751,-3.751,-3.751,-3.751,-3.751,-3.751,-3.751,-3.751,-3.751,-3.751,-3.7494,-3.7164,-3.6975,-3.688,-3.7078,-3.7089,-3.7054,-3.7745,-3.7963,-3.787,-3.7641,-3.7867,-3.8294,-3.6585,-3.7212,-3.733,-3.7228,0.0,0.0,0.0,0.0,-3.8519,-3.8736,-3.8953,-3.9193,-3.9441,-3.9451,-4.0053,-4.1521,-4.1135,-4.0731,-4.0616,-3.9491,-3.8239,-3.6897,-3.5048,-3.4199,-3.4463,-3.3523,0.0,0.0,0.0,0.0,0.0,0.0,0.0,0.0,-3.1568,-3.2059,-3.3583,-3.3867,-3.4856,-3.6259,-3.6664,-3.684,-3.7043,-3.8802,-3.9946,-4.0542,-4.01,-4.0464,-4.0877,-3.9388,-3.9711,0.0,-3.9483,0.0,-3.7683,0.0,0.0,0.0,-3.5628,0.0,0.0,0.0,0.0,0.0,0.0,0.0,0.0,0.0,0.0,0.0,0.0,0.0,0.0,0.0,0.0,-2.7662,0.0,-2.6966,0.0,0.0,0.0,0.0,0.0,0.0,0.0,-3.6216,-3.6088,-3.598,-3.598,-3.6963,-3.751,-3.751,-3.751,-3.751,-3.751,-3.751,-3.751,-3.751,-3.751,-3.751,-3.751,-3.751,-3.751,-3.751,-3.751,-3.7225,-3.6811,-3.7435,-3.73,-3.6752,-3.758,-3.7789,-3.7626,-3.7576,-3.7826,-3.8209,-3.6024,-3.5452,-3.5219,-3.6739,-3.7057,0.0,0.0,-3.8595,-3.9048,-3.9855,-4.0627,-4.1181,-4.1397,-4.1256,-4.2142,-4.4636,-4.2957,-4.2354,-4.3759,-4.1105,-3.9388,-3.9194,-3.5985,-3.4495,-3.5155,-3.3304,0.0,0.0,0.0,0.0,0.0,0.0,0.0,0.0,-3.1532,-3.2019,-3.3508,-3.4923,-3.6411,-3.7956,-3.9377,-3.996,-3.9808,0.0,-3.8877,-4.0121,-4.0104,0.0,0.0,-3.8957,-3.8649,0.0,0.0,0.0,0.0,0.0,0.0,0.0,0.0,0.0,0.0,-3.5766,0.0,0.0,0.0,0.0,-3.4747,0.0,0.0,0.0,0.0,0.0,0.0,-3.0646,0.0,0.0,0.0,0.0,0.0,0.0,0.0,0.0,0.0,0.0,0.0,-3.4765,-3.5509,-3.598,-3.598,-3.6963,-3.751,-3.751,-3.751,-3.751,-3.751,-3.751,-3.751,-3.751,-3.751,-3.751,-3.751,-3.751,-3.751,-3.751,-3.751,-3.7553,-3.7669,-3.77,-3.7374,-3.6906,-3.7078,-3.705,-3.7018,-3.7862,-3.8177,-3.818,-3.5893,-3.4765,-3.4161,-3.5226,-3.5029,-3.4814,-3.5115,-3.5598,-3.6935,-3.9708,-4.0306,-4.1703,-4.4967,-4.5328,-4.5346,-4.5441,-4.5697,-4.4998,-4.3005,-4.1601,-4.0524,-3.9866,-3.6933,-3.5356,-3.5457,-3.4338,0.0,0.0,0.0,0.0,0.0,0.0,0.0,0.0,0.0,-3.229,-3.4201,-3.527,-3.6622,-3.8082,0.0,-3.8826,-3.8925,0.0,0.0,-4.0096,-4.0096,-4.0096,0.0,-3.8997,-3.9147,-3.9648,-3.9234,-3.8699,-3.8488,-3.9772,-3.8705,0.0,0.0,0.0,-3.8257,-3.7912,0.0,0.0,0.0,0.0,0.0,0.0,0.0,0.0,0.0,0.0,-3.2834,-3.158,-3.0139,0.0,0.0,0.0,0.0,0.0,0.0,0.0,0.0,0.0,0.0,-3.343,-3.3444,-3.3613,0.0,-3.5643,-3.6506,-3.6506,-3.7134,-3.751,-3.751,-3.751,-3.751,-3.751,-3.751,-3.751,-3.7494,-3.699,-3.6785,-3.6785,-3.6785,-3.6856,-3.7017,-3.7581,-3.779,-3.7753,-3.781,-3.781,-3.7737,-3.7552,-3.7648,-3.7876,-3.5575,-3.4156,-3.3513,-3.5085,-3.4565,-3.4162,-3.4988,-3.5551,-3.7339,-4.1377,-4.1914,-4.3316,-4.6923,-4.714,-4.6816,-4.6363,-4.6552,-4.5703,-4.3267,-4.1791,-4.0849,-4.0519,-3.7759,-3.6401,-3.6806,0.0,0.0,0.0,0.0,-3.3288,0.0,0.0,0.0,0.0,0.0,-3.1985,-3.3444,-3.5098,-3.6366,0.0,0.0,-3.8495,0.0,0.0,-3.9738,-4.0246,0.0,-4.0246,-4.0143,-3.9588,-3.9862,-4.0339,-3.9778,-3.9534,-3.9646,-4.0412,-3.957,-3.8545,-3.9319,-3.9614,0.0,-3.9138,-3.8518,0.0,-3.6841,0.0,0.0,0.0,0.0,0.0,0.0,0.0,0.0,-3.1773,-3.0165,-2.8503,0.0,-2.654,0.0,0.0,0.0,0.0,0.0,0.0,-3.1955,-3.211,-3.2108,-3.2412,0.0,0.0,-3.598,-3.598,-3.6966,-3.751,-3.751,-3.751,-3.751,-3.751,-3.751,-3.751,-3.7478,-3.6753,-3.6393,-3.6393,-3.6197,-3.6356,-3.6765,-3.7358,-3.7709,-3.781,-3.8096,-3.7962,-3.762,-3.7383,-3.7492,-3.77,-3.515,-3.3731,-3.3407,-3.6202,-3.5521,-3.5332,-3.7539,-3.8166,-3.9982,-4.4516,-4.522,-4.5863,-4.7414,-4.6985,-4.6797,-4.7311,-4.5784,-4.4682,-4.4513,-4.1847,-4.0552,0.0,-3.8514,-3.7625,-3.8903,0.0,0.0,0.0,0.0,0.0,0.0,0.0,0.0,0.0,-3.1241,-3.1241,-3.1515,-3.4499,-3.5817,-3.6004,-3.7449,-3.8949,-4.0188,-3.8629,0.0,-4.0485,-4.0493,-4.051,-4.0534,-4.0648,-4.0697,-4.0721,-4.0864,-4.0817,-4.0721,-4.0847,-4.0817,-4.0745,-4.0864,-4.0894,-4.0619,-3.9469,0.0,0.0,0.0,0.0,-3.8319,0.0,0.0,0.0,0.0,0.0,0.0,-3.144,-2.9778,-2.8388,0.0,0.0,-2.7299,0.0,0.0,0.0,-2.961,-3.2076,-3.2923,-3.0748,-3.1414,-3.2285,0.0,0.0,0.0,-3.6007,-3.688,-3.7411,-3.751,-3.7476,-3.7476,-3.751,-3.751,-3.751,-3.7478,-3.6753,-3.6377,-3.6314,-3.5804,-3.6067,-3.6858,-3.703,-3.7118,-3.7214,-3.7906,-3.7546,-3.6721,-3.7433,-3.77,-3.77,-3.571,-3.5576,-3.5525,-3.5164,-3.478,-3.4916,-3.6044,-3.7263,-3.9448,-4.3345,-4.5343,-4.7352,-4.9949,-5.0561,-4.9729,-4.7165,-4.6997,0.0,0.0,0.0,0.0,-4.2033,-4.0764,-3.9478,-3.821,-3.7432,-3.67,-3.6067,0.0,0.0,-3.4606,0.0,0.0,0.0,0.0,-3.1799,-3.2946,-3.4633,-3.6093,-3.7269,-3.6888,-3.7384,0.0,0.0,-3.8195,-4.0045,-4.0353,-4.051,-4.0534,-4.0648,-4.0697,-4.0721,-4.0864,-4.0888,-4.084,-4.0769,-4.0793,-4.084,-4.0769,-4.0817,-4.0832,-4.0528,-3.9765,-3.8867,0.0,0.0,0.0,0.0,0.0,0.0,0.0,0.0,0.0,-3.3169,-2.9954,-2.7584,0.0,0.0,0.0,-2.804,0.0,0.0,-2.792,-2.9075,-2.961,-2.9023,-2.9214,-3.0248,0.0,0.0,0.0,-3.5927,-3.572,-3.6184,-3.7494,-3.6862,-3.6862,-3.751,-3.751,-3.751,-3.7478,-3.6753,-3.6137,-3.5647,-3.5625,-3.578,-3.6121,-3.671,-3.7339,-3.7923,-3.7841,-3.7589,-3.7286,-3.746,-3.7569,-3.7599,-3.5351,-3.5216,-3.5131,-3.4612,-3.5318,-3.6349,-3.7408,-3.8287,0.0,-4.4367,-4.5991,0.0,-4.9528,-5.0422,-4.9898,-4.7496,-4.616,0.0,-4.3413,0.0,0.0,-4.2286,-4.1593,-4.0476,-3.8896,-3.8244,0.0,-3.7302,0.0,0.0,-3.5701,0.0,0.0,0.0,0.0,-3.1803,-3.2679,-3.4477,-3.6242,-3.7715,-3.677,0.0,0.0,-3.6832,-3.762,-3.9335,-3.9603,-4.0137,-4.068,-4.0769,-4.0793,-4.0793,-4.0888,-4.0912,-4.0888,-4.0817,-4.084,-4.0871,-4.0817,-4.084,-4.0912,-4.0912,-4.04,-3.9772,-3.9298,-3.9015,-3.8832,0.0,0.0,0.0,0.0,0.0,0.0,-3.1947,0.0,0.0,0.0,0.0,0.0,0.0,-2.8713,0.0,-2.742,-2.7678,-2.804,-2.8385,-2.8696,0.0,0.0,0.0,0.0,-3.4726,-3.5514,-3.5997,-3.6237,-3.6084,-3.6287,-3.686,-3.6933,-3.7154,-3.7478,-3.6796,-3.627,-3.5918,-3.5757,-3.5899,-3.6313,-3.6786,-3.7379,-3.7963,-3.77,-3.7569,-3.751,-3.751,-3.7539,-3.7612,-3.4675,-3.3981,-3.3812,-3.4641,-3.6518,-3.8514,0.0,-4.0603,0.0,-4.5991,0.0,-4.7141,-4.7716,-4.8426,-4.8528,-4.7669,-4.4536,-4.3115,-4.435,-4.1897,-4.0967,-4.2236,-4.1593,-4.0865,-4.0113,-3.8853,-3.8522,0.0,0.0,0.0,0.0,0.0,0.0,0.0,-3.1798,-3.1528,-3.1918,-3.4124,-3.6025,-3.7507,-3.6838,-3.7306,-3.8297,-3.6891,-3.7275,-3.8553,-3.8553,-3.9439,-4.0597,-4.0597,-4.0597,-4.0638,-4.0734,-4.0776,-4.0758,-4.0871,-4.0912,-4.0912,-4.0912,-4.0912,-4.0912,-4.0912,-4.0912,-4.0912,-4.0912,-4.0912,-4.0912,-4.0912,-4.0912,0.0,0.0,0.0,0.0,0.0,0.0,0.0,0.0,0.0,0.0,0.0,0.0,0.0,0.0,0.0,-2.7661,-2.8213,-2.8851,0.0,0.0,0.0,0.0,0.0,-3.5564,0.0,-3.48,0.0,-3.5946,-3.6216,-3.6384,-3.6844,-3.7537,-3.7004,-3.6711,-3.66,-3.615,-3.6302,-3.6906,-3.699,-3.7294,-3.7642,-3.7539,-3.751,-3.751,-3.748,-3.7553,-3.773,-3.4834,-3.4387,-3.4742,-3.6152,-3.7229,-3.9022,-4.231,-4.3386,-4.4107,-4.4886,-4.6566,-4.753,-4.7039,-4.7665,-4.7534,-4.621,-4.4925,0.0,0.0,0.0,0.0,-4.2286,-4.1593,-4.0849,-4.013,-3.9859,-3.9632,0.0,0.0,0.0,0.0,0.0,0.0,0.0,-3.1571,-3.1671,-3.325,-3.3588,0.0,-3.6338,-3.6635,-3.6529,-3.6222,-3.6531,-3.7105,-3.7777,-3.7777,-3.8358,-3.9096,-3.9096,-3.9096,-3.9203,-3.9808,-4.0003,-4.0103,-4.071,-4.0912,-4.0912,-4.0912,-4.0912,-4.0912,-4.0912,-4.0912,-4.0912,-4.0912,-4.0912,-4.0912,-4.0912,-4.0912,-4.0797,-4.0429,0.0,0.0,0.0,0.0,0.0,0.0,0.0,0.0,0.0,0.0,-2.9455,0.0,0.0,0.0,0.0,0.0,0.0,0.0,0.0,0.0,0.0,0.0,0.0,0.0,0.0,0.0,-3.739,-3.7289,-3.7422,-3.7847,-3.7703,-3.7364,-3.6834,-3.675,-3.6794,-3.6878,-3.6765,-3.7007,-3.7539,-3.751,-3.751,-3.748,-3.73,-3.7449,-3.773,-3.6211,-3.4935,-3.4404,-3.591,-3.7127,0.0,0.0,-4.3362,-4.475,-4.5111,-4.5754,-4.5889,-4.5128,-4.6075,-4.6329,-4.5213,-4.3707,-4.2997,-4.3375,-4.1999,-4.1339,-4.1711,-4.139,-4.0679,-3.9554,-3.991,-3.9741,-3.9016,0.0,0.0,0.0,0.0,0.0,-3.2829,0.0,-3.2069,0.0,0.0,0.0,-3.6066,-3.6645,-3.6666,-3.6342,-3.6537,-3.6769,-3.7042,-3.7042,-3.728,-3.7793,-3.8553,-3.887,-3.9022,-3.9385,-3.9489,-3.9542,-3.9893,-4.0011,-4.0087,-4.036,-4.0434,-4.0524,-4.0823,-4.0912,-4.0912,-4.0912,-4.0912,-4.0912,-4.0912,-4.0912,-4.067,-3.9859,-3.7887,0.0,0.0,0.0,0.0,0.0,0.0,-3.1558,0.0,0.0,0.0,0.0,0.0,0.0,0.0,0.0,0.0,0.0,0.0,0.0,0.0,0.0,0.0,0.0,0.0,0.0,-3.7093,-3.7058,-3.7329,-3.7905,-3.802,-3.7873,-3.758,-3.745,-3.7422,-3.7393,-3.7163,-3.7223,-3.751,-3.7569,-3.7583,-3.7583,-3.7373,-3.7581,-3.7934,-3.7452,-3.5793,-3.4734,-3.6194,-3.752,0.0,-4.0773,-4.2993,-4.4705,-4.5365,-4.4942,-4.435,-4.3724,-4.4604,-4.4908,-4.4192,-4.2472,-4.1796,-4.2642,-4.1221,-4.0553,-4.095,-4.0993,-4.0383,-3.9118,-3.964,-3.9436,0.0,0.0,0.0,0.0,0.0,0.0,0.0,0.0,0.0,0.0,0.0,-3.6054,-3.6369,-3.6859,-3.703,-3.6984,-3.6647,-3.6523,-3.6492,-3.6492,-3.66,-3.6952,-3.8092,-3.8585,-3.8772,-3.8936,-3.8963,-3.9017,-3.9152,-3.9206,-3.9295,-3.974,-3.9825,-3.9969,-4.0476,-4.0614,-4.0662,-4.0776,-4.0799,-4.0823,-4.0888,-4.0912,-4.0532,-3.9324,-3.8358,0.0,0.0,0.0,0.0,0.0,0.0,0.0,0.0,0.0,0.0,-3.0696,0.0,0.0,0.0,0.0,0.0,0.0,0.0,0.0,0.0,0.0,0.0,-3.5085,0.0,-3.6406,0.0,-3.6905,-3.7313,-3.802,-3.8164,-3.8237,-3.8209,-3.7992,-3.7876,-3.7788,-3.7599,-3.751,-3.7569,-3.7642,-3.7671,-3.7596,-3.7433,-3.7669,-3.8049,-3.7497,-3.7294,0.0,0.0,0.0,0.0,-4.3656,-4.4038,-4.4153,-4.4643,-4.4649,-4.4581,-4.4513,-4.3978,-4.3335,-4.2574,-4.2303,-4.1677,-4.0502,-4.096,-4.096,-4.0214,-4.0307,-4.0054,-3.9387,-3.9428,-3.9038,0.0,0.0,-3.5864,0.0,0.0,0.0,0.0,0.0,0.0,0.0,-3.5296,-3.6191,-3.7334,-3.7237,-3.7089,-3.6969,-3.6754,-3.66,-3.6492,-3.6492,-3.6708,-3.6999,-3.7135,-3.7195,-3.73,-3.8001,-3.8185,-3.8327,-3.9001,-3.9206,-3.9206,-3.9242,-3.9269,-3.9365,-3.9662,-3.974,-3.9868,-4.0419,-4.0534,-4.0607,-4.0847,-4.0912,-4.086,-4.0722,-3.9497,-3.7974,0.0,0.0,0.0,0.0,0.0,-3.2628,-3.1886,0.0,0.0,0.0,-2.8403,0.0,0.0,0.0,0.0,0.0,0.0,0.0,-3.341,0.0,-3.4073,-3.4995,-3.569,0.0,-3.8056,-3.7883,-3.7981,-3.8335,-3.8363,-3.8307,-3.8209,-3.7992,-3.7759,-3.7539,-3.751,-3.7553,-3.7671,-3.7716,-3.7596,-3.7417,-3.7268,-3.7433,-3.773,0.0,0.0,0.0,0.0,0.0,0.0,0.0,-4.2315,-4.2733,-4.2752,-4.3263,-4.3479,-4.3074,-4.2385,-4.182,-4.1566,-4.1117,-4.0618,-4.001,-3.9897,-3.9698,-3.9335,-3.9372,-3.9292,-3.9034,-3.9034,-3.8717,0.0,0.0,0.0,0.0,0.0,0.0,0.0,0.0,-3.4885,-3.526,-3.6237,-3.7004,-3.748,-3.7284,-3.7119,-3.6969,-3.6785,-3.6631,-3.6492,-3.6492,-3.6647,-3.6831,-3.6969,-3.7121,-3.7361,-3.7655,-3.7596,-3.7508,-3.7799,-3.7725,-3.765,-3.7962,-3.8076,-3.8173,-3.863,-3.8767,-3.8821,-3.9063,-3.9116,-3.9143,-3.9275,-3.9707,-4.0235,-4.0799,-4.0411,-3.9497,0.0,0.0,0.0,0.0,0.0,0.0,-3.5218,0.0,-3.3016,0.0,0.0,0.0,0.0,0.0,0.0,0.0,0.0,0.0,-3.3708,0.0,-3.5399,-3.6904,-3.6545,-3.6911,-3.8017,-3.7741,-3.7671,-3.7815,-3.7815,-3.7727,-3.7596,-3.7522,-3.7359,-3.7211,-3.7211,-3.7241,-3.7301,-3.7359,-3.7344,-3.7268,-3.7119,-3.727,-3.7492,-3.9204,0.0,-3.6713,0.0,-3.8325,-3.864,-3.9454,-4.0697,-4.1289,-4.0628,-4.1207,-4.1671,-4.1697,-4.1107,-4.0598,-4.0357,-3.9865,-3.9373,-3.8919,-3.8876,-3.8745,-3.8494,-3.8728,0.0,-3.8595,-3.8595,-3.8371,-3.7915,-3.6756,0.0,0.0,0.0,0.0,0.0,-3.5181,-3.5867,-3.593,-3.704,-3.751,-3.748,-3.7359,-3.718,-3.7044,-3.6862,-3.6708,-3.6554,-3.6523,-3.6616,-3.68,-3.6938,-3.7151,-3.7361,-3.7361,-3.7181,-3.6969,-3.6877,-3.6693,-3.6569,-3.6981,-3.707,-3.7189,-3.77,-3.7828,-3.7857,-3.804,-3.8068,-3.8096,-3.8165,-3.869,-3.9337,-3.9994,-4.0111,-3.9595,-3.8062,0.0,0.0,0.0,0.0,0.0,0.0,-3.4404,-3.3352,-3.416,-3.1185,0.0,0.0,0.0,0.0,0.0,0.0,0.0,0.0,0.0,0.0,0.0,0.0,-3.6681,-3.774,-3.7506,-3.7417,-3.7417,-3.7358,-3.7298,-3.7194,-3.7164,-3.7075,-3.7015,-3.7015,-3.703,-3.7075,-3.7164,-3.7164,-3.7119,-3.703,-3.7105,-3.727,-3.8501,-3.8496,-3.8693,-3.9361,-3.9762,-3.9688,-3.8926,-3.9734,-3.9911,-3.8535,-3.8472,-3.9179,-4.084,-4.0352,-3.9619,-3.8887,-3.8821,-3.8172,-3.6646,-3.8077,-3.8607,0.0,0.0,-3.8701,-3.81,-3.8116,-3.7902,-3.751,0.0,0.0,-3.5181,0.0,-3.5166,-3.5244,-3.6774,-3.7478,-3.7478,-3.7494,-3.751,-3.751,-3.751,-3.7375,-3.7194,-3.706,-3.6862,-3.6693,-3.6554,-3.6708,-3.7015,-3.7015,-3.7015,-3.7015,-3.7015,-3.7015,-3.6938,-3.6585,-3.6492,-3.6492,-3.6523,-3.6523,-3.6569,-3.6845,-3.692,-3.7055,-3.7658,-3.7787,-3.7873,-3.8153,-3.8193,-3.8221,-3.8221,-3.8221,-3.7723,-3.6174,0.0,0.0,0.0,0.0,0.0,-3.3838,-3.1831,-3.1241,-3.322,0.0,0.0,0.0,0.0,0.0,0.0,0.0,0.0,-3.1863,-3.231,0.0,-3.4333,-3.4787,-3.5817,-3.7417,-3.7417,-3.7417,-3.7387,-3.7268,-3.7194,-3.7178,-3.7044,-3.7015,-3.7015,-3.7015,-3.7075,-3.7194,-3.7194,-3.7119,-3.7015,-3.7015,-3.7015,-3.6999,-3.5359,-3.6192,-3.694,-3.6224,-3.6947,-3.7531,-3.7284,-3.7872,-3.8121,-3.7506,-3.7461,-3.7591,-3.79,-3.7725,-3.7474,0.0,-3.6902,-3.6722,0.0,-3.7011,-3.7221,-3.7537,-3.7354,-3.7125,-3.694,-3.6722,-3.6546,-3.6415,0.0,0.0,0.0,-3.4867,-3.5556,-3.6774,-3.7275,-3.751,-3.751,-3.751,-3.751,-3.748,-3.7359,-3.721,-3.7014,-3.677,-3.6616,-3.6523,-3.6273,-3.6289,-3.643,-3.643,-3.643,-3.6445,-3.6352,-3.6336,-3.6304,-3.6195,-3.5988,-3.5812,-3.5812,-3.5812,-3.5844,-3.591,-3.5941,-3.6005,-3.6196,-3.6243,-3.643,-3.7112,-3.7245,-3.7451,-3.808,-3.8193,-3.7711,-3.6163,0.0,0.0,0.0,0.0,0.0,0.0,-3.3156,-3.25,0.0,-3.1852,0.0,0.0,0.0,0.0,0.0,0.0,0.0,0.0,-3.4555,0.0,-3.6273,-3.5751,-3.605,-3.7135,-3.6907,-3.6785,-3.6785,-3.6754,-3.6723,-3.6723,-3.6677,-3.6662,-3.6662,-3.6662,-3.6677,-3.6723,-3.6723,-3.6708,-3.6662,-3.6662,-3.6662,-3.6662,-3.4592,-3.525,-3.5848,-3.5011,-3.5564,-3.5995,-3.5693,-3.6234,-3.6528,-3.5999,-3.6248,-3.6345,-3.6145,-3.6115,0.0,-3.6492,-3.6184,-3.6213,-3.6785,-3.6518,-3.6546,-3.7089,-3.6682,-3.6433,-3.6433,0.0,0.0,-3.6118,-3.5414,-3.5184,-3.5364,-3.5364,-3.6008,-3.7105,-3.7105,-3.7105,-3.7105,-3.7105,-3.7105,-3.7105,-3.6998,-3.6892,-3.6785,-3.6585,-3.646,-3.6352,-3.6163,-3.6116,-3.6196,-3.6196,-3.6179,-3.6116,-3.6037,-3.591,-3.5797,-3.5797,-3.5651,-3.5504,-3.5504,-3.5504,-3.5504,-3.5504,-3.5504,-3.5504,-3.5504,-3.5504,-3.5636,-3.6196,-3.6306,-3.6508,-3.7098,-3.7172,-3.6859,-3.5907,0.0,-3.6843,-3.5891,0.0,0.0,0.0,0.0,0.0,0.0,-3.316,0.0,0.0,0.0,0.0,0.0,0.0,0.0,-3.3748,-3.5006,0.0,-3.6275,-3.5898,-3.6087,-3.6816,-3.6585,-3.6492,-3.6492,-3.6492,-3.6492,-3.6492,-3.6492,-3.6492,-3.6492,-3.6492,-3.6492,-3.6492,-3.6492,-3.6492,-3.6492,-3.6492,-3.6492,-3.6492,-3.5489,-3.537,0.0,0.0,-3.5444,0.0,-3.4399,-3.4989,-3.52,-3.4384,-3.5004,-3.5504,-3.5504,-3.5504,-3.5748,-3.6367,0.0,0.0,0.0,-3.6445,-3.6445,-3.6492,-3.6445,0.0,-3.6415,-3.6384,-3.6414,-3.6429,-3.6429,-3.6429,-3.646,-3.646,-3.6492,-3.6492,-3.6492,-3.6492,-3.6492,-3.6492,-3.6492,-3.6492,-3.6492,-3.6492,-3.6492,-3.646,-3.6352,-3.6179,-3.6148,-3.6148,-3.6164,-3.6133,-3.6053,-3.5973,-3.5973,-3.5733,-3.5504,-3.5504,-3.5504,-3.5504,-3.5504,-3.5504,-3.5504,-3.5504,-3.5504,-3.5504,-3.5504,-3.5504,-3.5504,-3.5504,-3.5504,-3.5504,-3.5504,-3.5504,-3.5504,-3.5504,-3.5504,-3.5459,-3.531,0.0,0.0,0.0,0.0,0.0,0.0,-3.4317,-3.3789,0.0,0.0,0.0,0.0,0.0,-3.1395,-3.2821,-3.4138,-3.4861,-3.4903,-3.5467,-3.6013,-3.6492,-3.6492,-3.6492,-3.6492,-3.6492,-3.6492,-3.6492,-3.6492,-3.6492,-3.6492,-3.6492,-3.6492,-3.6492,-3.6492,-3.6492,-3.6492,-3.6492,-3.6492,-3.6492,0.0,0.0,-3.519,-3.4143,-3.4816,-3.5412,-3.5215,-3.5367,-3.5412,-3.5215,-3.5367,-3.5504,-3.5504,-3.5504,-3.5569,-3.5716,-3.5376,-3.5411,-3.607,-3.5737,-3.5799,-3.6461,-3.5968,-3.5676,-3.5676,-3.5416,-3.5441,-3.5748,-3.5748,-3.5876,-3.61,-3.61,-3.6258,-3.6492,-3.6492,-3.6492,-3.6492,-3.6492,-3.6492,-3.6492,-3.6352,-3.6274,-3.6242,-3.599,-3.5958,-3.6005,-3.5765,-3.5718,-3.5784,-3.5701,-3.5651,-3.5619,-3.5619,-3.5554,-3.5504,-3.5504,-3.5504,-3.5504,-3.5504,-3.5504,-3.5504,-3.5504,-3.5504,-3.5504,-3.5504,-3.5504,-3.5504,-3.5504,-3.5504,-3.5504,-3.5504,-3.5504,-3.5504,-3.5504,-3.5604,-3.508,-3.3425,-3.343,0.0,0.0,-3.2682,-3.3702,-3.4517,-3.5266,-3.5262,0.0,0.0,0.0,0.0,0.0,-3.3803,-3.5511,-3.5899,-3.6087,-3.6091,-3.623,-3.6353,-3.6492,-3.6492,-3.6492,-3.6492,-3.6492,-3.6492,-3.6492,-3.6492,-3.6492,-3.6492,-3.6492,-3.6492,-3.6492,-3.6492,-3.6492,-3.6492,-3.6492,-3.6492,-3.6492,-3.3588,-3.4517,-3.5265,-3.4547,-3.5026,-3.5504,-3.5504,-3.5504,-3.5504,-3.5504,-3.5504,-3.5504,-3.5504,-3.5504,-3.5504,-3.5504,-3.5224,-3.526,-3.575,-3.5497,-3.5546,-3.602,-3.5671,-3.5458,-3.5458,-3.5285,-3.529,-3.5504,-3.5504,-3.5587,-3.5765,-3.5765,-3.5861,-3.602,-3.602,-3.602,-3.602,-3.602,-3.602,-3.602,-3.591,-3.5878,-3.5878,-3.5767,-3.5735,-3.578,-3.5636,-3.5589,-3.5604,-3.5522,-3.5504,-3.5504,-3.5504,-3.5504,-3.5504,-3.5504,-3.5504,-3.5504,-3.5504,-3.5504,-3.5504,-3.5504,-3.5504,-3.5504,-3.5504,-3.5504,-3.5504,-3.5504,-3.5504,-3.5504,-3.5504,-3.5554,-3.5604,-3.5604,-3.4901,-3.3954,-3.2796,-3.2262,0.0,-3.1767,-3.2943,-3.4166,-3.5145,-3.6012,-3.6091,-3.5115,0.0,0.0,-3.4991,-3.4463,-3.4854,-3.643,-3.6492,-3.6492,-3.6492,-3.6492,-3.6492,-3.6492,-3.6492,-3.6492,-3.6492,-3.6492,-3.6492,-3.6492,-3.6492,-3.6492,-3.6492,-3.6492,-3.6492,-3.6492,-3.6492,-3.6492,-3.6492,-3.6492,-3.6492,-3.6492,-3.5609,-3.5504,-3.5504,-3.5504,-3.5504,-3.5504,-3.5504,-3.5504,-3.5504,-3.5504,-3.5504,-3.5504,-3.5504,-3.5504,-3.5504,-3.5504,-3.5504,-3.5504,-3.5504,-3.5504,-3.5504,-3.5504,-3.5504,-3.5504,-3.5504,-3.5504,-3.5504,-3.5504,-3.5504,-3.5504,-3.5504,-3.5504,-3.5504,-3.5504,-3.5504,-3.5504,-3.5504,-3.5504,-3.5504,-3.5504,-3.5504,-3.5504,-3.5504,-3.5621,-3.5589,-3.5504,-3.5621,-3.5604,-3.5504,-3.5504,-3.5504,-3.5504,-3.5504,-3.5504,-3.5504,-3.5504,-3.5504,-3.5504,-3.5504,-3.5504,-3.5537,-3.5504,-3.5537,-3.5569,-3.5522,-3.5554,-3.5602,-3.5602,-3.5602,-3.5602,-3.5602,-3.5653,-3.5659,-3.5463,-3.403,-3.2883,-3.2537,0.0,-3.1137,-3.2859,-3.349,-3.4495,-3.6322,-3.6492,-3.6492,-3.6492,-3.546,0.0,0.0,-3.5429,-3.5337,-3.6445,-3.6492,-3.6492,-3.6492,-3.6492,-3.6492,-3.6492,-3.6492,-3.6492,-3.6492,-3.6492,-3.6492,-3.6492,-3.6492,-3.6492,-3.6492,-3.6492,-3.6492,-3.6492,-3.6492,-3.6492,-3.6492,-3.6492,-3.6492,-3.6492,-3.5534,-3.5504,-3.5504,-3.5504,-3.5504,-3.5504,-3.5504,-3.5504,-3.5504,-3.5504,-3.5504,-3.5504,-3.5504,-3.5504,-3.5504,-3.5504,-3.5504,-3.5504,-3.5504,-3.5504,-3.5504,-3.5504,-3.5504,-3.5504,-3.5504,-3.5504,-3.5504,-3.5504,-3.5504,-3.5504,-3.5504,-3.5504,-3.5504,-3.5504,-3.5504,-3.5504,-3.5504,-3.5504,-3.5504,-3.5504,-3.5504,-3.5504,-3.5504,-3.5522,-3.5537,-3.5504,-3.5522,-3.5537,-3.5504,-3.5504,-3.5504,-3.5504,-3.5504,-3.5504,-3.5504,-3.5504,-3.5504,-3.5504,-3.5504,-3.5572,-3.5638,-3.5522,-3.5716,-3.5878,-3.5703,-3.5814,-3.591,-3.591,-3.591,-3.591,-3.591,-3.5941,-3.5546,-3.4317,-3.3925,-3.3182,-3.1373,0.0,-3.3521,-3.3274,-3.4878,-3.6138,-3.6461,-3.6492,-3.6492,-3.6492,-3.6307,-3.6261,-3.6476,-3.6292,-3.6276,-3.6476,-3.6492,-3.6492,-3.6492,-3.6492,-3.6492,-3.6492,-3.6492,-3.6492,-3.6492,-3.6492,-3.6492,-3.6492,-3.6492,-3.6492,-3.6492,-3.6492,-3.6492,-3.6492,-3.6492,-3.6492,-3.6492,-3.6492,-3.6492,-3.6492,-3.5504,-3.5504,-3.5504,-3.5504,-3.5504,-3.5504,-3.5504,-3.5504,-3.5504,-3.5504,-3.5504,-3.5504,-3.5504,-3.5504,-3.5504,-3.5504,-3.5504,-3.5504,-3.5504,-3.5504,-3.5504,-3.5504,-3.5504,-3.5504,-3.5504,-3.5504,-3.5504,-3.5504,-3.5504,-3.5504,-3.5504,-3.5504,-3.5504,-3.5504,-3.5504,-3.5504,-3.5504,-3.5504,-3.5504,-3.5504,-3.5504,-3.5504,-3.5504,-3.5504,-3.5504,-3.5504,-3.5504,-3.5504,-3.5504,-3.5504,-3.5554,-3.5604,-3.5522,-3.5554,-3.5589,-3.5537,-3.5554,-3.5621,-3.5621,-3.575,-3.5846,-3.5797,-3.5893,-3.5973,-3.5863,-3.5941,-3.6005,-3.6005,-3.6005,-3.6005,-3.6005,-3.6068,-3.5887,-3.5216,-3.4272,0.0,0.0,-3.3093,-3.3654,-3.3332,-3.5185,-3.6492,-3.6492,-3.6492,-3.6492,-3.6492,-3.6492,-3.6492,-3.6492,-3.6492,-3.6492,-3.6492,-3.6492,-3.6492,-3.6492,-3.6492,-3.6492,-3.6492,-3.6492,-3.6492,-3.6492,-3.6492,-3.6492,-3.6492,-3.6492,-3.6492,-3.6492,-3.6492,-3.6492,-3.6492,-3.6492,-3.6492,-3.6492,-3.6492,-3.6492,-3.6492,-3.5504,-3.5504,-3.5504,-3.5504,-3.5504,-3.5504,-3.5504,-3.5504,-3.5504,-3.5504,-3.5504,-3.5504,-3.5504,-3.5504,-3.5504,-3.5504,-3.5504,-3.5504,-3.5504,-3.5504,-3.5504,-3.5504,-3.5504,-3.5504,-3.5504,-3.5504,-3.5504,-3.5504,-3.5504,-3.5504,-3.5504,-3.5504,-3.5504,-3.5504,-3.5504,-3.5504,-3.5504,-3.5504,-3.5504,-3.5472,-3.5294,-3.5213,-3.5213,-3.5034,-3.5001,-3.5034,-3.5034,-3.518,-3.5359,-3.5359,-3.5524,-3.572,-3.5604,-3.5621,-3.5688,-3.5572,-3.5686,-3.5816,-3.5784,-3.5894,-3.6037,-3.6005,-3.6068,-3.61,-3.6068,-3.6068,-3.61,-3.61,-3.61,-3.61,-3.61,-3.6179,-3.6166,-3.5798,0.0,0.0,0.0,-3.3531,-3.3654,-3.3989,-3.5507,-3.6492,-3.6492,-3.6492,-3.6492,-3.6492,-3.6492,-3.6492,-3.6492,-3.6492,-3.6492,-3.6492,-3.6492,-3.6492,-3.6492,-3.6492,-3.6492,-3.6492,-3.6492,-3.6492,-3.6492,-3.6492,-3.6492,-3.6492,-3.6492,-3.6492,-3.6492,-3.6492,-3.6492,-3.6492,-3.6492,-3.6492,-3.6492,-3.6492,-3.6492,-3.6492,-3.5504,-3.5504,-3.5504,-3.5504,-3.5504,-3.5504,-3.5504,-3.5504,-3.5504,-3.5504,-3.5504,-3.5504,-3.5504,-3.5504,-3.5504,-3.5504,-3.5504,-3.5504,-3.5504,-3.5504,-3.5504,-3.5504,-3.5504,-3.5504,-3.5504,-3.5504,-3.5504,-3.5504,-3.5504,-3.5504,-3.5504,-3.5504,-3.5504,-3.5504,-3.5504,-3.5504,-3.5504,-3.5504,-3.5504,-3.5424,-3.4677,-3.438,-3.4312,-3.363,-3.3506,-3.3644,-3.3644,-3.4192,-3.4957,-3.4957,-3.5397,-3.5941,-3.5767,-3.5688,-3.5688,-3.5688,-3.5911,-3.6148,-3.6005,-3.6085,-3.6148,-3.6037,-3.6226,-3.6414,-3.6242,-3.632,-3.646,-3.646,-3.646,-3.646,-3.646,-3.646,-3.6014,-3.4666,0.0,0.0,-3.4237,-3.4237,-3.4726,-3.6091,-3.6399,-3.6492,-3.6492,-3.6492,-3.6492,-3.6492,-3.6492,-3.6492,-3.6492,-3.6492,-3.6492,-3.6492,-3.6492,-3.6492,-3.6492,-3.6492,-3.6492,-3.6492,-3.6492,-3.6492,-3.6492,-3.6492,-3.6492,-3.6492,-3.6492,-3.6492,-3.6492,-3.6492,-3.6492,-3.6492,-3.6492,-3.6492,-3.6492,-3.6492,-3.6492,-3.6492,-3.5504,-3.5504,-3.5504,-3.5504,-3.5504,-3.5504,-3.5504,-3.5504,-3.5504,-3.5504,-3.5504,-3.5504,-3.5504,-3.5504,-3.5504,-3.5504,-3.5504,-3.5504,-3.5504,-3.5504,-3.5504,-3.5504,-3.5504,-3.5504,-3.5504,-3.5504,-3.5504,-3.5504,-3.5504,-3.5504,-3.5504,-3.5504,-3.5231,-3.4791,-3.5279,-3.4968,-3.4104,-3.4691,-3.4691,-3.4221,-3.3919,-3.3871,-3.3953,-3.3388,-3.3402,-3.3679,-3.3541,-3.3817,-3.4225,-3.4225,-3.4394,-3.461,-3.4394,-3.4428,-3.4543,-3.4677,-3.481,-3.4909,-3.4942,-3.564,-3.6242,-3.5752,-3.6085,-3.6352,-3.5847,-3.6116,-3.6492,-3.6492,-3.6492,-3.6352,-3.5911,-3.6179,-3.6152,-3.515,0.0,-3.5676,-3.5676,-3.5676,-3.5861,-3.643,-3.6116,-3.58,-3.58,-3.58,-3.58,-3.58,-3.6242,-3.6492,-3.6492,-3.6569,-3.6585,-3.6492,-3.6693,-3.6724,-3.6492,-3.6569,-3.6569,-3.6492,-3.6492,-3.6492,-3.6492,-3.6492,-3.6492,-3.6492,-3.6492,-3.6492,-3.6492,-3.6492,-3.6492,-3.6492,-3.6492,-3.6492,-3.6492,-3.6492,-3.6492,-3.6492,-3.5504,-3.5504,-3.5504,-3.5504,-3.5504,-3.5504,-3.5504,-3.5504,-3.5504,-3.5504,-3.5504,-3.5504,-3.5504,-3.5504,-3.5504,-3.5504,-3.5504,-3.5504,-3.5504,-3.5504,-3.5504,-3.5504,-3.5504,-3.5504,-3.5504,-3.5504,-3.5504,-3.5504,-3.5504,-3.5504,-3.5504,-3.5504,-3.5052,-3.4312,-3.4872,-3.4457,-3.3332,-3.3973,-3.3988,-3.3575,-3.3332,-3.3346,-3.3416,-3.2889,-3.2889,-3.3185,-3.3044,-3.3276,-3.361,-3.361,-3.3713,-3.3851,-3.3713,-3.3796,-3.3865,-3.3762,-3.3934,-3.4124,-3.3973,-3.4846,-3.5672,-3.519,-3.5432,-3.5672,-3.5157,-3.5432,-3.58,-3.58,-3.58,-3.5672,-3.5157,-3.5464,-3.5625,-3.5124,-3.5464,-3.58,-3.58,-3.58,-3.58,-3.58,-3.5367,-3.5059,-3.5059,-3.5059,-3.5059,-3.5059,-3.5529,-3.5911,-3.6148,-3.6476,-3.66,-3.6569,-3.677,-3.6816,-3.6585,-3.6662,-3.6631,-3.6492,-3.6492,-3.6492,-3.6492,-3.6492,-3.6492,-3.6492,-3.6492,-3.6492,-3.6492,-3.6492,-3.6492,-3.6492,-3.6492,-3.6492,-3.6492,-3.6492,-3.6492,-3.6492,-3.5504,-3.5504,-3.5504,-3.5504,-3.5504,-3.5504,-3.5504,-3.5504,-3.5504,-3.5504,-3.5504,-3.5504,-3.5504,-3.5504,-3.5504,-3.5504,-3.5504,-3.5504,-3.5504,-3.5504,-3.5504,-3.5504,-3.5504,-3.5504,-3.5504,-3.5504,-3.5504,-3.5504,-3.5504,-3.5504,-3.5504,-3.5504,-3.5067,-3.4279,-3.4279,-3.3973,-3.3471,-3.3506,-3.361,-3.3728,-3.2974,-3.2704,-3.2632,-3.1877,-3.172,-3.189,-3.189,-3.2467,-3.3178,-3.3178,-3.3547,-3.3993,-3.407,-3.407,-3.3948,-3.322,-3.361,-3.4129,-3.3388,-3.3734,-3.4279,-3.4279,-3.4312,-3.4312,-3.4279,-3.4312,-3.4312,-3.4312,-3.4312,-3.4312,-3.4279,-3.4312,-3.4312,-3.4279,-3.4312,-3.4312,-3.4312,-3.4312,-3.4312,-3.4312,-3.4279,-3.4279,-3.4279,-3.4279,-3.4279,-3.4279,-3.4312,-3.4614,-3.5367,-3.6085,-3.6554,-3.6693,-3.6693,-3.6693,-3.6693,-3.6693,-3.6631,-3.6492,-3.6492,-3.6492,-3.6492,-3.6492,-3.6492,-3.6492,-3.6492,-3.6492,-3.6492,-3.6492,-3.6492,-3.6492,-3.6492,-3.6492,-3.6492,-3.6492,-3.6492,-3.6492,-3.5439,-3.5504,-3.5504,-3.5504,-3.5504,-3.5504,-3.5504,-3.5504,-3.5504,-3.5504,-3.5504,-3.5504,-3.5504,-3.5504,-3.5504,-3.5504,-3.5504,-3.5504,-3.5504,-3.5504,-3.5504,-3.5504,-3.5504,-3.5504,-3.5504,-3.5504,-3.5504,-3.5504,-3.5504,-3.5198,-3.4643,-3.4643,-3.3973,-3.2777,-3.3457,-3.3073,-3.2005,-3.2832,-3.2881,-3.2431,-3.2228,-3.2241,-3.23,-3.178,-3.1817,-3.2109,-3.1963,-3.2169,-3.2503,-3.2503,-3.2503,-3.2525,-3.2538,-3.2574,-3.2538,-3.2444,-3.261,-3.2775,-3.2574,-3.2646,-3.2938,-3.3388,-3.3939,-3.4177,-3.3665,-3.3939,-3.4312,-3.4312,-3.4312,-3.4129,-3.363,-3.3973,-3.4129,-3.363,-3.3973,-3.4312,-3.4312,-3.4312,-3.4312,-3.4312,-3.3837,-3.3526,-3.3526,-3.3526,-3.3526,-3.3526,-3.4007,-3.4447,-3.4828,-3.5172,-3.5608,-3.6117,-3.629,-3.6461,-3.6693,-3.6693,-3.6631,-3.6492,-3.6492,-3.6492,-3.6492,-3.6492,-3.6492,-3.6492,-3.6492,-3.6492,-3.6492,-3.6492,-3.6492,-3.6492,-3.6492,-3.6492,-3.6492,-3.6492,-3.6492,-3.6492,-3.5195,-3.5261,-3.5326,-3.5472,-3.5504,-3.5504,-3.5504,-3.5504,-3.5504,-3.5504,-3.5504,-3.5504,-3.5504,-3.5504,-3.5504,-3.5504,-3.5504,-3.5504,-3.5504,-3.5504,-3.5504,-3.5504,-3.5504,-3.5504,-3.5504,-3.5504,-3.5344,-3.5019,-3.5019,-3.4624,-3.3856,-3.3856,-3.3234,-3.211,-3.2769,-3.2439,-3.1471,-3.225,-3.2336,-3.2036,-3.2036,-3.2109,-3.2182,-3.1927,-3.2,-3.2182,-3.2073,-3.2109,-3.2218,-3.2218,-3.2109,-3.2,-3.1927,-3.1963,-3.2036,-3.2146,-3.2218,-3.2218,-3.2218,-3.2218,-3.2314,-3.2704,-3.3136,-3.3346,-3.2903,-3.3136,-3.3485,-3.3485,-3.3485,-3.3346,-3.2903,-3.3171,-3.3311,-3.2868,-3.3171,-3.3485,-3.3485,-3.3485,-3.3485,-3.3485,-3.3066,-3.2797,-3.2797,-3.2797,-3.2797,-3.2797,-3.3457,-3.3939,-3.4041,-3.4528,-3.4975,-3.5385,-3.5497,-3.5657,-3.5864,-3.5785,-3.5991,-3.6492,-3.6492,-3.6492,-3.6492,-3.6492,-3.6492,-3.6492,-3.6492,-3.6492,-3.6492,-3.6492,-3.6492,-3.6492,-3.6492,-3.6492,-3.6492,-3.6492,-3.6492,-3.6492,-3.4802,-3.4902,-3.5001,-3.5359,-3.5472,-3.5504,-3.5504,-3.5504,-3.5504,-3.5504,-3.5504,-3.5504,-3.5504,-3.5504,-3.5504,-3.5504,-3.5504,-3.5504,-3.5504,-3.5504,-3.5504,-3.5504,-3.5504,-3.5504,-3.5504,-3.5504,-3.51,-3.4312,-3.4312,-3.3905,-3.3108,-3.3108,-3.272,-3.2015,-3.2223,-3.2046,-3.1596,-3.1817,-3.2,-3.2182,-3.2182,-3.2182,-3.2218,-3.2218,-3.2218,-3.2218,-3.2218,-3.2218,-3.2218,-3.2218,-3.2218,-3.2182,-3.1963,-3.2036,-3.2218,-3.2218,-3.2218,-3.2218,-3.2218,-3.2218,-3.2218,-3.2218,-3.2218,-3.2218,-3.2218,-3.2218,-3.2218,-3.2218,-3.2218,-3.2218,-3.2218,-3.2218,-3.2218,-3.2218,-3.2218,-3.2218,-3.2218,-3.2218,-3.2218,-3.2218,-3.2218,-3.2218,-3.2218,-3.2218,-3.2218,-3.2218,-3.2761,-3.3122,-3.3157,-3.3988,-3.4461,-3.4562,-3.4528,-3.4562,-3.4595,-3.4413,-3.4978,-3.632,-3.632,-3.632,-3.632,-3.632,-3.632,-3.632,-3.632,-3.6352,-3.6383,-3.6383,-3.6445,-3.6492,-3.6492,-3.6492,-3.6492,-3.6492,-3.6492,-3.6492,-3.4433,-3.4702,-3.4935,-3.5001,-3.5294,-3.5504,-3.5504,-3.5504,-3.5504,-3.5504,-3.5504,-3.5504,-3.5504,-3.5504,-3.5504,-3.5504,-3.5504,-3.5504,-3.5504,-3.5504,-3.5504,-3.5504,-3.5504,-3.5504,-3.5504,-3.5504,-3.51,-3.4312,-3.4312,-3.3616,-3.2326,-3.2326,-3.1942,-3.1259,-3.1619,-3.1619,-3.1397,-3.1743,-3.1927,-3.1963,-3.1963,-3.2073,-3.2218,-3.2218,-3.2218,-3.2218,-3.2218,-3.2218,-3.2218,-3.2218,-3.2218,-3.2182,-3.2146,-3.2146,-3.2218,-3.2218,-3.2218,-3.2218,-3.2218,-3.2218,-3.2218,-3.2218,-3.2218,-3.2218,-3.2218,-3.2218,-3.2218,-3.2218,-3.2218,-3.2218,-3.2218,-3.2218,-3.2218,-3.2218,-3.2218,-3.2218,-3.2218,-3.2218,-3.2218,-3.2218,-3.2218,-3.2218,-3.2218,-3.2218,-3.2218,-3.2218,-3.2336,-3.2538,-3.2797,-3.2995,-3.3451,-3.4206,-3.407,-3.4192,-3.4595,-3.4413,-3.448,-3.478,-3.478,-3.478,-3.478,-3.478,-3.478,-3.478,-3.478,-3.5091,-3.564,-3.564,-3.5975,-3.6492,-3.6492,-3.6492,-3.6492,-3.6492,-3.6492,-3.6492,-3.4025,-3.4249,-3.4486,-3.4835,-3.5082,-3.5294,-3.5472,-3.5504,-3.5504,-3.5504,-3.5504,-3.5504,-3.5504,-3.5504,-3.5504,-3.5504,-3.5504,-3.5504,-3.5504,-3.5504,-3.5326,-3.4938,-3.4938,-3.4773,-3.4404,-3.4404,-3.4206,-3.3768,-3.3408,-3.2684,-3.1566,-3.1566,-3.1371,-3.1024,-3.1323,-3.1397,-3.131,-3.173,-3.189,-3.189,-3.2,-3.2036,-3.2073,-3.2073,-3.2073,-3.2073,-3.2073,-3.2109,-3.2218,-3.2218,-3.2218,-3.2218,-3.2218,-3.2218,-3.2218,-3.2218,-3.2218,-3.2218,-3.2218,-3.2218,-3.2218,-3.2218,-3.2218,-3.2218,-3.2218,-3.2218,-3.2218,-3.2218,-3.2218,-3.2218,-3.2218,-3.2218,-3.2218,-3.2218,-3.2218,-3.2218,-3.2218,-3.2218,-3.2218,-3.2218,-3.2218,-3.2218,-3.2218,-3.2218,-3.2218,-3.2218,-3.2218,-3.23,-3.2561,-3.2561,-3.2797,-3.3276,-3.3171,-3.3241,-3.3451,-3.3642,-3.3712,-3.3748,-3.4117,-3.4312,-3.4312,-3.4312,-3.4312,-3.4312,-3.4312,-3.4514,-3.4894,-3.4894,-3.5302,-3.5975,-3.5975,-3.6179,-3.646,-3.6116,-3.5737,-3.5464,-3.3646,-3.377,-3.3977,-3.462,-3.4769,-3.4949,-3.5326,-3.5392,-3.5392,-3.5392,-3.5392,-3.5374,-3.5309,-3.5359,-3.5359,-3.5311,-3.5279,-3.5246,-3.5115,-3.5115,-3.482,-3.4143,-3.4109,-3.3837,-3.3213,-3.3073,-3.3003,-3.3003,-3.2398,-3.17,-3.0986,-3.0986,-3.0986,-3.1024,-3.1198,-3.1272,-3.1272,-3.1619,-3.1817,-3.1817,-3.1986,-3.1963,-3.1853,-3.189,-3.1836,-3.1742,-3.1779,-3.1888,-3.2083,-3.2191,-3.2218,-3.2218,-3.2218,-3.2218,-3.2218,-3.2218,-3.2218,-3.2218,-3.2218,-3.2218,-3.2218,-3.2218,-3.2218,-3.2218,-3.2218,-3.2218,-3.2218,-3.2218,-3.2218,-3.2218,-3.2218,-3.2218,-3.2218,-3.2218,-3.2218,-3.2218,-3.2218,-3.2218,-3.2218,-3.2218,-3.2218,-3.2218,-3.2218,-3.2218,-3.2218,-3.2218,-3.2218,-3.2277,-3.2453,-3.2549,-3.264,-3.2676,-3.2786,-3.2782,-3.2627,-3.3118,-3.3326,-3.3312,-3.4016,-3.4246,-3.4097,-3.4097,-3.404,-3.3939,-3.3939,-3.4041,-3.4177,-3.4177,-3.4614,-3.5302,-3.527,-3.564,-3.6116,-3.5432,-3.4828,-3.4312,-3.3347,-3.3612,-3.3839,-3.3942,-3.423,-3.4568,-3.4935,-3.4968,-3.4968,-3.4968,-3.4968,-3.4868,-3.4582,-3.4817,-3.4854,-3.4495,-3.4461,-3.4192,-3.3541,-3.3506,-3.3457,-3.3353,-3.3353,-3.3283,-3.3178,-3.2577,-3.2254,-3.2254,-3.2146,-3.17,-3.0986,-3.0986,-3.0986,-3.1024,-3.1198,-3.1198,-3.1061,-3.1272,-3.1384,-3.1384,-3.1421,-3.1508,-3.1683,-3.1817,-3.1581,-3.1137,-3.1302,-3.1409,-3.149,-3.2042,-3.2218,-3.2218,-3.2218,-3.2218,-3.2218,-3.2218,-3.2218,-3.2218,-3.2218,-3.2218,-3.2218,-3.2218,-3.2218,-3.2218,-3.2218,-3.2218,-3.2218,-3.2218,-3.2218,-3.2218,-3.2218,-3.2218,-3.2218,-3.2218,-3.2218,-3.2218,-3.2218,-3.2218,-3.2218,-3.2218,-3.2218,-3.2218,-3.2218,-3.2218,-3.2218,-3.2218,-3.2218,-3.2336,-3.2632,-3.3228,-3.3578,-3.3695,-3.4274,-3.4492,-3.4268,-3.4351,-3.4317,-3.4128,-3.4408,-3.409,-3.3248,-3.3248,-3.2974,-3.248,-3.248,-3.2903,-3.361,-3.361,-3.4158,-3.4942,-3.4762,-3.4762,-3.4828,-3.4547,-3.438,-3.4312,-3.3276,-3.3417,-3.3577,-3.377,-3.3942,-3.4196,-3.4568,-3.4601,-3.4601,-3.4601,-3.4601,-3.4568,-3.4414,-3.4534,-3.4269,-3.3415,-3.3754,-3.3699,-3.2904,-3.2869,-3.267,-3.2254,-3.2254,-3.216,-3.1969,-3.164,-3.1505,-3.1505,-3.1505,-3.1334,-3.0986,-3.0986,-3.0986,-3.0986,-3.1099,-3.1099,-3.1024,-3.1198,-3.131,-3.131,-3.1434,-3.1434,-3.1434,-3.1669,-3.1559,-3.1368,-3.1681,-3.1585,-3.1382,-3.2015,-3.2218,-3.2218,-3.2218,-3.2218,-3.2218,-3.2218,-3.2218,-3.2218,-3.2218,-3.2218,-3.2218,-3.2218,-3.2218,-3.2218,-3.2218,-3.2218,-3.2218,-3.2218,-3.2218,-3.2218,-3.2218,-3.2218,-3.2218,-3.2218,-3.2218,-3.2218,-3.2218,-3.2218,-3.2218,-3.2218,-3.2283,-3.2323,-3.2323,-3.2632,-3.2796,-3.2796,-3.3022,-3.3322,-3.3716,-3.3941,-3.4191,-3.4459,-3.4627,-3.4705,-3.4592,-3.4606,-3.4734,-3.4975,-3.5013,-3.4365,-3.3101,-3.3213,-3.2886,-3.2205,-3.2264,-3.2525,-3.2889,-3.2995,-3.3555,-3.4274,-3.4056,-3.3919,-3.3802,-3.3837,-3.3541,-3.3115]},{"header":{"parameterUnit":"m.s-1","parameterCategory":1,"la1":30.6,"la2":28.766,"lo1":-90.7593,"lo2":-88.6598,"dy":0.0162,"dx":0.0183,"nx":116,"ny":114,"refTime":"2023-05-04T00:00:00:Z","depth":0,"parameterNumber":3,"parameterNumberName":"V-component_of_WINDS"},"data":[0.0,0.0,0.0,0.0,0.0,0.0,0.0,0.0,0.0,0.0,0.0,0.0,0.0,0.0,0.0,0.0,0.0,0.0,0.0,0.0,0.0,0.0,0.0,0.0,0.0,0.0,0.0,0.0,0.0,0.0,0.0,0.0,0.0,0.0,0.0,0.0,0.0,0.0,0.0,0.0,0.0,0.0,0.0,0.0,0.0,0.0,0.0,0.0,0.0,0.0,0.0,0.0,0.0,0.0,0.0,0.0,0.0,0.0,0.0,0.0,0.0,0.0,0.0,0.0,0.0,0.0,0.0,0.0,0.0,0.0,0.0,0.0,0.0,0.0,0.0,0.0,0.0,0.0,0.0,0.0,0.0,0.0,0.0,0.0,0.0,0.0,0.0,0.0,0.0,0.0,0.0,0.0,0.0,0.0,0.0,0.0,0.0,0.0,0.0,0.0,0.0,0.0,0.0,0.0,0.0,0.0,0.0,0.0,0.0,0.0,0.0,0.0,0.0,0.0,0.0,0.0,0.0,0.0,0.0,0.0,0.0,0.0,0.0,0.0,0.0,0.0,0.0,0.0,0.0,0.0,0.0,0.0,0.0,0.0,0.0,0.0,0.0,0.0,0.0,0.0,0.0,0.0,0.0,0.0,0.0,0.0,0.0,0.0,0.0,0.0,0.0,0.0,0.0,0.0,0.0,0.0,0.0,0.0,0.0,0.0,0.0,0.0,0.0,0.0,0.0,0.0,0.0,0.0,0.0,0.0,0.0,0.0,0.0,0.0,0.0,0.0,0.0,0.0,0.0,0.0,0.0,0.0,0.0,0.0,0.0,0.0,0.0,0.0,0.0,0.0,0.0,0.0,0.0,0.0,0.0,0.0,0.0,0.0,0.0,0.0,0.0,0.0,0.0,0.0,0.0,0.0,0.0,0.0,0.0,0.0,0.0,0.0,0.0,0.0,0.0,0.0,0.0,0.0,0.0,0.0,0.0,0.0,0.0,0.0,0.0,0.0,0.0,0.0,0.0,0.0,0.0,0.0,0.0,0.0,0.0,0.0,0.0,0.0,0.0,0.0,0.0,0.0,0.0,0.0,0.0,0.0,0.0,0.0,0.0,0.0,0.0,0.0,0.0,0.0,0.0,0.0,0.0,0.0,0.0,0.0,0.0,0.0,0.0,0.0,0.0,0.0,0.0,0.0,0.0,0.0,0.0,0.0,0.0,0.0,0.0,0.0,0.0,0.0,0.0,0.0,0.0,0.0,0.0,0.0,0.0,0.0,0.0,0.0,0.0,0.0,0.0,0.0,0.0,0.0,0.0,0.0,0.0,0.0,0.0,0.0,0.0,0.0,0.0,0.0,0.0,0.0,0.0,0.0,0.0,0.0,0.0,0.0,0.0,0.0,0.0,0.0,0.0,0.0,0.0,0.0,0.0,0.0,0.0,0.0,0.0,0.0,0.0,0.0,0.0,0.0,0.0,0.0,0.0,0.0,0.0,0.0,0.0,0.0,0.0,0.0,0.0,0.0,0.0,0.0,0.0,0.0,0.0,0.0,0.0,0.0,0.0,0.0,0.0,0.0,0.0,0.0,0.0,0.0,0.0,0.0,0.0,0.0,0.0,0.0,0.0,0.0,0.0,0.0,0.0,0.0,0.0,0.0,0.0,0.0,0.0,0.0,0.0,0.0,0.0,0.0,0.0,0.0,0.0,0.0,0.0,0.0,0.0,0.0,0.0,0.0,0.0,0.0,0.0,0.0,0.0,0.0,0.0,0.0,0.0,0.0,0.0,0.0,0.0,0.0,0.0,0.0,0.0,0.0,0.0,0.0,0.0,0.0,0.0,0.0,0.0,0.0,0.0,0.0,0.0,0.0,0.0,0.0,0.0,0.0,0.0,0.0,0.0,0.0,0.0,0.0,0.0,0.0,0.0,0.0,0.0,0.0,0.0,0.0,0.0,0.0,0.0,0.0,0.0,0.0,0.0,0.0,0.0,0.0,0.0,0.0,0.0,0.0,0.0,0.0,0.0,0.0,0.0,0.0,0.0,0.0,0.0,0.0,0.0,0.0,0.0,0.0,0.0,0.0,0.0,0.0,0.0,0.0,0.0,0.0,0.0,0.0,0.0,0.0,0.0,0.0,0.0,0.0,0.0,0.0,0.0,0.0,0.0,0.0,0.0,0.0,0.0,0.0,0.0,0.0,0.0,0.0,0.0,0.0,0.0,0.0,0.0,0.0,0.0,0.0,0.0,0.0,0.0,0.0,0.0,0.0,0.0,0.0,0.0,0.0,0.0,0.0,0.0,0.0,0.0,0.0,0.0,0.0,0.0,0.0,0.0,0.0,0.0,0.0,0.0,0.0,0.0,0.0,0.0,0.0,0.0,0.0,0.0,0.0,0.0,0.0,0.0,0.0,0.0,0.0,0.0,0.0,0.0,0.0,0.0,0.0,0.0,0.0,0.0,0.0,0.0,0.0,0.0,0.0,0.0,0.0,0.0,0.0,0.0,0.0,0.0,0.0,0.0,0.0,0.0,0.0,0.0,0.0,0.0,0.0,0.0,0.0,0.0,0.0,0.0,0.0,0.0,0.0,0.0,0.0,0.0,0.0,0.0,0.0,0.0,0.0,0.0,0.0,0.0,0.0,0.0,0.0,0.0,0.0,0.0,0.0,0.0,0.0,0.0,0.0,0.0,0.0,0.0,0.0,0.0,0.0,0.0,0.0,0.0,0.0,0.0,0.0,0.0,0.0,0.0,0.0,0.0,0.0,0.0,0.0,0.0,0.0,0.0,0.0,0.0,0.0,0.0,0.0,0.0,0.0,0.0,0.0,0.0,0.0,0.0,0.0,0.0,0.0,0.0,0.0,0.0,0.0,0.0,0.0,0.0,0.0,0.0,0.0,0.0,0.0,0.0,0.0,0.0,0.0,0.0,0.0,0.0,0.0,0.0,0.0,0.0,0.0,0.0,0.0,0.0,0.0,0.0,0.0,0.0,0.0,0.0,0.0,0.0,0.0,0.0,0.0,0.0,0.0,0.0,0.0,0.0,0.0,0.0,0.0,0.0,0.0,0.0,0.0,0.0,0.0,0.0,0.0,0.0,0.0,0.0,0.0,0.0,0.0,0.0,0.0,0.0,0.0,0.0,0.0,0.0,0.0,0.0,0.0,0.0,0.0,0.0,0.0,0.0,0.0,0.0,0.0,0.0,0.0,0.0,0.0,0.0,0.0,0.0,0.0,0.0,0.0,0.0,0.0,0.0,0.0,0.0,0.0,0.0,0.0,0.0,0.0,0.0,0.0,0.0,0.0,0.0,0.0,0.0,0.0,0.0,0.0,0.0,0.0,0.0,0.0,0.0,0.0,0.0,0.0,0.0,0.0,0.0,0.0,0.0,0.0,0.0,0.0,0.0,0.0,0.0,0.0,0.0,0.0,0.0,0.0,0.0,0.0,0.0,0.0,0.0,0.0,0.0,0.0,0.0,0.0,0.0,0.0,0.0,0.0,0.0,0.0,0.0,0.0,0.0,0.0,0.0,0.0,0.0,0.0,0.0,0.0,0.0,0.0,0.0,0.0,0.0,0.0,0.0,0.0,0.0,0.0,0.0,0.0,0.0,0.0,0.0,0.0,0.0,0.0,0.0,0.0,0.0,0.0,0.0,0.0,0.0,0.0,0.0,0.0,0.0,0.0,0.0,0.0,0.0,0.0,0.0,0.0,0.0,0.0,0.0,0.0,0.0,0.0,0.0,0.0,0.0,0.0,0.0,0.0,0.0,0.0,0.0,0.0,0.0,0.0,0.0,0.0,0.0,0.0,0.0,0.0,0.0,0.0,0.0,0.0,0.0,0.0,0.0,0.0,0.0,0.0,0.0,0.0,0.0,0.0,0.0,0.0,0.0,0.0,0.0,0.0,0.0,0.0,0.0,0.0,0.0,0.0,0.0,0.0,0.0,0.0,0.0,0.0,0.0,0.0,0.0,0.0,0.0,0.0,0.0,0.0,0.0,0.0,0.0,0.0,0.0,0.0,0.0,0.0,0.0,0.0,0.0,0.0,0.0,0.0,0.0,0.0,0.0,0.0,0.0,0.0,0.0,0.0,0.0,0.0,0.0,0.0,0.0,0.0,0.0,0.0,0.0,0.0,0.0,0.0,0.0,0.0,0.0,0.0,0.0,0.0,0.0,0.0,0.0,0.0,0.0,0.0,0.0,0.0,0.0,0.0,0.0,0.0,0.0,0.0,0.0,0.0,0.0,0.0,0.0,0.0,0.0,0.0,0.0,0.0,0.0,0.0,0.0,0.0,0.0,0.0,0.0,0.0,0.0,0.0,0.0,0.0,0.0,0.0,0.0,0.0,0.0,0.0,0.0,0.0,0.0,0.0,0.0,0.0,0.0,0.0,0.0,0.0,0.0,0.0,0.0,0.0,0.0,0.0,0.0,0.0,0.0,0.0,0.0,0.0,0.0,0.0,0.0,0.0,0.0,0.0,0.0,0.0,0.0,0.0,0.0,0.0,0.0,0.0,0.0,0.0,0.0,0.0,0.0,0.0,0.0,0.0,0.0,0.0,0.0,0.0,0.0,0.0,0.0,0.0,0.0,0.0,0.0,0.0,0.0,0.0,0.0,0.0,0.0,0.0,0.0,0.0,0.0,0.0,0.0,0.0,0.0,0.0,0.0,0.0,0.0,0.0,0.0,0.0,0.0,0.0,0.0,0.0,0.0,0.0,0.0,0.0,0.0,0.0,0.0,0.0,0.0,0.0,0.0,0.0,0.0,0.0,0.0,0.0,0.0,0.0,0.0,0.0,0.0,0.0,0.0,0.0,0.0,0.0,0.0,0.0,0.0,0.0,0.0,0.0,0.0,0.0,0.0,0.0,0.0,0.0,0.0,0.0,0.0,0.0,0.0,0.0,0.0,0.0,0.0,0.0,0.0,0.0,0.0,0.0,0.0,0.0,0.0,0.0,0.0,0.0,0.0,0.0,0.0,0.0,0.0,0.0,0.0,0.0,0.0,0.0,0.0,0.0,0.0,0.0,0.0,0.0,0.0,0.0,0.0,0.0,0.0,0.0,0.0,0.0,0.0,0.0,0.0,0.0,0.0,0.0,0.0,0.0,0.0,0.0,0.0,0.0,0.0,0.0,0.0,0.0,0.0,0.0,0.0,0.0,0.0,0.0,0.0,0.0,0.0,0.0,0.0,0.0,0.0,0.0,0.0,0.0,0.0,0.0,0.0,0.0,0.0,0.0,0.0,0.0,0.0,0.0,0.0,0.0,0.0,0.0,0.0,0.0,0.0,0.0,0.0,0.0,0.0,0.0,0.0,0.0,0.0,0.0,0.0,0.0,0.0,0.0,0.0,0.0,0.0,0.0,0.0,0.0,0.0,0.0,0.0,0.0,0.0,0.0,0.0,0.0,0.0,0.0,0.0,0.0,0.0,0.0,0.0,0.0,0.0,0.0,0.0,0.0,0.0,0.0,0.0,0.0,0.0,0.0,0.0,0.0,0.0,0.0,0.0,0.0,0.0,0.0,0.0,0.0,0.0,0.0,0.0,0.0,0.0,0.0,0.0,0.0,0.0,0.0,0.0,0.0,0.0,0.0,0.0,0.0,0.0,0.0,0.0,0.0,0.0,0.0,0.0,0.0,0.0,0.0,0.0,0.0,0.0,0.0,0.0,0.0,0.0,0.0,0.0,0.0,0.0,0.0,0.0,0.0,0.0,0.0,0.0,0.0,0.0,0.0,0.0,0.0,0.0,0.0,0.0,0.0,0.0,0.0,0.0,0.0,0.0,0.0,0.0,0.0,0.0,0.0,0.0,0.0,0.0,0.0,0.0,0.0,0.0,0.0,0.0,0.0,0.0,0.0,0.0,0.0,0.0,0.0,0.0,0.0,0.0,0.0,0.0,0.0,0.0,0.0,0.0,0.0,0.0,0.0,0.0,0.0,0.0,0.0,0.0,0.0,0.0,0.0,0.0,0.0,0.0,0.0,0.0,0.0,0.0,0.0,0.0,0.0,0.0,0.0,0.0,0.0,0.0,0.0,0.0,0.0,0.0,0.0,0.0,0.0,0.0,0.0,0.0,0.0,0.0,0.0,0.0,0.0,0.0,0.0,0.0,0.0,1.1022,0.0,0.0,0.0,0.0,0.0,0.0,0.0,0.0,0.0,0.0,0.0,0.0,0.0,0.0,0.0,0.0,0.0,0.0,0.0,0.0,0.0,0.0,0.0,0.0,0.0,0.0,0.0,0.0,0.0,0.0,0.0,0.0,0.0,0.0,0.0,0.0,0.0,0.0,0.0,1.7354,1.784,1.834,1.7666,1.6467,1.4883,0.0,0.0,0.0,0.0,0.0,0.0,0.0,0.0,0.0,0.0,0.0,0.0,0.0,0.0,0.0,0.0,0.0,0.0,0.0,0.0,0.0,0.0,0.0,0.0,0.0,0.0,0.0,0.0,0.0,0.0,0.0,0.0,0.0,0.0,0.0,0.0,0.0,0.0,0.0,0.0,0.0,0.0,0.0,0.0,0.0,0.0,0.0,0.0,0.0,0.0,0.0,0.0,0.0,0.0,0.0,0.0,0.0,0.0,0.0,0.0,0.0,0.0,0.0,0.0,0.0,0.0,0.0,0.0,0.0,0.0,0.0,1.1084,0.0,0.0,0.0,0.0,0.0,0.0,0.0,0.0,0.0,0.0,0.0,0.0,0.0,0.0,0.0,0.0,0.0,0.0,0.0,0.0,0.0,0.0,0.0,0.0,0.0,0.0,0.0,0.0,0.0,0.0,0.0,0.0,0.0,0.0,0.0,0.0,0.0,1.7821,1.8839,1.9819,2.0771,2.0684,1.9135,1.6409,1.558,0.0,0.0,0.0,0.0,0.0,0.0,0.0,0.0,0.0,0.0,0.0,0.0,0.0,0.0,0.0,0.0,0.0,0.0,0.0,0.0,0.0,0.0,0.0,0.0,0.0,0.0,0.0,0.0,0.0,0.0,0.0,0.0,0.0,0.0,0.0,0.0,0.0,0.0,0.0,0.0,0.0,0.0,0.0,0.0,0.0,0.0,0.0,0.0,0.0,0.0,0.0,0.0,0.0,0.0,0.0,0.0,0.0,0.0,0.0,0.0,0.0,0.0,0.0,1.3791,1.4023,1.4137,1.4129,1.4172,1.4266,1.2923,1.3211,1.451,0.0,0.0,0.0,0.0,0.0,0.0,0.0,0.0,0.0,0.0,0.0,0.0,0.0,0.0,0.0,0.0,0.0,0.0,0.0,0.0,0.0,0.0,0.0,0.0,0.0,0.0,0.0,0.0,0.0,0.0,0.0,0.0,0.0,0.0,1.7082,1.8058,1.9586,2.1437,2.2408,2.2533,2.2201,2.1807,2.131,2.0061,1.8493,1.6788,0.0,0.0,0.0,0.0,0.0,0.0,0.0,0.0,0.0,0.0,0.0,0.0,0.0,0.0,0.0,0.0,0.0,0.0,0.0,0.0,0.0,0.0,0.0,0.0,0.0,0.0,0.0,0.0,0.0,0.0,0.0,0.0,0.0,0.0,0.0,0.0,0.0,0.0,0.0,0.0,0.0,1.6938,1.7975,0.0,0.0,0.0,0.0,0.0,0.0,0.0,0.0,0.0,0.0,0.0,0.0,0.0,1.3136,1.3163,1.4993,1.5777,1.5542,1.7208,1.7812,1.7397,1.7297,1.7438,1.7675,1.6232,0.0,1.5106,1.381,0.0,0.0,0.0,0.0,0.0,0.0,0.0,0.0,0.0,0.0,0.0,0.0,0.0,0.0,0.0,0.0,0.0,0.0,0.0,0.0,0.0,0.0,0.0,0.0,0.0,0.0,0.0,0.0,0.0,0.0,0.0,1.6073,1.6378,1.6717,1.8334,2.1234,2.2988,2.4378,2.5367,2.5179,2.5093,2.5072,2.4483,2.2269,1.8976,1.8888,0.0,0.0,0.0,0.0,0.0,0.0,0.0,0.0,0.0,0.0,0.0,0.0,0.0,0.0,0.0,0.0,0.0,0.0,0.0,0.0,0.0,0.0,0.0,0.0,0.0,0.0,0.0,0.0,0.0,0.0,0.0,0.0,0.0,0.0,0.0,0.0,0.0,0.0,0.0,1.6968,1.8159,1.7606,1.823,1.7892,0.0,0.0,0.0,0.0,0.0,0.0,0.0,0.0,0.0,1.6362,1.6682,1.7107,1.7662,1.8227,1.8512,1.8564,1.8985,1.91,1.8865,1.8796,1.877,1.8728,1.7962,1.744,1.7065,1.5214,1.4435,1.4286,0.0,0.0,0.0,0.0,0.0,1.1321,0.0,0.0,0.0,0.0,0.0,0.0,0.0,0.0,0.0,0.0,0.0,0.0,0.0,0.0,0.0,1.8605,0.0,0.0,0.0,0.0,0.0,0.0,0.0,1.5468,1.5998,1.7451,1.9913,2.3415,2.5246,2.6686,2.7845,2.7922,2.7854,2.7687,2.7728,2.5405,2.1366,2.1168,1.9724,1.7508,0.0,0.0,0.0,0.0,0.0,0.0,0.0,0.0,0.0,0.0,0.0,0.0,0.0,0.0,0.0,0.0,0.0,0.0,0.0,0.0,0.0,0.0,0.0,0.0,0.0,0.0,0.0,0.0,0.0,0.0,0.0,0.0,0.0,0.0,0.0,0.0,0.0,1.8631,1.944,1.7676,1.9396,1.9497,0.0,0.0,0.0,0.0,0.0,0.0,1.8091,1.8454,1.8942,1.9573,2.014,2.0723,2.1144,2.0822,2.0681,2.0719,1.9958,1.9601,1.9601,1.9463,1.9259,1.9066,1.8873,1.8813,1.8643,1.6436,1.5412,1.5112,1.3719,1.2695,1.2038,1.2089,1.2169,1.245,0.0,0.0,0.0,0.0,0.0,0.0,0.0,0.0,0.0,0.0,0.0,0.0,0.0,0.0,2.089,2.0488,2.1413,2.1059,0.0,0.0,1.6676,1.5067,1.5128,1.5225,1.5244,2.0005,2.3794,2.6469,2.8994,2.9933,2.9379,2.9568,2.9339,2.8749,2.8946,2.7147,2.3982,2.3313,2.194,2.0042,1.8116,0.0,0.0,0.0,0.0,0.0,0.0,0.0,0.0,0.0,0.0,0.0,0.0,0.0,0.0,0.0,0.0,0.0,0.0,0.0,0.0,0.0,0.0,0.0,0.0,0.0,0.0,0.0,0.0,0.0,0.0,0.0,0.0,0.0,0.0,0.0,0.0,0.0,0.0,1.9167,2.1618,0.0,0.0,0.0,0.0,1.8354,1.8626,1.9295,2.0295,2.0694,2.1272,2.2033,2.2741,2.2627,2.1651,2.1917,2.1639,2.0942,2.0325,1.994,1.9934,1.9404,1.909,1.9078,1.906,1.9093,1.8995,1.755,1.6899,1.6511,1.4507,1.3848,1.3964,1.3761,1.382,1.413,0.0,0.0,0.0,0.0,0.0,0.0,0.0,0.0,0.0,1.1996,1.3567,0.0,0.0,2.0788,2.3031,2.3358,2.457,2.4266,2.1808,0.0,1.8185,1.6809,1.5508,1.5949,1.8353,2.2421,2.5485,2.7459,2.9366,3.0358,3.0409,3.045,3.0045,2.9277,2.9579,2.8741,2.7079,2.6526,2.4682,2.205,2.0882,1.9311,0.0,0.0,0.0,0.0,0.0,0.0,0.0,0.0,0.0,0.0,0.0,0.0,0.0,0.0,0.0,0.0,0.0,0.0,0.0,0.0,0.0,0.0,0.0,0.0,0.0,0.0,0.0,0.0,0.0,0.0,0.0,0.0,0.0,0.0,0.0,0.0,0.0,2.2475,2.4783,0.0,2.1859,2.174,2.1452,2.0483,2.0973,2.1444,2.1583,2.2105,2.281,2.3801,2.378,2.4023,2.4561,2.3745,2.3202,2.2928,2.1538,2.0832,2.0589,1.9779,1.9235,1.9078,1.9078,1.8888,1.852,1.8076,1.7728,1.7421,1.5779,1.5203,1.519,1.4772,1.4891,1.5299,0.0,0.0,0.0,0.0,0.0,0.0,0.0,0.0,0.0,1.2399,1.4362,1.6727,1.9636,2.3165,2.5596,2.6281,2.7104,2.6386,2.355,0.0,1.8955,1.7461,1.6869,1.8269,2.1925,2.4955,2.7426,2.9366,3.0664,3.1332,3.138,3.1303,3.0824,2.9988,3.0304,2.9967,2.9063,2.879,2.7292,2.4903,2.3549,2.1659,1.9478,0.0,0.0,0.0,0.0,0.0,0.0,0.0,0.0,0.0,0.0,0.0,0.0,0.0,0.0,0.0,0.0,0.0,0.0,0.0,0.0,0.0,0.0,0.0,0.0,0.0,0.0,0.0,0.0,0.0,0.0,0.0,0.0,0.0,0.0,0.0,2.6074,2.4506,2.7234,2.807,2.5001,2.5054,2.4943,2.414,2.3985,2.3879,2.3763,2.3539,2.3859,2.4827,2.4618,2.4861,2.5719,2.4328,2.3595,2.3452,2.1648,2.0661,2.051,1.965,1.9076,1.8817,1.9021,1.8791,1.8283,1.8319,1.8155,1.7827,1.6654,1.6163,1.6131,1.5692,1.563,1.5723,0.0,0.0,0.0,0.0,0.0,0.0,0.0,0.0,0.0,1.26,1.5524,1.863,2.1869,2.5872,2.8599,2.9178,2.8769,2.7088,2.3745,2.1068,1.8777,1.6895,1.9153,2.2073,2.546,2.7504,2.9744,3.2173,3.298,3.2963,3.2277,3.2084,3.1601,3.0925,3.1123,3.0718,2.9869,3.0088,2.9667,2.8604,2.6032,2.4409,2.329,0.0,0.0,0.0,0.0,0.0,0.0,0.0,0.0,0.0,0.0,0.0,0.0,0.0,0.0,0.0,0.0,0.0,0.0,0.0,0.0,0.0,0.0,0.0,0.0,0.0,0.0,0.0,0.0,0.0,0.0,0.0,0.0,0.0,2.178,2.5372,2.7405,2.5278,2.8874,3.0574,2.8016,2.8916,2.9565,2.9174,2.7402,2.6448,2.676,2.5075,2.4396,2.5031,2.5138,2.5086,2.4993,2.3609,2.2787,2.2385,2.0485,1.9567,1.9629,1.899,1.8587,1.8323,1.8866,1.8813,1.8274,1.8307,1.8125,1.7787,1.7002,1.6704,1.6654,1.6376,1.5971,1.5413,0.0,0.0,0.0,0.0,0.0,0.0,0.0,0.0,1.0788,1.2259,1.5599,1.8995,2.2025,2.5481,2.8131,2.9498,2.8574,2.6938,2.4613,0.0,1.8873,1.7374,2.0554,2.363,2.6375,2.8643,3.0326,3.1485,3.1858,3.1932,3.1791,3.2047,3.1871,3.1415,3.1817,3.1704,3.1181,3.1595,3.1837,3.1708,2.8391,2.6142,2.4689,0.0,0.0,0.0,0.0,0.0,0.0,0.0,0.0,0.0,0.0,0.0,0.0,0.0,0.0,0.0,0.0,0.0,0.0,0.0,0.0,0.0,0.0,0.0,0.0,0.0,0.0,0.0,0.0,0.0,0.0,0.0,0.0,2.7057,2.7033,2.8926,3.0665,3.1418,3.2858,3.3234,3.1792,3.1763,3.1161,2.9786,2.8292,2.6955,2.6032,2.4759,2.4209,2.4401,2.4184,2.428,2.4702,2.4097,2.3601,2.3271,2.157,2.0724,2.0652,1.9305,1.8773,1.8884,1.9045,1.8797,1.8307,1.8325,1.8016,1.7533,1.693,1.6708,1.6642,1.6168,1.5658,1.5149,0.0,0.0,0.0,0.0,0.0,0.0,0.0,0.0,1.0261,1.1951,1.5449,1.8892,2.1826,2.5119,2.758,2.8777,2.7664,2.5916,2.3599,2.0859,1.9569,2.0126,2.2896,2.5369,2.7365,2.9133,3.0157,3.0433,3.0973,3.1254,3.1339,3.1956,3.2142,3.1969,3.2418,3.2503,3.2312,3.2569,3.2876,3.3021,3.0965,2.8815,2.6766,2.5688,2.4479,2.338,2.3123,2.2835,2.2378,2.0926,0.0,0.0,0.0,0.0,0.0,0.0,0.0,0.0,0.0,0.0,0.0,0.0,0.0,0.0,0.0,0.0,0.0,0.0,0.0,0.0,0.0,0.0,0.0,0.0,2.7104,2.9548,3.1505,3.2311,3.3064,3.4189,3.4883,3.4976,3.4194,3.4051,3.3501,3.2289,3.046,2.8965,2.8179,2.6512,2.5375,2.498,2.5153,2.5327,2.5423,2.514,2.4819,2.4375,2.2904,2.1954,2.1462,1.9996,1.9259,0.0,1.9024,1.8543,1.7978,1.8082,1.7865,0.0,0.0,0.0,0.0,0.0,1.5366,1.501,0.0,0.0,0.0,0.0,0.0,0.0,0.0,0.0,0.9443,1.1765,1.5171,1.849,2.1436,2.4592,2.6729,2.7331,2.622,2.4318,2.1584,2.0101,2.0658,2.3642,2.5433,2.6983,2.8236,2.9112,2.9487,2.9312,3.0255,3.0764,3.0836,3.1747,3.219,3.2344,3.2779,3.3005,3.3046,3.314,3.328,3.3368,3.3377,3.1749,2.9143,2.767,2.625,2.5215,2.563,2.4751,2.3442,2.3487,0.0,0.0,0.0,0.0,0.0,0.0,0.0,0.0,0.0,0.0,0.0,0.0,0.0,0.0,0.0,0.0,0.0,0.0,0.0,0.0,0.0,0.0,0.0,0.0,2.9166,3.1338,3.4951,3.5107,3.4883,3.498,3.5557,3.584,3.5566,3.5742,3.5742,3.542,3.2973,3.146,3.1414,0.0,0.0,0.0,0.0,2.7178,2.6475,2.6426,2.6052,2.5428,2.4003,2.2855,2.2059,2.0693,1.9805,1.9418,1.9197,1.8615,1.7944,1.8087,1.7874,1.7388,1.6893,1.6664,1.6483,1.5409,1.5052,0.0,0.0,0.0,0.0,0.0,0.0,0.0,0.0,0.0,0.9999,1.219,1.4857,1.7807,2.1118,2.3246,2.4937,2.6039,2.4459,2.2472,2.0381,2.0482,2.1522,2.3468,2.5665,2.7245,2.8038,2.9039,2.9294,2.883,2.9406,2.9922,3.0336,3.05,3.1027,3.1849,3.1925,3.2232,3.2668,3.3491,3.4086,3.4472,3.451,3.2903,3.0526,3.0182,2.937,2.8359,2.8064,2.8488,2.8727,2.6295,2.5561,2.5458,2.404,2.2525,0.0,0.0,0.0,0.0,0.0,0.0,0.0,0.0,0.0,0.0,0.0,0.0,0.0,0.0,0.0,0.0,0.0,0.0,0.0,2.9019,3.1455,3.3828,3.5644,3.582,3.6025,3.6709,3.6035,3.5752,3.6367,3.5537,3.5078,3.5371,3.2898,3.1249,3.1063,2.8791,2.7331,2.6822,2.7002,2.6889,2.6342,2.6334,2.5953,2.5215,0.0,0.0,2.1867,2.0449,1.994,2.0281,2.1001,2.1082,2.0639,1.9706,1.8464,1.7135,1.6821,1.6435,1.5916,1.5047,1.4881,1.4968,0.0,0.0,0.0,0.0,0.0,0.0,0.0,0.0,0.9134,1.1171,1.3204,1.5676,1.8865,1.9996,2.109,2.2396,2.1162,2.0461,2.083,2.176,2.336,2.5712,2.7006,2.7819,2.8145,2.8525,2.8482,2.7966,2.8939,2.9439,2.9471,3.0186,3.0807,3.1306,3.1572,3.2006,3.2512,3.305,3.3839,3.4785,3.4533,3.3654,3.2411,3.2046,3.123,3.0367,3.0594,3.0578,3.0234,2.8631,2.7738,2.7178,2.6342,2.5201,2.3716,0.0,0.0,0.0,0.0,0.0,0.0,0.0,0.0,0.0,0.0,0.0,0.0,0.0,0.0,2.5149,2.5664,0.0,2.9258,3.1211,3.2764,3.4424,3.6387,3.6289,3.6338,3.7197,3.6357,3.5879,3.6309,3.5752,3.5371,3.5391,3.3493,3.228,3.2134,3.0461,2.9035,2.8011,2.8796,2.8722,2.7636,2.8031,2.782,2.6956,2.5245,2.4201,2.3754,2.2253,2.1297,2.0788,2.0795,2.025,1.9325,1.9325,1.9145,1.8808,1.8112,1.711,1.6006,1.5445,1.5202,1.501,0.0,0.0,0.0,0.0,0.0,0.0,0.0,0.0,0.0,0.0,1.1496,1.3505,1.6374,1.6904,1.7371,0.0,1.8143,1.8928,2.1105,2.28,2.4927,2.7611,2.8139,2.8352,2.824,2.8341,2.8149,2.7571,2.8893,2.9318,2.8873,3.0055,3.0676,3.0758,3.1217,3.1666,3.2072,3.2282,3.3134,3.4332,3.4171,3.3994,3.379,3.3049,3.2201,3.1454,3.2188,3.1408,3.0088,3.0052,2.907,2.7862,2.7987,2.7462,2.6205,2.3057,2.2665,0.0,0.0,0.0,0.0,0.0,0.0,0.0,0.0,2.2702,2.3672,2.4707,2.5898,2.7155,2.8462,2.9306,3.0602,3.3223,3.3809,3.4687,3.6865,3.6504,3.6309,3.708,3.6338,3.5801,3.5889,3.5664,3.541,3.5156,3.3916,3.3174,3.3174,3.2041,3.0712,2.9304,3.0663,3.0615,2.904,2.9727,2.9589,2.8593,2.7447,2.6433,2.5564,2.4145,2.2796,2.1519,2.069,1.9372,1.7824,1.8674,1.9412,1.9963,1.9028,1.7722,1.632,1.6006,1.5559,1.5071,0.0,0.0,0.0,0.0,0.0,0.0,0.0,0.0,0.0,0.0,0.0,0.0,0.0,0.0,0.0,1.5287,1.7385,1.8936,1.9274,2.2383,2.486,2.6257,2.7874,2.8541,2.8031,2.9324,2.962,2.8874,2.9477,2.9623,2.9412,2.9571,2.9892,3.0261,3.0352,3.0386,3.0512,3.1445,3.2204,3.2842,3.3743,3.374,3.3208,3.2517,3.1849,3.123,3.1378,3.0661,2.9641,2.9441,2.8823,2.8154,2.8683,2.8287,2.7188,2.4766,2.3688,2.2359,1.8567,1.7104,1.7268,1.9847,2.1151,2.2467,0.0,2.7314,2.8804,2.8896,3.0585,3.1992,3.2187,3.3184,3.4111,3.4492,3.5215,3.5967,3.665,3.6328,3.6201,3.6689,3.5615,3.501,3.542,3.4404,3.3857,3.4189,3.3037,3.2305,3.2305,3.1455,3.0859,3.0694,3.085,3.0479,2.9536,2.9639,2.9228,2.832,2.6573,2.5544,2.515,2.4188,2.3545,2.3124,2.2808,2.1733,2.0138,1.9509,1.87,1.7833,1.7723,1.7231,1.6592,1.6079,1.5559,1.5071,0.0,0.0,0.0,0.0,0.0,0.0,0.0,0.0,0.0,0.0,0.0,0.0,0.0,1.4148,1.3658,1.2273,1.482,1.7106,1.8561,2.1881,2.4609,2.6488,2.7581,2.7901,2.7375,2.8811,2.9261,2.8626,2.988,3.0302,2.9922,3.0237,3.0392,3.0454,3.0766,3.0813,3.0709,3.1472,3.2241,3.2959,3.2617,3.2654,3.2873,3.1804,3.0538,2.9361,2.8897,2.8048,0.0,0.0,2.6522,2.6222,2.7787,2.7188,2.5574,2.4427,2.3177,2.1973,2.0693,2.0479,2.0938,2.2479,2.4355,2.6075,2.7175,2.893,3.0478,3.1035,3.2393,3.3613,3.3857,3.4141,3.4668,3.5684,3.5508,3.5674,3.6865,3.6455,3.5996,3.5937,3.4541,3.3955,3.4892,3.4492,3.4033,3.3721,3.2978,3.2422,3.2178,3.1357,3.0889,3.0889,3.0889,3.0586,2.9941,2.9744,2.9268,2.8652,2.729,2.6729,2.6826,2.5488,2.429,2.3116,2.2079,2.1681,2.1622,2.132,2.0813,2.006,1.9738,1.8838,1.7648,1.671,1.5831,1.5089,0.0,0.0,0.0,0.0,0.0,0.0,0.0,0.0,0.0,0.0,0.0,0.0,0.0,1.2372,1.1826,1.0463,1.2933,1.5551,1.7892,2.104,2.385,2.6229,2.7156,2.7403,2.7007,2.8443,2.8936,2.834,2.9758,3.0358,3.012,3.0516,3.0797,3.1007,3.1263,3.1182,3.0897,3.126,3.1789,3.2331,3.1479,3.1594,3.2083,3.0677,2.9003,2.7262,2.6932,2.5839,0.0,2.4212,2.3966,2.3992,2.5445,2.5029,2.3879,2.3233,2.1814,2.069,2.1522,2.2167,2.3009,2.4541,2.6573,2.8301,2.8623,3.0045,3.1455,3.2187,3.3262,3.4238,3.4785,3.4639,3.4892,3.6269,3.5684,3.5508,3.6767,3.6309,3.5605,3.4932,3.3633,3.292,3.3252,3.3506,3.3496,3.3105,3.2685,3.2256,3.1836,3.123,3.0889,3.0889,3.0889,3.0615,3.0029,2.9726,2.9297,2.874,2.8007,2.7755,2.7876,2.6363,2.4786,2.314,2.1786,2.1492,2.2102,2.1932,2.1721,2.1418,2.0963,1.9808,1.8262,1.7406,1.6317,1.5306,0.0,0.0,0.0,0.0,0.0,0.0,0.0,0.0,0.0,0.0,0.0,0.0,0.0,1.1099,1.1038,1.0537,1.2673,1.4907,1.7014,1.9716,2.2324,2.4751,2.6454,2.7304,2.7293,2.8733,2.9137,2.841,2.893,2.9439,2.992,2.9909,3.0674,3.2041,3.1588,3.1072,3.0544,3.0555,3.0351,3.0136,3.0542,3.0785,3.068,2.9147,2.7257,2.5467,2.6222,0.0,2.2536,2.1498,2.1534,2.1987,2.1375,2.201,2.2685,2.1444,1.9505,1.8135,1.9955,2.0035,2.0647,2.4987,2.6627,2.7789,2.9872,3.1246,3.2256,3.2685,3.3467,3.4336,3.5215,3.5361,3.5508,3.5967,3.6006,3.5996,3.6045,3.5684,3.4932,3.3633,3.3076,3.1992,0.0,3.0498,3.1338,3.2148,3.1797,3.1367,3.0957,3.0898,3.0889,3.0889,3.0889,3.0469,2.9655,2.9636,2.915,2.831,2.8301,2.7979,2.7396,2.6236,2.4954,2.3644,2.2751,2.1937,2.1246,2.044,2.0077,2.0063,2.003,1.9198,1.8029,1.7975,1.7079,1.5795,0.0,0.0,0.0,0.0,0.0,0.0,0.0,0.0,0.0,0.0,0.0,0.0,0.0,0.0,0.0,0.0,1.178,1.3148,1.5041,1.7963,2.0616,2.2854,2.5583,2.6843,2.6366,2.808,2.8644,2.7945,2.8884,2.9439,2.9623,2.9914,3.024,3.0613,3.1083,3.0947,3.0459,3.0824,3.0931,3.084,2.9619,2.9425,2.9632,2.6754,2.479,2.3506,0.0,2.0632,1.8797,1.8124,1.8436,1.9241,2.0273,2.0164,1.9311,1.7641,1.8165,1.9512,2.0368,2.2252,2.4522,2.6821,2.8511,2.9717,3.0404,3.1436,3.2256,3.2205,3.2099,3.199,3.2089,3.2017,3.2275,3.3301,3.3701,3.4375,3.582,3.4902,3.4023,3.3867,3.248,0.0,0.0,0.0,0.0,3.0546,3.1113,3.1338,3.0918,3.0889,3.0889,3.0889,3.0889,3.0469,2.9636,2.9626,2.9141,2.8301,2.8574,2.8068,2.689,2.6765,2.5744,2.4005,2.3729,2.3198,2.2503,2.2482,2.1701,2.0647,2.1041,2.0312,1.9042,1.8837,1.8018,1.6812,0.0,0.0,0.0,0.0,0.0,0.0,0.0,0.0,0.0,0.0,0.0,0.0,0.0,0.0,0.0,0.0,0.0,1.2113,1.3744,1.608,1.8268,2.0221,2.266,2.373,2.3216,2.5295,2.6256,2.5964,2.7477,2.8508,2.9125,2.9214,2.9513,2.9989,3.0273,3.0141,2.9677,2.9755,2.9642,2.9339,2.7523,2.7053,2.7052,2.4105,2.2183,0.0,1.9304,1.7642,1.6221,1.6038,1.6613,1.7522,1.8347,1.8021,1.7245,1.6869,1.8175,2.0092,2.196,2.4307,2.6615,2.8436,2.9675,3.0475,3.0475,3.1101,3.166,3.1589,3.1075,3.0529,3.0355,3.0044,3.0198,3.1309,3.1826,3.2861,3.5019,3.4092,3.3359,3.3789,3.2363,3.1377,0.0,0.0,0.0,2.9863,3.0566,3.0859,3.0439,3.042,3.0566,3.0879,3.0889,3.0469,2.9636,2.9626,2.9141,2.8301,2.8564,2.7981,2.6677,2.6911,2.5692,2.3491,2.3866,2.3394,2.2355,2.3004,2.2611,2.1554,2.1908,2.1252,2.0031,1.9813,1.8927,1.7599,0.0,0.0,0.0,0.0,0.0,0.0,0.0,0.0,0.0,0.0,0.0,0.0,0.0,0.0,0.0,0.0,0.0,0.0,1.2919,1.4156,1.5514,1.7061,1.8159,1.8623,1.8383,2.0805,2.2276,2.2655,2.4608,2.64,2.8033,2.7525,2.821,2.9784,2.8918,2.8362,2.8004,2.7195,2.6477,2.5761,2.4398,2.368,2.3235,2.1269,1.9507,1.803,1.7125,1.5993,1.4923,1.5255,1.6174,1.6938,1.6012,1.6045,1.6825,1.9033,1.939,2.0063,2.4461,2.603,2.7049,2.9632,3.0193,3.0121,3.0121,3.0306,3.0591,3.0744,3.0244,2.9738,2.9809,2.9308,2.9165,2.9924,3.0498,3.1572,3.373,3.3301,3.291,3.331,3.2656,3.167,3.0391,3.0684,0.0,3.0205,0.0,3.0059,2.9658,2.9695,3.001,3.083,3.0859,3.043,2.9541,2.9512,2.9092,2.8237,2.8291,2.7767,2.681,2.6686,2.5041,2.2358,2.3283,2.2655,2.1089,2.2131,2.2585,2.2568,2.2568,2.1895,2.0955,2.0939,1.9857,1.8169,0.0,0.0,0.0,0.0,0.0,0.0,0.0,0.0,0.0,0.0,0.0,0.0,0.0,0.0,0.0,0.0,0.0,0.0,1.0348,1.2626,1.425,1.4967,1.747,1.8711,1.8398,1.9531,1.9935,1.9553,2.0411,2.1106,2.1647,2.2108,2.2635,2.3237,2.3276,2.3393,2.3413,2.2627,2.2582,2.2878,2.1002,2.0719,2.1252,1.8709,1.7527,1.7111,1.6051,1.516,1.4516,1.5071,1.6773,1.8857,1.9724,2.0168,2.0383,2.0587,2.2025,2.3917,2.5492,2.7854,3.0086,3.0871,3.0803,3.0469,3.0233,2.9882,2.9305,2.8192,2.6803,2.5586,2.4765,2.4628,2.5363,2.755,2.8822,3.0422,3.2865,3.2478,3.2057,3.248,3.2295,3.1914,3.124,3.1582,0.0,0.0,3.0342,3.0664,3.0557,3.0557,3.0498,3.0371,3.0371,2.9961,2.9092,2.8779,2.829,2.7647,2.8077,2.7741,2.666,2.6742,2.5722,2.3974,2.3904,2.3194,2.2182,2.2493,2.2439,2.2133,2.2133,2.1984,2.1694,2.1359,2.0533,1.9392,0.0,0.0,0.0,0.0,0.0,0.0,0.0,0.0,0.0,0.0,0.0,0.0,0.0,0.0,0.0,0.0,0.0,0.0,0.0,1.1079,1.2017,1.2018,1.37,1.4575,1.44,1.5713,1.6342,1.6239,1.7598,1.8395,1.8704,1.934,1.9646,1.9658,1.9858,1.9918,1.9784,1.9146,1.9205,0.0,0.0,1.7261,1.7697,1.5948,1.5029,1.4715,1.5098,1.5365,1.5842,1.7573,1.8877,2.0101,2.2283,2.2948,2.3115,2.3913,2.5212,2.6621,2.7944,2.9865,3.1526,3.1797,3.1411,3.0583,2.9211,2.837,2.7481,2.5942,2.4326,2.3095,2.2905,2.2925,2.3673,2.5896,2.7352,2.9124,3.1677,3.1303,3.1163,3.2353,3.1953,3.1728,3.2051,3.1953,3.1484,0.0,3.0527,3.0508,3.0322,3.0127,3.0078,3.0195,3.0019,2.96,2.8926,2.8506,2.813,2.7809,2.813,2.7873,2.7094,2.6867,2.59,2.4276,0.0,2.3244,2.2224,2.2493,2.2474,2.2235,2.2235,2.2141,2.197,2.1747,2.1111,2.0268,0.0,0.0,0.0,0.0,0.0,0.0,0.0,0.0,0.0,0.0,0.0,0.0,0.0,0.0,0.0,0.0,0.0,0.0,0.0,0.0,0.9694,0.9209,0.9177,0.922,0.9322,1.1129,1.2398,1.2993,1.5138,1.6398,1.6803,1.7259,1.7307,1.7051,1.6998,1.6773,1.6431,1.5957,1.5906,1.5955,1.4279,1.368,1.3748,0.0,0.0,1.2011,1.4,1.5555,1.7162,2.0586,2.1329,2.1334,2.4407,2.5247,2.5557,2.7812,2.8332,2.8655,3.0619,3.1551,3.2007,3.2317,3.1812,3.054,2.8041,2.672,2.5566,2.4145,2.2533,2.1689,2.2698,2.2761,2.3211,2.5024,2.6305,2.7883,3.0323,3.0189,3.0528,3.2146,3.1543,3.1406,3.2519,3.1846,3.1338,3.1338,3.0684,3.0127,2.9766,2.9326,2.9375,3.001,2.9619,2.9219,2.8838,2.8476,2.8237,2.8184,2.8237,2.8105,2.7639,2.717,2.5945,2.4197,0.0,0.0,2.1946,2.2434,2.2568,2.2525,2.2525,2.2328,2.1996,2.1936,2.1508,2.0849,0.0,0.0,0.0,0.0,0.0,0.0,0.0,0.0,0.0,0.0,0.7844,0.0,0.0,0.0,0.0,0.0,0.0,0.0,0.0,0.0,0.0,0.9198,0.9154,0.9236,0.9467,0.9722,1.0029,1.0349,1.0781,1.099,1.0965,1.138,1.1416,1.1095,1.1081,1.142,1.195,1.1237,1.1543,1.2419,1.144,1.1256,1.1571,0.0,0.0,0.0,1.2482,1.317,1.4363,1.8981,2.1802,2.4069,2.762,2.882,2.8983,2.9665,3.0151,3.0574,3.0967,3.1832,3.2579,3.2445,3.1708,3.0586,2.901,2.6952,2.5033,2.351,2.1562,2.0527,2.1595,2.1765,2.2643,2.5471,2.6385,2.7248,2.8655,2.9968,3.0595,3.0225,3.0889,3.1494,3.1719,3.0947,0.0,0.0,3.0644,3.0742,3.0664,3.0225,2.9717,2.916,2.874,2.8476,2.8398,2.833,2.8023,2.7539,2.8077,2.7985,2.7469,2.7506,2.6906,2.5774,0.0,0.0,2.302,2.2736,2.2414,2.209,2.209,2.2055,2.1961,2.1627,2.143,2.1229,0.0,0.0,0.0,0.0,0.0,0.0,0.0,0.0,0.0,0.0,0.7107,0.7979,0.0,0.0,0.0,0.0,0.0,0.0,0.0,0.0,0.0,0.0,0.0,0.0,0.8559,0.8751,0.8871,0.8933,0.0,0.9417,0.934,0.979,0.9713,0.9184,0.9405,0.9515,0.9549,0.933,0.9651,1.0329,0.9933,0.9904,0.0,0.0,0.0,0.0,1.1798,1.228,1.3507,1.717,1.9751,2.236,2.7859,3.0119,3.0577,2.994,3.0848,3.1837,3.1031,3.1928,3.3101,3.2936,3.2083,3.0403,2.7077,2.4936,2.2818,2.0191,1.8973,1.8687,1.9822,2.0755,2.2111,2.4468,2.5743,2.692,2.8531,2.9308,2.9872,3.0216,3.04,3.0586,3.081,3.0049,2.9619,2.9853,2.9668,2.9726,3.0176,2.9775,2.9248,2.8613,2.8398,2.8291,2.8291,2.8291,2.813,2.7862,2.8184,2.813,2.7843,2.7746,2.7318,2.6564,2.5321,0.0,2.2664,2.26,2.2071,2.1304,2.2052,2.2167,2.197,2.1782,2.1473,2.1114,0.0,0.0,0.0,0.0,0.0,0.0,0.0,0.4992,0.535,0.6287,0.6588,0.7268,0.8648,0.9615,0.0,0.0,0.0,0.0,0.0,0.0,0.0,0.0,0.0,0.0,0.0,0.0,0.0,0.8101,0.8728,0.0,0.0,0.0,0.0,0.0,0.8689,0.8583,0.8172,0.844,0.8751,0.0,0.0,0.9211,0.0,0.0,0.0,0.0,0.0,1.1745,1.2894,1.5594,1.7259,1.9384,2.5629,2.8759,2.9997,2.9346,3.0623,3.2102,3.1341,3.2146,3.3146,3.3049,3.2002,2.9775,2.5144,2.2853,2.0818,1.766,1.6839,1.7158,1.8599,1.9975,2.1467,2.3191,2.4542,2.6142,2.8269,2.8449,2.8971,3.0431,3.0078,2.9873,3.0303,2.9482,0.0,2.9531,2.8779,0.0,2.9385,2.9101,2.873,2.8301,2.8291,2.8291,2.8291,2.8291,2.8291,2.8291,2.8291,2.8291,2.8281,2.7949,2.7559,2.7078,2.5716,0.0,0.0,2.2698,2.2012,2.0965,2.2139,2.2422,2.2107,2.203,2.1567,2.0985,0.0,0.0,0.0,0.0,0.0,0.0,0.0,0.5363,0.5463,0.5845,0.6622,0.7485,0.8435,0.9176,0.0,0.0,0.0,0.0,0.0,0.0,0.0,0.0,0.0,0.0,0.0,0.0,0.0,0.7833,0.8268,0.0,0.0,0.0,0.0,0.0,0.0,0.7204,0.7668,0.7693,0.0,0.0,0.0,0.0,0.0,0.0,0.0,0.0,0.0,1.0837,1.1384,1.4408,1.5825,1.6847,2.0209,2.3301,2.6069,2.7953,2.9422,3.0736,3.2189,3.2546,3.239,3.2055,3.0673,2.8531,2.524,2.2581,2.0328,1.8658,1.7141,1.6738,1.8942,1.9696,2.0649,2.2513,2.2979,2.3969,2.6477,2.7379,2.8247,2.9541,2.9961,3.0322,3.0781,2.9668,2.9101,2.9531,0.0,0.0,2.8955,2.8945,2.873,2.8301,2.8291,2.8291,2.8291,2.8291,2.8291,2.8291,2.8291,2.8291,2.8291,2.8252,2.8008,2.7578,2.6511,0.0,0.0,2.347,2.2711,2.1931,2.2407,2.2577,2.2508,2.2124,2.173,2.1311,0.0,0.0,0.0,0.0,0.0,0.0,0.0,0.5223,0.5362,0.5749,0.614,0.6764,0.7798,0.8571,0.9579,0.0,0.0,0.0,0.0,0.0,0.0,0.0,0.0,0.0,0.0,0.0,0.831,0.8103,0.8293,0.0,0.0,0.0,0.0,0.0,0.0,0.7375,0.7774,0.7774,0.0,0.0,0.0,0.0,0.0,0.0,0.0,0.0,0.0,0.0,1.0948,1.2556,1.3454,1.4115,1.5338,1.7211,1.9529,2.235,2.5667,2.8339,2.8133,3.0193,3.219,3.1388,2.9989,2.7799,2.3867,2.1725,1.9848,1.7406,1.6738,1.6966,1.8207,1.8929,1.9753,2.1034,2.167,2.2875,2.5477,2.6148,2.7131,2.9097,2.9511,2.9636,2.9717,0.0,2.8398,2.8057,0.0,0.0,2.8525,2.8545,2.8467,2.8301,2.8291,2.8291,2.8291,2.8291,2.8291,2.8291,2.7916,2.797,2.8291,2.7916,2.7603,2.7266,2.6506,0.0,0.0,2.3084,2.2315,2.0851,2.2104,2.2594,2.2577,2.2431,2.2132,2.1761,0.0,0.0,0.0,0.0,0.0,0.0,0.5324,0.5265,0.541,0.5817,0.5908,0.6333,0.7303,0.7982,0.8898,1.0219,0.0,0.0,0.0,0.0,0.0,0.0,0.0,0.0,0.0,0.0,0.8639,0.831,0.844,0.8432,0.0,0.0,0.7833,0.7394,0.0,0.0,0.0,0.0,0.0,0.0,0.0,0.0,0.0,0.0,0.0,0.0,0.0,0.0,0.0,0.0,0.0,1.2375,1.2388,1.3068,1.4542,1.7944,2.2399,2.61,2.5462,2.8505,3.1621,3.0573,2.8869,2.6413,2.2625,2.0582,1.8839,1.6554,1.6379,1.6859,1.7487,1.8322,1.9183,1.9949,2.0832,2.2198,2.442,2.4822,2.5698,2.7968,2.8263,2.8388,2.8807,2.8684,2.8213,2.7461,0.0,0.0,2.8165,2.8184,2.8237,2.8291,2.8291,2.8291,2.8291,2.8291,2.8291,2.8291,2.7809,2.7621,2.7709,2.7452,2.7103,2.6613,0.0,0.0,0.0,2.3435,2.2586,2.0874,2.2158,2.265,2.2585,2.2474,2.2383,2.2223,0.0,0.0,0.0,0.0,0.0,0.0,0.0,0.5688,0.5691,0.5952,0.6162,0.6537,0.7154,0.737,0.7787,0.8479,0.0,0.0,0.0,0.0,0.0,0.0,0.0,0.0,0.0,0.0,0.9089,0.8287,0.8556,0.8495,0.8097,0.789,0.7648,0.7422,0.0,0.0,0.0,0.0,0.0,0.0,0.0,0.0,0.0,0.0,0.0,0.0,0.0,0.0,0.0,0.0,0.0,0.0,0.0,1.1689,1.2207,1.6083,2.0408,2.4268,2.5776,2.8417,3.0483,2.9449,2.6889,2.4015,2.1893,1.9204,1.7045,1.6754,1.621,1.6108,1.7045,1.8017,1.8892,1.9515,2.0661,2.1943,2.3255,2.3438,2.4083,2.5804,2.6006,2.673,2.852,2.8944,2.8877,0.0,0.0,0.0,2.7906,2.7906,2.8014,2.8291,2.8291,2.8291,2.8291,2.8291,2.8291,2.8291,2.8014,2.7314,2.6323,2.6931,2.6653,0.0,0.0,0.0,0.0,2.4922,2.4051,2.277,2.2779,2.2723,2.2551,2.2133,2.2339,2.2717,0.0,0.0,0.0,0.0,0.0,0.0,0.0,0.5557,0.5657,0.5847,0.6006,0.6235,0.6561,0.7145,0.7574,0.7816,0.0,0.0,0.0,0.0,0.0,0.0,0.0,0.0,0.0,0.0,0.9208,0.9133,0.8945,0.8728,0.8501,0.8293,0.7922,0.7422,0.7751,0.7909,0.0,0.0,0.0,0.0,0.0,0.0,0.0,0.0,0.0,0.0,0.0,0.0,0.0,0.0,0.0,0.0,0.0,0.0,0.0,1.2755,1.5863,1.9058,1.9463,2.1852,2.4023,2.2958,2.1987,2.0785,1.8948,1.806,1.7441,1.6661,1.6403,1.6561,1.7258,1.7686,1.8299,1.9595,2.0247,2.1263,2.3071,2.3796,2.5098,2.7678,2.8866,2.9615,0.0,0.0,2.7511,0.0,0.0,0.0,2.7501,2.7327,2.7298,2.7691,2.7701,2.7809,2.8014,2.8014,2.8014,2.8014,2.753,2.6827,2.6046,2.625,0.0,0.0,0.0,0.0,0.0,2.4515,2.3829,2.2858,2.2752,2.2527,2.2259,2.2034,2.2193,2.2368,0.0,0.0,0.0,0.0,0.0,0.0,0.0,0.5531,0.564,0.5783,0.5935,0.603,0.6162,0.672,0.7,0.6931,0.0,0.0,0.0,0.0,0.0,0.0,0.0,0.0,0.0,0.9192,0.9368,0.9702,0.9304,0.9095,0.9007,0.8731,0.8363,0.7925,0.8352,0.8432,0.0,0.0,0.0,0.0,0.0,0.0,1.1156,0.0,0.0,0.0,0.0,0.0,0.0,0.0,0.0,0.0,0.0,0.0,0.0,0.0,1.3035,1.5092,1.5952,1.8583,2.0833,2.0054,1.9162,1.8301,1.7684,1.6993,1.647,1.6572,1.6857,1.7135,1.7348,1.7906,1.8529,1.9132,2.0176,2.1329,2.251,2.349,2.5005,2.7492,2.9357,0.0,0.0,2.8677,0.0,0.0,0.0,0.0,2.7232,2.7025,2.6952,2.7107,2.7128,2.7248,2.7462,2.7462,2.7462,2.7462,2.698,2.6253,2.5279,2.5743,0.0,0.0,0.0,0.0,0.0,2.4622,2.4155,2.339,2.3003,2.2684,2.2366,2.2196,2.238,2.2704,0.0,0.0,0.0,0.0,0.0,0.0,0.0,0.0,0.0,0.0,0.5935,0.5996,0.6006,0.6176,0.6242,0.0,0.0,0.0,0.0,0.0,0.0,0.0,0.0,0.0,0.8714,0.9265,0.9678,0.9983,0.9714,0.9536,0.9518,0.9177,0.8917,0.878,0.9358,0.9328,0.8888,0.9471,1.007,1.062,1.0875,1.1169,0.0,0.0,0.0,0.0,0.0,0.0,0.0,0.0,0.0,0.0,0.0,0.0,0.0,0.0,0.0,0.0,0.0,1.7618,1.9848,1.9567,1.7717,1.6334,1.752,1.5909,0.0,1.6578,1.7485,1.7787,1.7334,1.8629,1.9381,1.8339,2.0327,2.1928,2.179,2.2988,2.4418,2.5936,2.8247,0.0,2.8943,2.9585,0.0,0.0,0.0,0.0,2.7051,2.7051,2.687,2.6463,2.6595,2.6735,2.6763,2.6735,2.6706,2.6678,2.6443,2.5548,2.4143,2.5215,0.0,0.0,0.0,0.0,0.0,2.5111,2.4774,2.4203,2.3417,2.3037,2.2823,2.2456,2.2815,2.3465,0.0,0.0,0.0,0.0,0.0,0.0,0.0,0.0,0.0,0.0,0.0,0.6074,0.6231,0.6279,0.0,0.0,0.0,0.0,0.0,0.0,0.0,0.0,0.0,0.0,0.8986,1.0213,1.0551,0.991,1.0135,1.0094,0.9734,0.9492,0.9316,0.9254,0.9481,0.9562,0.9506,0.9857,1.0227,1.062,1.0875,1.1169,0.0,0.0,0.0,0.0,1.1906,1.2058,0.0,0.0,0.0,0.0,0.0,0.0,0.0,0.0,1.1366,1.1353,1.1991,0.0,1.3359,1.3511,1.338,1.3578,0.0,1.4752,1.5083,1.7248,1.7795,1.7868,1.7777,1.9051,1.9793,1.8731,1.9986,2.1387,2.2134,2.5831,2.8216,2.7539,3.0559,3.1848,2.9786,3.0053,0.0,0.0,0.0,2.8783,2.7511,2.7439,2.675,2.5277,2.5564,2.598,2.6499,2.619,2.5768,2.5289,2.5726,2.4927,2.3184,2.4446,0.0,0.0,0.0,0.0,2.5001,2.4833,2.4506,2.4029,2.3643,2.3107,2.2494,2.2336,2.2462,2.2662,0.0,0.0,0.0,0.0,0.0,0.0,0.0,0.0,0.0,0.0,0.0,0.0,0.0,0.0,0.0,0.0,0.0,0.0,0.0,0.0,0.0,0.0,0.0,0.8768,0.9101,0.9991,1.026,0.995,1.0276,1.0232,0.9894,0.9881,0.98,0.9687,0.9776,0.9925,1.0117,1.0107,1.0441,1.0969,1.1129,0.0,0.0,0.0,0.0,0.0,1.1504,1.1779,0.0,1.2104,1.2191,1.2268,0.0,0.0,0.0,0.0,1.1652,1.1502,1.1344,1.1208,1.1445,1.2837,1.2564,1.2645,1.5327,1.5048,1.4916,1.7529,1.797,1.7933,1.8007,1.889,1.9427,1.9087,1.9829,2.1176,2.3245,2.681,2.9276,2.931,3.0976,3.1713,0.0,0.0,0.0,0.0,0.0,2.9188,0.0,2.8124,2.7498,2.6499,2.6012,2.5745,2.5687,2.5474,2.4905,2.4058,2.4914,2.4404,2.2781,2.4167,2.4486,0.0,0.0,0.0,2.466,2.3871,2.3725,2.395,2.3429,2.3009,2.2725,2.2688,2.2666,2.2706,0.0,0.0,0.0,0.0,0.0,0.0,0.0,0.0,0.0,0.0,0.0,0.0,0.0,0.0,0.0,0.0,0.0,0.0,0.0,0.0,0.0,0.0,0.0,0.8721,0.9095,0.9588,0.9883,0.9983,1.036,1.0392,1.011,1.0238,1.0238,1.0104,1.0186,1.0394,1.0646,1.0408,1.0736,1.149,1.149,0.0,0.0,0.0,0.0,0.0,0.0,0.0,0.0,1.1852,1.2024,1.2291,1.2251,0.0,0.0,0.0,0.0,0.0,1.1664,1.1427,1.1884,1.4547,1.3447,1.2804,1.703,1.5829,1.4659,1.7775,1.8247,1.8172,1.8517,1.9055,1.9468,1.9497,2.0224,2.1834,2.4882,2.7351,2.9245,3.0522,3.0729,0.0,0.0,0.0,0.0,0.0,0.0,2.9604,0.0,2.8913,2.8543,2.8249,2.6963,2.586,2.4927,2.4785,2.4208,2.3235,2.4226,2.4007,2.2729,2.408,2.4542,0.0,0.0,0.0,2.4377,2.3075,2.3106,2.3884,2.322,2.3042,2.3091,2.3091,2.3091,2.3091,0.0,0.0,0.0,0.0,0.0,0.0,0.0,0.0,0.0,0.0,0.0,0.0,0.0,0.0,0.0,0.0,0.0,0.0,0.0,0.0,0.0,1.0256,0.9266,0.88,0.9101,1.0929,1.1242,0.9983,1.1056,1.1247,1.0681,1.0428,1.0371,1.0536,1.0768,1.0882,1.0942,1.1142,1.1443,1.1839,1.1839,0.0,0.0,0.0,0.0,0.0,0.0,0.0,0.0,1.1577,1.185,1.2258,1.2011,0.0,0.0,0.0,0.0,0.0,1.1751,1.1895,1.2531,1.466,1.3839,1.3417,1.6798,1.5839,1.5169,1.8579,1.9093,1.919,2.0129,2.18,2.2331,2.024,2.233,2.4931,2.6974,2.9434,3.0612,2.946,0.0,3.2729,0.0,0.0,0.0,0.0,0.0,0.0,0.0,2.9932,2.9074,2.7417,2.6694,2.6053,2.5557,2.474,2.3916,2.3226,2.3934,2.3879,2.3145,2.3916,2.4266,0.0,0.0,2.4082,2.4223,2.417,2.3973,2.3738,2.3817,2.35,2.3091,2.3091,2.3091,2.3091,0.0,0.0,0.0,0.0,0.0,0.0,0.0,0.0,0.0,0.0,0.0,0.0,0.0,0.0,0.0,0.0,0.0,0.0,0.0,0.0,0.0,0.9997,0.9469,0.9405,1.0008,1.1016,1.1142,1.0333,1.112,1.1245,1.0688,1.053,1.0578,1.0827,1.0929,1.1082,1.1236,1.1335,1.1597,1.1906,0.0,0.0,0.0,0.0,0.0,0.0,0.0,0.0,0.0,0.0,1.1583,1.2044,1.1946,0.0,0.0,0.0,0.0,0.0,1.1615,1.1774,1.2836,1.6411,1.5617,1.5267,2.0289,1.8487,1.683,2.0563,1.961,1.8638,2.0459,2.1316,2.204,2.2881,2.6337,2.9,2.9222,3.0175,3.0908,0.0,0.0,0.0,0.0,0.0,0.0,0.0,0.0,0.0,0.0,0.0,2.9736,2.8863,2.8015,2.7513,2.7305,2.634,2.4823,2.2892,2.3801,2.3724,2.291,2.3819,2.4202,2.4165,0.0,2.345,2.4119,2.296,2.2871,2.3476,2.3235,2.3041,2.2969,2.3057,2.3091,2.3091,0.0,0.0,0.0,0.0,0.0,0.0,0.0,0.0,0.0,0.0,0.0,0.0,0.0,0.0,0.0,0.0,0.0,0.0,0.0,0.0,0.915,0.9737,0.978,1.0125,1.0811,1.0949,1.0941,1.0757,1.1149,1.1108,1.0593,1.0593,1.0713,1.0902,1.1035,1.1216,1.1395,1.1535,1.1764,1.2007,0.0,0.0,0.0,0.0,0.0,0.0,0.0,0.0,0.0,0.0,0.0,0.0,0.0,0.0,0.0,1.2114,1.2077,1.2016,1.1752,1.1834,1.3055,1.7602,1.6745,1.6511,2.3364,2.0771,1.8131,2.2372,2.0579,1.8913,2.1075,2.1102,2.1988,2.5564,2.9299,3.1663,3.1484,3.1292,3.1661,3.3021,0.0,0.0,0.0,0.0,0.0,0.0,0.0,0.0,0.0,0.0,3.0399,3.0399,2.93,2.8678,2.8678,2.7709,2.5894,2.336,2.4182,2.3962,2.286,2.3672,2.396,2.3822,2.2699,2.2873,2.3758,2.2017,2.2052,2.3122,2.2659,2.2615,2.2794,2.2882,2.3003,2.3091,0.0,0.0,0.0,0.0,0.0,0.0,0.0,0.0,0.0,0.0,0.0,0.0,0.0,0.0,0.0,0.0,0.0,0.0,0.0,0.0,0.9785,1.0575,1.0653,1.0754,1.088,1.1189,1.1344,1.1257,1.1409,1.1166,1.0593,1.0593,1.06,1.0646,1.1156,1.1375,1.1429,1.2004,1.2251,1.2271,1.2271,0.0,0.0,0.0,0.0,0.0,0.0,0.0,0.0,0.0,0.0,0.0,0.0,0.0,1.2305,1.2268,1.2268,1.2328,1.2545,1.2518,1.3293,1.6841,1.583,1.5959,2.3457,2.0756,1.811,2.3322,2.2728,2.1697,2.2974,2.3191,2.4167,2.731,2.9225,3.121,3.3795,0.0,3.3758,3.3889,0.0,0.0,0.0,0.0,0.0,0.0,0.0,0.0,0.0,0.0,0.0,3.0962,2.9489,2.8678,2.8678,2.7709,2.6645,2.5499,2.5567,2.4831,2.3453,2.3508,2.3343,2.2986,2.2904,2.2913,2.2986,2.284,2.2741,2.274,2.272,2.2737,2.275,2.253,2.274,2.3057,0.0,0.0,0.0,0.0,0.0,0.0,0.0,0.0,0.0,0.0,0.0,0.0,0.0,0.0,0.0,0.0,0.0,0.0,0.0,0.9428,1.0049,1.0208,1.0439,1.0736,1.1086,1.143,1.1614,1.166,1.144,1.1158,1.0861,1.0861,1.0861,1.0855,1.1443,1.1353,1.0795,1.1319,1.1193,1.0687,1.1304,1.1395,0.0,0.0,0.0,0.0,0.0,0.0,0.0,0.0,1.1109,1.1563,1.1383,1.1685,1.2067,1.2067,1.1832,1.1721,1.216,1.2545,1.3719,1.7388,1.6871,1.7148,2.3721,2.2548,2.113,2.4929,2.4038,2.2659,2.2809,2.5538,2.8051,2.897,3.1338,3.3433,3.4493,3.3993,3.3556,0.0,0.0,0.0,0.0,0.0,0.0,0.0,0.0,0.0,0.0,0.0,0.0,3.0526,2.9942,2.9612,2.9612,2.8978,2.8139,2.7102,2.5892,2.5052,2.446,2.3558,2.305,2.2895,2.2629,2.2666,2.2867,2.2364,2.2245,2.2437,2.2378,2.2405,2.253,2.2441,2.253,2.2662,0.0,0.0,0.0,0.0,0.0,0.0,0.0,0.0,0.0,0.0,0.0,0.0,0.0,0.0,0.0,0.0,0.0,0.0,0.8295,0.9471,1.0198,1.0202,1.0493,1.0857,1.1424,1.1614,1.1813,1.1978,1.1505,1.1175,1.0995,1.0995,1.0995,1.1015,1.151,1.1418,1.0886,1.1233,1.0955,1.0395,1.0967,1.1166,0.0,0.0,0.0,0.0,0.0,0.0,0.0,0.0,1.0962,1.1283,1.1276,1.1483,1.175,1.1879,1.166,1.1587,1.2231,1.2729,1.391,1.7555,1.7561,1.8132,2.3721,2.3438,2.2997,2.648,2.5663,2.4253,2.4063,2.694,2.9469,2.9954,3.2185,3.3962,3.4272,3.3583,0.0,0.0,0.0,0.0,0.0,0.0,0.0,0.0,0.0,0.0,0.0,0.0,0.0,0.0,3.0308,3.0216,3.0216,2.9745,2.917,2.8454,2.6501,2.5406,2.5073,2.4059,2.3545,2.3357,2.2791,2.2692,2.2925,2.2051,2.1851,2.2107,2.203,2.2097,2.2309,2.222,2.2264,2.2397,0.0,0.0,0.0,0.0,0.0,0.0,0.0,0.0,0.0,0.0,0.0,0.0,0.0,0.0,0.0,0.0,0.0,0.0,0.8281,0.9317,1.019,1.0867,1.1011,1.1355,1.1899,1.1757,1.1854,1.219,1.1681,1.1283,1.1002,1.1002,1.1002,1.1009,1.1275,1.1597,1.1899,1.1913,1.1877,1.1844,1.1515,1.1575,1.1844,0.0,0.0,0.0,0.0,0.0,0.0,0.0,1.0989,1.1096,1.1712,1.1657,1.1483,1.1819,1.1899,1.2112,1.3064,1.3128,1.3741,1.7128,1.7644,1.8603,2.3382,2.3009,2.2991,2.7902,2.7752,2.6849,2.7328,2.72,2.7851,3.0192,3.1278,3.2184,3.3144,3.2806,0.0,0.0,0.0,0.0,0.0,0.0,0.0,0.0,0.0,0.0,0.0,0.0,0.0,0.0,3.048,3.0204,3.0204,2.9722,2.9481,2.947,2.7521,2.6087,2.5117,2.5106,2.4869,2.4456,2.3531,2.3096,2.3008,2.2078,2.1696,2.1696,2.1696,2.1874,2.2052,2.1785,2.1998,2.2353,0.0,0.0,0.0,0.0,0.0,0.0,0.0,0.0,0.0,0.0,0.0,0.0,0.0,0.0,0.0,0.0,0.0,0.0,0.8832,0.9775,1.0405,1.0621,1.1214,1.1632,1.1899,1.1854,1.189,1.1977,1.1819,1.169,1.1645,1.1645,1.1496,1.1302,1.2265,1.2,1.0899,1.1646,1.1301,1.0305,1.0735,1.1086,1.1352,0.0,0.0,0.0,0.0,0.0,0.0,0.0,0.0,0.0,1.0995,1.1169,1.1661,1.3041,1.2249,1.1408,1.3675,1.4014,1.4332,1.6768,1.8722,2.0784,2.3574,2.4002,2.4689,2.7824,2.7887,2.7406,2.7379,2.9197,0.0,2.9907,3.153,3.267,3.2066,0.0,0.0,0.0,0.0,0.0,0.0,0.0,0.0,0.0,0.0,0.0,0.0,0.0,0.0,0.0,2.9228,2.9148,2.9148,2.8677,2.8425,2.8425,2.7466,2.6732,2.612,2.5143,2.4623,2.4498,2.4188,2.3704,2.3008,2.2078,2.1696,2.1696,2.1696,2.1741,2.183,2.1741,2.1776,2.1909,0.0,0.0,0.0,0.0,0.0,0.0,0.0,0.0,0.0,0.0,0.63,0.0,0.0,0.0,0.0,0.0,0.0,0.0,0.0,1.047,1.0987,1.1173,1.1544,1.1823,1.1899,1.2134,1.2141,1.1906,1.1906,1.1906,1.1906,1.1906,1.177,1.163,1.2358,1.2116,1.12,1.1727,1.1415,1.0557,1.0847,1.115,1.143,0.0,0.0,0.0,0.0,0.0,0.0,0.0,0.0,0.0,1.0821,1.1372,1.2181,1.2707,1.2608,1.27,1.4458,1.5213,1.619,1.8948,2.0697,2.223,2.425,2.5791,2.7312,2.8913,2.9426,2.959,2.9694,3.1164,0.0,3.1309,3.2172,3.2618,0.0,0.0,0.0,0.0,0.0,0.0,0.0,0.0,0.0,0.0,0.0,0.0,0.0,0.0,0.0,0.0,2.87,2.87,2.87,2.8218,2.7977,2.7977,2.7472,2.7092,2.6808,2.5952,2.5558,2.5558,2.5168,2.4307,2.3052,2.2501,2.2033,2.1696,2.1696,2.1696,2.1696,2.1696,2.1696,2.1696,0.0,0.0,0.0,0.0,0.0,0.0,0.0,0.0,0.0,0.0,0.63,0.6338,0.0,0.0,0.0,0.0,0.0,0.0,0.0,0.0,1.1736,1.2183,1.204,1.196,1.1986,1.2455,1.2455,1.1946,1.1946,1.1946,1.1946,1.1946,1.1946,1.1946,1.2,1.2068,1.2174,1.2005,1.1886,1.1813,1.1479,1.1539,1.1832,1.1877,0.0,0.0,0.0,0.0,0.0,0.0,0.0,0.0,1.0962,1.1874,1.2684,1.1561,1.302,1.507,1.5408,1.6609,1.866,2.2315,2.2986,2.3299,2.5498,2.8185,3.0255,3.047,3.1486,3.2524,3.3138,3.2917,3.2804,3.3493,3.2948,3.2148,0.0,0.0,0.0,0.0,0.0,0.0,0.0,0.0,0.0,0.0,0.0,0.0,0.0,0.0,0.0,2.8563,2.8563,2.8563,2.8563,2.8126,2.792,0.0,2.7449,2.719,2.719,2.719,2.719,2.7149,2.6216,2.4798,2.3226,2.3139,2.2545,2.1696,2.1696,2.1696,2.1696,2.1696,2.1696,2.1696,0.0,0.0,0.0,0.0,0.0,0.0,0.0,0.0,0.0,0.0,0.0,0.0,0.0,0.0,0.0,0.0,0.0,0.0,0.0,0.0,1.2086,1.219,1.2344,1.2502,1.2589,1.2268,1.2147,1.2204,1.2204,1.2204,1.2204,1.2204,1.2204,1.2231,1.2712,1.2349,1.1397,1.1806,1.1713,1.1261,1.0953,1.1009,1.1335,1.1735,1.1682,0.0,0.0,0.0,0.0,0.0,0.0,0.0,1.076,1.1043,1.1656,1.2602,1.3477,1.4585,1.6434,1.7694,1.8939,2.0838,2.2898,2.5264,2.8267,3.0025,3.0836,3.0203,3.0954,3.2163,3.3413,3.3133,3.27,3.2735,3.2148,0.0,0.0,0.0,0.0,0.0,0.0,0.0,0.0,0.0,0.0,0.0,0.0,0.0,0.0,0.0,0.0,2.7522,2.75,2.75,2.75,2.7408,2.7351,0.0,2.7247,2.719,2.719,2.719,2.719,2.7149,2.6216,2.52,2.4145,2.34,2.2545,2.1696,2.1696,2.1696,2.1696,2.1696,2.1696,2.1696,0.0,0.0,0.0,0.0,0.0,0.0,0.0,0.0,0.0,0.0,0.0,0.0,0.0,0.0,0.0,0.0,0.0,0.0,0.0,0.0,1.2652,1.2579,1.2655,1.2743,1.2784,1.2482,1.2261,1.2098,1.2231,1.2305,1.2305,1.2305,1.2305,1.2318,1.2632,1.2372,1.1688,1.2018,1.1974,1.1657,1.1511,1.1543,1.1694,1.1985,1.1689,1.1205,1.1833,0.0,0.0,0.0,0.0,0.0,0.0,0.0,1.2055,1.1928,1.3006,1.4499,1.5891,1.7891,2.0191,2.2838,2.522,2.7176,2.8366,3.0151,3.1175,2.9953,3.1636,3.3467,3.3993,3.3598,3.3006,3.2417,3.1798,0.0,0.0,0.0,0.0,0.0,0.0,0.0,0.0,0.0,0.0,0.0,0.0,0.0,0.0,2.7759,2.7506,2.7201,2.719,2.719,2.719,2.719,2.719,2.719,2.719,2.719,2.719,2.719,2.719,2.719,2.6663,2.5966,2.5031,2.4135,2.3236,2.2378,2.2378,2.2122,2.1731,2.2201,2.2078,2.1696,0.0,0.0,0.0,0.0,0.0,0.0,0.0,0.0,0.0,0.0,0.0,0.0,0.0,0.0,0.0,0.0,0.0,0.0,0.0,0.0,0.0,1.2954,1.2806,1.273,1.2784,1.273,1.2469,1.198,1.2184,1.2405,1.2605,1.2505,1.2458,1.2458,1.2458,1.2324,1.2077,1.2077,1.2077,1.2077,1.2077,1.2077,1.2114,1.2268,1.1781,1.1223,1.2003,1.1855,1.1366,1.1785,0.0,0.0,0.0,0.0,1.2524,1.0883,1.2262,1.4422,1.4737,1.7712,2.1662,2.5441,2.7375,2.8223,2.7711,2.936,3.0778,2.9787,3.2481,3.4795,3.416,3.3729,3.3125,3.2228,0.0,0.0,0.0,0.0,0.0,0.0,0.0,0.0,0.0,0.0,0.0,0.0,0.0,0.0,2.7851,2.7461,2.719,2.719,2.719,2.719,2.719,2.719,2.719,2.719,2.719,2.719,2.719,2.719,2.719,2.719,2.719,2.6663,2.5735,2.5031,2.4188,2.3357,2.3357,2.2853,2.2255,2.2887,2.2633,2.1945,0.0,0.0,0.0,0.0,0.0,0.0,0.0,0.0,0.0,0.0,0.7069,0.7142,0.0,0.0,0.0,0.0,0.0,0.0,0.0,0.0,0.0,1.2808,1.2536,1.2485,1.2777,1.2529,1.2325,1.2245,1.2285,1.2832,1.3841,1.3327,1.3093,1.3093,1.3093,1.2408,1.126,1.126,1.126,1.126,1.126,1.126,1.1335,1.204,1.1781,1.1223,1.2003,1.2224,1.2111,1.1964,1.1906,0.0,0.0,0.0,1.1319,1.094,1.2186,1.379,1.4074,1.783,2.2336,2.4821,2.576,2.6499,2.8287,2.838,2.8421,2.9766,3.2279,3.3924,3.2851,3.248,3.2287,3.2123,0.0,0.0,0.0,0.0,0.0,0.0,0.0,0.0,0.0,0.0,0.0,0.0,0.0,0.0,2.7334,2.7224,2.719,2.719,2.719,2.719,2.719,2.719,2.719,2.719,2.719,2.719,2.719,2.719,2.719,2.719,2.719,2.6663,2.5788,2.5652,2.5115,2.4317,2.4317,2.4241,2.4059,2.3357,2.3008,2.2921,0.0,0.0,0.0,0.0,0.0,0.0,0.0,0.0,0.0,0.0,0.0,0.7296,0.0,0.0,0.0,0.0,0.0,0.0,0.0,0.0,0.0,1.2808,1.2496,1.2445,1.2777,1.2452,1.2225,1.2094,1.2225,1.2826,1.3841,1.4082,1.4102,1.3913,1.3988,1.3248,1.2068,1.2037,1.1923,1.1781,1.1781,1.1781,1.1818,1.215,1.1781,1.1186,1.1892,1.1855,1.1502,1.1713,1.1784,1.1732,1.1446,0.0,0.0,0.0,1.122,1.2353,1.5083,1.7237,1.9737,2.439,2.438,2.4002,2.6937,2.7182,2.6973,2.7549,2.9516,3.1125,3.1361,3.1083,3.1001,3.1412,0.0,0.0,0.0,0.0,0.0,0.0,0.0,0.0,0.0,0.0,0.0,0.0,0.0,2.7529,2.7201,2.719,2.719,2.719,2.719,2.719,2.719,2.719,2.719,2.719,2.719,2.719,2.719,2.719,2.719,2.7179,2.6921,2.6582,2.6132,2.5293,2.49,2.4827,2.4827,2.4693,2.4498,2.4595,2.4296,2.3877,0.0,0.0,0.0,0.0,0.0,0.0,0.0,0.0,0.0,0.0,0.0,0.0,0.0,0.0,0.0,0.0,0.0,0.0,0.0,0.0,0.0,1.2663,1.2418,1.2405,1.2663,1.2418,1.2198,1.2013,1.2198,1.2839,1.384,1.4616,1.4923,1.4767,1.4778,1.4157,1.3014,1.2968,1.2694,1.2344,1.2423,1.2364,1.2232,1.2232,1.1896,1.1396,1.1769,1.1558,1.1111,1.1558,1.1706,1.1675,1.1465,1.1257,0.0,0.0,0.0,1.1169,1.5098,1.5945,1.6971,2.2172,2.2291,2.1771,2.4386,2.5247,2.5383,2.5264,2.6559,2.8051,2.9165,2.9587,3.0061,3.0868,0.0,0.0,0.0,0.0,0.0,0.0,0.0,0.0,0.0,0.0,0.0,0.0,0.0,2.7759,2.7213,2.719,2.719,2.719,2.719,2.719,2.719,2.719,2.719,2.719,2.719,2.719,2.719,2.719,2.719,2.7167,2.6829,2.6657,2.6582,2.5485,2.5271,2.5613,2.5613,2.5463,2.5221,2.5663,2.5411,2.4829,0.0,0.0,0.0,0.0,0.0,0.0,0.0,0.0,0.0,0.0,0.0,0.0,0.9372,1.0228,1.087,1.1335,0.0,0.0,0.0,0.0,0.0,1.2325,1.2311,0.0,1.2325,1.2311,1.2291,1.2278,1.2291,1.3046,1.4482,1.481,1.5159,1.5461,1.5398,1.4729,1.3652,1.3398,1.2949,1.25,1.276,1.255,1.2126,1.2126,1.2088,1.2011,1.1808,1.1706,1.1669,1.1706,1.1706,1.1706,1.1687,1.1533,1.1385,0.0,0.0,0.0,1.2614,1.3896,1.5118,1.6975,1.8816,2.0263,2.0536,2.1925,2.3182,2.3547,2.4362,2.5179,2.584,2.7902,2.9836,3.0821,0.0,0.0,0.0,0.0,0.0,0.0,0.0,0.0,0.0,0.0,0.0,0.0,0.0,2.7759,2.7213,2.719,2.719,2.719,2.719,2.719,2.719,2.719,2.719,2.719,2.719,2.719,2.719,2.719,2.719,2.719,2.7156,2.7144,2.7144,2.708,2.708,2.7103,2.7103,2.7085,2.6974,2.6133,2.5777,2.5746,0.0,0.0,0.0,0.0,0.0,0.0,0.0,0.0,0.0,0.0,0.0,0.0,0.0,1.1019,1.1508,1.1409,1.2187,0.0,0.0,0.0,0.0,1.2305,1.2305,1.2305,1.2305,1.2305,1.2305,1.2305,1.2305,1.2772,1.3694,1.4175,1.4572,1.4888,1.5491,1.4916,1.3454,1.3558,1.3057,1.2235,1.2908,1.2719,1.2132,1.2303,1.2441,1.2517,1.179,1.1714,1.1964,1.1452,1.1298,1.1298,1.1298,1.126,1.1187,1.0985,1.0646,1.0662,1.2264,1.2044,1.2157,1.5675,1.6027,1.6195,1.858,2.0209,2.1253,2.1363,2.2994,2.4458,2.4659,2.6506,2.8353,2.936,0.0,0.0,0.0,0.0,0.0,0.0,0.0,0.0,0.0,0.0,0.0,0.0,0.0,0.0,2.7201,2.699,2.6996,2.7179,2.719,2.719,2.719,2.719,2.719,2.719,2.719,2.719,2.719,2.719,2.719,2.719,2.719,2.7047,2.6714,2.6393,2.645,2.6737,2.6737,2.6932,2.7149,2.6839,2.6704,2.6704,0.0,0.0,0.0,0.0,0.0,0.0,0.0,0.0,0.0,0.9586,0.0,0.0,0.0,0.0,1.1996,1.1959,1.2377,1.256,1.2305,1.2305,1.2305,1.2305,1.2305,1.2305,1.2305,1.2305,1.2305,1.2305,1.2305,1.2559,1.3066,1.3561,1.3864,1.4018,1.4797,1.4688,1.4012,1.4142,1.3671,1.2815,1.3197,1.2988,1.2441,1.2522,1.2659,1.2746,1.2074,1.2022,1.2172,1.1778,1.1528,1.1383,1.1383,1.1256,1.1057,1.0761,1.0563,1.0637,1.1472,1.0741,1.0478,1.3418,1.3487,1.3503,1.6192,1.8345,1.9844,2.0156,2.2217,2.4017,2.4108,2.5522,2.7152,2.8481,0.0,0.0,0.0,0.0,0.0,0.0,0.0,0.0,0.0,0.0,0.0,0.0,0.0,0.0,2.7231,2.6979,2.6984,2.7179,2.719,2.719,2.719,2.719,2.719,2.719,2.719,2.719,2.719,2.719,2.719,2.719,2.719,2.7036,2.6691,2.6358,2.6416,2.6726,2.6726,2.6932,2.719,2.719,2.719,2.719,0.0,0.0,0.0,0.0,0.0,0.0,0.0,0.0,1.0154,1.0439,0.0,0.0,0.0,0.0,0.0,1.293,1.2885,1.265,1.2331,1.2305,1.2305,1.2305,0.0,0.0,1.2305,1.2305,1.2305,1.2305,1.2305,1.2489,1.2777,1.3039,1.31,1.3013,1.3287,1.4137,1.5344,1.5088,1.4682,1.4174,1.374,1.3363,1.3029,1.2819,1.2723,1.2711,1.2705,1.2542,1.2373,1.262,1.2355,1.192,1.1862,1.1534,1.1063,1.0803,1.0725,1.0575,0.0,0.0,0.0,0.9979,1.1136,1.2515,1.318,1.607,1.8887,1.9961,2.1926,2.3563,2.4073,2.4952,2.6312,2.8294,0.0,0.0,0.0,0.0,0.0,0.0,0.0,0.0,0.0,0.0,0.0,0.0,0.0,2.7725,2.7213,2.719,2.719,2.719,2.719,2.719,2.719,2.719,2.719,2.719,2.719,2.719,2.719,2.719,2.719,2.719,2.719,2.719,2.719,2.719,2.719,2.719,2.719,2.719,2.719,2.719,2.719,2.719,0.0,0.0,0.0,0.0,0.0,0.0,0.0,0.0,1.1196,0.0,0.0,0.0,1.2955,1.2795,1.2662,1.286,1.2589,1.2516,1.265,1.2418,1.2305,1.2305,1.2305,1.2305,1.2305,1.2305,1.2305,1.2305,1.2305,1.2345,1.2425,1.2362,1.2439,1.2655,1.326,1.3687,1.3985,1.4352,1.3716,1.2641,1.4443,1.409,1.2638,1.3536,1.3523,1.2982,1.2777,1.2789,1.288,1.2747,1.2355,1.1814,1.1455,1.1232,1.1099,1.1021,1.0833,1.0653,1.0509,0.0,0.0,0.0,0.0,0.0,1.1719,1.4053,1.6346,1.7059,1.9771,2.2171,2.2534,2.3701,2.502,2.6302,0.0,0.0,0.0,0.0,0.0,0.0,0.0,0.0,0.0,0.0,0.0,0.0,2.7411,2.7088,2.7179,2.719,2.719,2.719,2.719,2.719,2.719,2.719,2.719,2.719,2.719,2.719,2.719,2.719,2.719,2.719,2.719,2.719,2.719,2.719,2.719,2.719,2.719,2.719,2.719,2.719,2.719,2.719,0.0,0.0,0.0,0.0,0.0,0.0,0.0,1.1867,1.2205,0.0,0.0,0.0,1.3325,1.3339,1.3246,1.2998,1.2779,1.2699,1.2777,1.2509,1.2305,1.2305,1.2305,1.2305,1.2305,1.2305,1.2305,1.2305,1.2629,1.2776,1.2673,0.0,1.3043,1.3257,1.3712,1.3631,1.3217,1.42,1.4274,1.3823,1.4442,1.443,1.4075,1.4114,1.3853,1.3441,1.3387,1.3534,1.3705,1.3477,1.2868,1.2233,1.2123,1.1627,1.1191,1.165,1.1328,1.0821,1.0713,1.0575,1.0454,1.0454,0.0,0.0,1.1329,1.3454,1.5508,0.0,1.9073,2.1316,2.1389,2.2071,2.2917,2.367,2.5043,0.0,0.0,0.0,0.0,0.0,0.0,0.0,0.0,0.0,0.0,2.7977,2.7313,2.6979,2.7167,2.719,2.719,2.719,2.719,2.719,2.719,2.719,2.719,2.719,2.719,2.719,2.719,2.719,2.719,2.719,2.719,2.719,2.719,2.719,2.719,2.719,2.7108,2.7056,2.7056,2.7056,2.7056,2.7108,0.0,0.0,0.0,0.0,0.0,0.0,0.0,1.2847,1.307,0.0,1.3063,1.3094,1.322,1.3694,1.3781,1.3253,1.3146,1.3006,1.2797,1.2509,1.2305,1.2305,1.2305,1.2305,1.2305,1.2305,1.2342,1.2415,1.3105,1.3433,1.3375,0.0,0.0,0.0,1.4446,1.3934,1.3105,1.4464,1.5637,1.6393,1.4414,1.4862,1.6472,1.4926,1.4272,1.422,1.4332,1.4502,1.4676,1.4372,1.371,1.3028,1.3389,1.2456,1.1469,1.2362,1.1909,1.1063,1.0864,1.0761,1.0725,1.0725,1.0568,0.0,1.1497,1.3433,1.5344,0.0,1.8731,2.0452,2.0189,2.0263,2.0493,2.0808,2.1978,0.0,0.0,0.0,0.0,0.0,0.0,0.0,0.0,2.8632,2.8046,2.7989,2.7518,2.719,2.719,2.719,2.719,2.719,2.719,2.719,2.719,2.719,2.719,2.719,2.719,2.719,2.719,2.719,2.719,2.719,2.7121,2.7133,2.7179,2.7121,2.7133,2.719,2.7015,2.6933,2.6891,2.6933,2.6903,2.6891,0.0,0.0,0.0,0.0,0.0,0.0,0.0,1.3389,1.3568,1.3568,1.3739,1.3786,1.3547,1.3413,1.3333,1.322,1.2766,1.2559,1.277,1.2509,1.2305,1.2305,1.2305,1.2305,1.2305,1.2305,1.2526,0.0,0.0,0.0,0.0,0.0,0.0,1.4807,1.5271,1.5057,1.4291,1.4908,1.5836,1.6921,1.6903,1.7165,1.7585,1.7324,1.669,1.5911,1.5209,1.4845,1.4659,1.4401,1.4417,1.4421,0.0,0.0,0.0,1.239,1.1758,1.1174,1.1421,1.1255,1.1033,0.0,1.0949,0.0,1.1104,1.1905,1.2847,0.0,1.5653,1.7264,1.7948,1.8865,1.9527,1.9507,1.9813,0.0,0.0,0.0,0.0,0.0,0.0,0.0,0.0,2.893,2.8402,2.8012,2.7518,2.719,2.719,2.719,2.719,2.719,2.719,2.719,2.719,2.719,2.719,2.719,2.719,2.719,2.719,2.719,2.719,2.7167,2.6795,2.6852,2.7156,2.6783,2.6852,2.719,2.7149,2.7056,2.6933,2.7067,2.6944,2.6685,0.0,0.0,0.0,0.0,0.0,0.0,0.0,0.0,1.3695,1.3695,1.3913,1.3921,1.3433,1.3387,1.3367,1.3227,1.2933,1.2819,1.3005,1.2839,1.2619,1.2318,1.2445,1.2675,1.2886,1.2783,0.0,0.0,0.0,0.0,0.0,0.0,0.0,1.6368,1.6555,1.6157,1.5323,1.5834,1.6525,1.7293,1.7221,1.773,1.85,1.8387,1.8033,1.7462,1.6535,1.5772,1.5184,1.495,1.4928,0.0,1.4465,1.3574,1.2758,0.0,1.2228,1.1484,0.0,0.0,0.0,1.1409,0.0,0.0,0.0,1.215,1.2985,1.3513,1.4684,1.5614,1.5679,1.6356,1.6944,1.7083,1.7676,1.8683,0.0,0.0,0.0,0.0,0.0,0.0,0.0,2.8589,2.839,2.7667,2.7328,2.719,2.719,2.719,2.719,2.719,2.719,2.719,2.719,2.719,2.719,2.719,2.719,2.719,2.719,2.719,2.719,2.7179,2.6955,2.6852,2.6852,2.6852,2.6852,2.6835,2.6883,2.685,2.6768,2.6685,2.6561,2.6437,1.3326,1.3707,0.0,0.0,0.0,0.0,0.0,0.0,1.3737,1.3779,1.4001,1.4092,1.3946,1.377,1.3783,1.3994,1.3808,1.3625,1.3373,1.3592,1.3345,1.2567,1.2872,1.3266,1.3667,1.3608,1.4116,0.0,0.0,0.0,0.0,0.0,0.0,1.7967,1.7796,1.7325,1.666,1.7171,1.7631,1.8055,1.7749,1.8319,1.9388,1.9321,1.9154,1.892,1.8018,1.7203,1.6418,1.5918,1.5628,1.5531,1.5413,1.4242,0.0,0.0,0.0,0.0,0.0,0.0,0.0,0.0,0.0,1.1834,0.0,0.0,0.0,1.3448,1.4091,1.4431,1.3635,0.0,0.0,0.0,0.0,0.0,0.0,0.0,0.0,0.0,0.0,0.0,0.0,2.7527,2.7809,2.7236,2.719,2.719,2.719,2.719,2.719,2.719,2.719,2.719,2.719,2.719,2.719,2.719,2.719,2.719,2.719,2.719,2.719,2.7179,2.7087,2.6898,2.6674,2.6955,2.6898,2.6657,2.6651,2.6644,2.6561,2.6354,2.6229,2.6199,1.4462,1.4392,1.4296,0.0,0.0,0.0,0.0,0.0,1.3779,1.3997,1.4266,1.5007,1.6385,1.5071,1.4836,1.6751,1.6031,1.5076,1.4052,1.4958,1.486,1.3445,1.3811,1.4156,1.438,1.476,1.548,0.0,0.0,0.0,0.0,0.0,0.0,1.8527,1.8479,1.8637,1.8914,1.8986,1.9285,1.9808,2.0871,2.0936,0.0,2.1099,2.0896,2.0107,1.949,1.9177,1.8843,0.0,1.7159,1.7246,0.0,1.4534,1.3634,1.4227,0.0,0.0,0.0,0.0,0.0,0.0,1.2114,0.0,0.0,0.0,1.2345,1.1941,0.0,1.2899,1.209,0.0,0.0,0.0,0.0,0.0,1.5689,0.0,0.0,0.0,0.0,0.0,0.0,0.0,2.6192,2.7115,2.719,2.719,2.719,2.719,2.719,2.719,2.719,2.719,2.719,2.719,2.719,2.719,2.719,2.719,2.719,2.719,2.719,2.7167,2.6749,2.6783,2.7075,2.6714,2.6783,2.711,2.691,2.6768,2.6603,2.6561,2.6271,2.5948,1.4219,1.4427,1.4448,0.0,0.0,0.0,0.0,0.0,1.4538,1.4671,1.4782,1.5433,1.6962,1.6287,1.6531,1.8443,1.8218,1.7631,1.6869,1.676,1.6402,1.5622,1.5003,1.5176,1.6283,1.6158,1.6703,0.0,1.8193,0.0,0.0,0.0,0.0,0.0,1.8319,1.8582,1.9151,1.9251,1.9701,2.0401,2.0927,2.0938,0.0,2.2002,2.1933,2.1069,2.0351,1.999,1.9582,0.0,1.7826,0.0,0.0,0.0,0.0,1.6151,0.0,0.0,0.0,0.0,0.0,0.0,0.0,0.0,1.3608,0.0,1.2228,0.0,0.0,0.0,0.0,0.0,0.0,0.0,1.321,0.0,0.0,0.0,1.6259,0.0,0.0,0.0,0.0,0.0,0.0,0.0,0.0,2.5705,2.5705,2.6644,2.719,2.719,2.719,2.719,2.719,2.719,2.719,2.719,2.719,2.719,2.719,2.719,2.719,2.7179,2.7001,2.6864,2.6795,2.6754,2.6639,2.6553,2.6491,2.652,2.6517,2.5991,2.5903,2.6074,1.4504,1.4565,1.4423,1.4198,0.0,0.0,0.0,0.0,1.5612,1.57,1.5788,1.6385,1.787,1.7513,1.7938,1.9971,2.023,2.0031,1.9373,1.8783,1.8188,1.7599,1.639,1.6404,1.7845,1.7451,0.0,0.0,0.0,0.0,0.0,0.0,0.0,0.0,1.8134,1.8416,1.9097,1.9504,2.0175,2.0987,2.1222,2.1269,2.1387,2.2402,2.2485,2.2013,2.1434,2.112,2.0659,1.8314,1.8729,0.0,1.7682,0.0,1.6876,0.0,0.0,0.0,1.563,0.0,0.0,0.0,0.0,0.0,0.0,0.0,0.0,0.0,0.0,0.0,0.0,0.0,0.0,0.0,0.0,1.3679,0.0,1.4225,0.0,0.0,0.0,0.0,0.0,0.0,0.0,2.2906,2.4,2.4613,2.4613,2.6244,2.719,2.719,2.719,2.719,2.719,2.719,2.719,2.719,2.719,2.719,2.719,2.719,2.719,2.719,2.719,2.6984,2.6623,2.6826,2.6545,2.6034,2.601,2.6154,2.6285,2.5705,2.5755,2.6199,1.5992,1.5003,1.4185,1.475,1.4691,0.0,0.0,1.5839,1.6877,1.7175,1.7507,1.8335,1.9912,1.8693,1.8818,2.147,2.2125,2.1931,2.0814,2.0944,2.0395,1.8905,1.804,1.7909,1.8545,1.8556,0.0,0.0,0.0,0.0,0.0,0.0,0.0,0.0,1.8159,1.8486,1.9346,2.0214,2.1075,2.1914,2.2734,2.3013,2.2925,0.0,2.2389,2.3047,2.3038,0.0,0.0,2.0878,2.0334,0.0,0.0,0.0,0.0,0.0,0.0,0.0,0.0,0.0,0.0,1.5412,0.0,0.0,0.0,0.0,1.269,0.0,0.0,0.0,0.0,0.0,0.0,1.3325,0.0,0.0,0.0,0.0,0.0,0.0,0.0,0.0,0.0,0.0,0.0,2.2094,2.3671,2.4613,2.4613,2.6244,2.719,2.719,2.719,2.719,2.719,2.719,2.719,2.719,2.719,2.719,2.719,2.719,2.719,2.719,2.719,2.7097,2.6869,2.6891,2.6474,2.5782,2.5602,2.5643,2.586,2.6083,2.6177,2.624,1.7072,1.6258,1.5703,1.6146,1.5918,1.5683,1.568,1.6411,1.7518,1.9099,1.9387,2.0622,2.3721,2.3408,2.3543,2.4737,2.5526,2.5136,2.3289,2.2764,2.229,2.1702,2.0105,1.9447,1.9908,1.9626,0.0,0.0,0.0,0.0,0.0,0.0,0.0,0.0,0.0,1.8643,1.9746,2.0159,2.0825,2.1655,0.0,2.1967,2.1911,0.0,0.0,2.3091,2.3091,2.3091,0.0,2.0845,2.0979,2.1695,1.9883,1.9295,1.9452,2.0759,1.9456,0.0,0.0,0.0,1.8866,1.8236,0.0,0.0,0.0,0.0,0.0,0.0,0.0,0.0,0.0,0.0,1.2727,1.3527,1.3458,0.0,0.0,0.0,0.0,0.0,0.0,0.0,0.0,0.0,0.0,1.901,2.0145,2.0953,0.0,2.3928,2.5502,2.5502,2.661,2.719,2.719,2.719,2.719,2.719,2.719,2.719,2.7179,2.6875,2.6726,2.6726,2.6726,2.6594,2.6404,2.6621,2.6461,2.6068,2.5986,2.5986,2.6057,2.5809,2.6117,2.6644,1.8029,1.7544,1.7214,1.735,1.6858,1.657,1.697,1.7773,1.9128,2.1482,2.1761,2.279,2.561,2.5661,2.5684,2.6097,2.6674,2.6387,2.498,2.3825,2.3229,2.3335,2.1472,2.07,2.125,0.0,0.0,0.0,0.0,1.9219,0.0,0.0,0.0,0.0,0.0,1.8467,1.926,1.9908,2.0523,0.0,0.0,2.1558,0.0,0.0,2.2655,2.2828,0.0,2.2828,2.2654,2.1272,2.1587,2.2303,2.0873,2.058,2.0914,2.1885,2.0764,1.9428,2.0359,2.0512,0.0,1.9727,1.8734,0.0,1.6887,0.0,0.0,0.0,0.0,0.0,0.0,0.0,0.0,1.3323,1.3352,1.3557,0.0,1.4112,0.0,0.0,0.0,0.0,0.0,0.0,1.6991,1.7073,1.8212,1.9092,0.0,0.0,2.4613,2.4613,2.6307,2.719,2.719,2.719,2.719,2.719,2.719,2.719,2.7167,2.6703,2.6501,2.6501,2.6239,2.6052,2.5983,2.6158,2.6099,2.5986,2.6121,2.6213,2.6158,2.6054,2.6374,2.6891,1.8887,1.8794,1.8613,1.8347,1.7614,1.7424,1.8512,1.9868,2.1652,2.4108,2.4489,2.4902,2.5811,2.5577,2.5475,2.5755,2.5772,2.5732,2.5635,2.416,2.3472,0.0,2.2236,2.1668,2.2461,0.0,0.0,0.0,0.0,0.0,0.0,0.0,0.0,0.0,1.8037,1.8037,1.8149,1.9618,2.0264,2.037,2.1188,2.1868,2.2334,2.18,0.0,2.2441,2.2388,2.2397,2.2353,2.2185,2.2097,2.2052,2.1785,2.1874,2.2052,2.1776,2.1874,2.2008,2.1785,2.1687,2.1371,1.9894,0.0,0.0,0.0,0.0,1.7413,0.0,0.0,0.0,0.0,0.0,0.0,1.2902,1.3453,1.4192,0.0,0.0,1.4515,0.0,0.0,0.0,1.5744,1.7055,1.7459,1.6349,1.7773,1.8923,0.0,0.0,0.0,2.4574,2.6124,2.6994,2.719,2.7103,2.7103,2.719,2.719,2.719,2.7167,2.6703,2.649,2.6444,2.5716,2.5549,2.5748,2.5569,2.551,2.5577,2.6052,2.6229,2.6314,2.6762,2.6891,2.6891,2.0255,2.0333,2.0304,1.9592,1.9279,1.9354,1.9979,2.0922,2.2375,2.4648,2.5719,2.6927,2.8404,2.8752,2.8279,2.6821,2.6997,0.0,0.0,0.0,0.0,2.4268,2.3535,2.2793,2.206,2.1611,2.1082,2.0458,0.0,0.0,1.9629,0.0,0.0,0.0,0.0,1.8359,1.9069,2.0401,2.1155,2.1463,2.1729,2.1966,0.0,0.0,2.3234,2.3062,2.2599,2.2397,2.2353,2.2185,2.2097,2.2052,2.1785,2.1741,2.183,2.1963,2.1919,2.183,2.1963,2.1874,2.1596,2.121,2.0261,1.922,0.0,0.0,0.0,0.0,0.0,0.0,0.0,0.0,0.0,1.5335,1.4772,1.4436,0.0,0.0,0.0,1.4909,0.0,0.0,1.4845,1.546,1.5744,1.5432,1.5821,1.6939,0.0,0.0,0.0,2.4519,2.353,2.4349,2.7179,2.5811,2.5811,2.719,2.719,2.719,2.7167,2.6703,2.6255,2.5899,2.5529,2.5345,2.5234,2.5585,2.5843,2.6063,2.6558,2.6812,2.6966,2.7092,2.7108,2.7067,2.041,2.0332,2.0283,1.9933,2.0391,2.0986,2.1652,2.2161,0.0,2.5615,2.6553,0.0,2.8667,2.9111,2.8809,2.7422,2.665,0.0,2.5001,0.0,0.0,2.4414,2.4014,2.3369,2.2513,2.208,0.0,2.1051,0.0,0.0,1.9993,0.0,0.0,0.0,0.0,1.8039,1.8631,2.0359,2.1402,2.194,2.2533,0.0,0.0,2.3862,2.4082,2.4104,2.3737,2.294,2.2087,2.1963,2.1919,2.1919,2.1741,2.1696,2.1741,2.1874,2.183,2.1731,2.1874,2.183,2.1696,2.1696,2.1031,2.0374,2.0186,1.9665,1.9202,0.0,0.0,0.0,0.0,0.0,0.0,1.5453,0.0,0.0,0.0,0.0,0.0,0.0,1.5267,0.0,1.4579,1.4717,1.4909,1.5093,1.5258,0.0,0.0,0.0,0.0,2.2336,2.2843,2.3713,2.4964,2.4111,2.4476,2.605,2.5981,2.6379,2.7167,2.6611,2.6171,2.5858,2.5446,2.5312,2.5368,2.5579,2.5991,2.652,2.6891,2.7108,2.719,2.719,2.7149,2.7015,2.0019,1.9619,1.9521,2.0,2.1084,2.2236,0.0,2.3501,0.0,2.6553,0.0,2.7217,2.7549,2.7959,2.8018,2.7591,2.5713,2.4893,2.5605,2.4189,2.3652,2.4385,2.4014,2.3594,2.3218,2.2432,2.2185,0.0,0.0,0.0,0.0,0.0,0.0,0.0,1.7808,1.7929,1.8428,2.0302,2.1539,2.237,2.3638,2.4459,2.487,2.4766,2.4965,2.5336,2.5336,2.3932,2.2157,2.2157,2.2157,2.2122,2.1945,2.1909,2.19,2.1731,2.1696,2.1696,2.1696,2.1696,2.1696,2.1696,2.1696,2.1696,2.1696,2.1696,2.1696,2.1696,2.1696,0.0,0.0,0.0,0.0,0.0,0.0,0.0,0.0,0.0,0.0,0.0,0.0,0.0,0.0,0.0,1.4708,1.5001,1.534,0.0,0.0,0.0,0.0,0.0,2.2766,0.0,2.2438,0.0,2.3399,2.4891,2.4541,2.5322,2.7085,2.6455,2.6126,2.6046,2.5431,2.5419,2.5782,2.5661,2.6113,2.6974,2.7149,2.719,2.719,2.7231,2.7097,2.685,2.0213,1.9853,2.0059,2.082,2.1494,2.2529,2.4489,2.5049,2.5401,2.5849,2.6885,2.7441,2.7158,2.7519,2.7513,2.668,2.5937,0.0,0.0,0.0,0.0,2.4414,2.4014,2.3584,2.311,2.2955,2.3113,0.0,0.0,0.0,0.0,0.0,0.0,0.0,1.8596,2.008,2.2586,2.1865,0.0,2.4223,2.5178,2.54,2.5363,2.6908,2.7082,2.6513,2.6513,2.563,2.4489,2.4489,2.4489,2.4318,2.3391,2.3096,2.2921,2.1989,2.1696,2.1696,2.1696,2.1696,2.1696,2.1696,2.1696,2.1696,2.1696,2.1696,2.1696,2.1696,2.1696,2.1578,2.1271,0.0,0.0,0.0,0.0,0.0,0.0,0.0,0.0,0.0,0.0,1.5661,0.0,0.0,0.0,0.0,0.0,0.0,0.0,0.0,0.0,0.0,0.0,0.0,0.0,0.0,0.0,2.6486,2.5329,2.548,2.6685,2.6584,2.6285,2.5851,2.5732,2.5704,2.5822,2.5983,2.6519,2.7149,2.719,2.719,2.7231,2.7412,2.7208,2.685,2.1224,2.0272,1.9863,2.0732,2.1435,0.0,0.0,2.4972,2.5771,2.6045,2.6416,2.6494,2.6055,2.6602,2.6748,2.6103,2.5234,2.4824,2.5106,2.4248,2.3867,2.4082,2.3896,2.3486,2.2779,2.2984,2.3235,2.3501,0.0,0.0,0.0,0.0,0.0,1.8763,0.0,2.0726,0.0,0.0,0.0,2.473,2.632,2.6823,2.6769,2.7909,2.8087,2.7661,2.7661,2.7273,2.6524,2.5336,2.4882,2.4681,2.4135,2.3963,2.3877,2.3323,2.3159,2.3028,2.2545,2.2413,2.229,2.182,2.1696,2.1696,2.1696,2.1696,2.1696,2.1696,2.1696,2.1568,2.1138,2.0145,0.0,0.0,0.0,0.0,0.0,0.0,1.678,0.0,0.0,0.0,0.0,0.0,0.0,0.0,0.0,0.0,0.0,0.0,0.0,0.0,0.0,0.0,0.0,0.0,0.0,2.5374,2.4586,2.506,2.6603,2.6437,2.6273,2.601,2.6162,2.6203,2.6244,2.6569,2.692,2.719,2.7108,2.7056,2.7056,2.7278,2.6992,2.6561,2.2727,2.1507,2.0614,2.1214,2.1771,0.0,2.3481,2.4635,2.5616,2.6191,2.5947,2.5605,2.5244,2.5752,2.5928,2.545,2.4521,2.4131,2.4619,2.3799,2.3354,2.3643,2.3608,2.3374,2.287,2.3175,2.3521,0.0,0.0,0.0,0.0,0.0,0.0,0.0,0.0,0.0,0.0,0.0,2.4954,2.5289,2.7088,2.7841,2.7933,2.8311,2.8471,2.851,2.851,2.8339,2.7846,2.6058,2.5358,2.5179,2.4925,2.4882,2.4797,2.4584,2.4498,2.4317,2.3584,2.34,2.3193,2.2378,2.2167,2.2078,2.1909,2.1865,2.182,2.1741,2.1696,2.1495,2.0854,2.0342,0.0,0.0,0.0,0.0,0.0,0.0,0.0,0.0,0.0,0.0,1.6321,0.0,0.0,0.0,0.0,0.0,0.0,0.0,0.0,0.0,0.0,0.0,2.1395,0.0,2.286,0.0,2.3966,2.4697,2.6437,2.6229,2.6157,2.6199,2.6479,2.6644,2.6768,2.7067,2.719,2.7108,2.6974,2.6933,2.7003,2.7196,2.6869,2.6396,2.4701,2.4335,0.0,0.0,0.0,0.0,2.5205,2.4852,2.4727,2.5645,2.5713,2.5674,2.5635,2.5391,2.5019,2.458,2.4424,2.4062,2.3325,2.3351,2.3351,2.3276,2.3037,2.3242,2.4018,2.4102,2.4691,0.0,0.0,2.3346,0.0,0.0,0.0,0.0,0.0,0.0,0.0,2.5585,2.6114,2.7,2.7366,2.7696,2.7921,2.8139,2.8339,2.851,2.851,2.8231,2.7881,2.7667,2.7586,2.7412,2.6362,2.606,2.5852,2.4787,2.4498,2.4498,2.4402,2.436,2.4241,2.3714,2.3584,2.3367,2.252,2.2353,2.222,2.1776,2.1696,2.1668,2.1595,2.0946,2.0191,0.0,0.0,0.0,0.0,0.0,1.7348,1.6954,0.0,0.0,0.0,1.5102,0.0,0.0,0.0,0.0,0.0,0.0,0.0,1.8807,0.0,2.0121,2.1392,2.1978,0.0,2.5972,2.4719,2.4783,2.5979,2.5937,2.6021,2.6199,2.6479,2.6809,2.7149,2.719,2.7097,2.6933,2.6903,2.7003,2.7185,2.7389,2.7196,2.685,0.0,0.0,0.0,0.0,0.0,0.0,0.0,2.7218,2.7289,2.704,2.6253,2.5932,2.6525,2.6228,2.5879,2.5659,2.5382,2.5074,2.4759,2.4569,2.4446,2.4401,2.4305,2.4433,2.4807,2.4807,2.5263,0.0,0.0,0.0,0.0,0.0,0.0,0.0,0.0,2.5287,2.6031,2.6449,2.6823,2.7231,2.74,2.7655,2.7921,2.8099,2.8299,2.851,2.851,2.8311,2.807,2.7921,2.7719,2.7394,2.6921,2.7003,2.7126,2.6652,2.6723,2.6794,2.6213,2.6047,2.587,2.5147,2.4935,2.4851,2.4469,2.4383,2.4341,2.4127,2.3448,2.2648,2.1865,2.1431,2.0946,0.0,0.0,0.0,0.0,0.0,0.0,1.8676,0.0,1.774,0.0,0.0,0.0,0.0,0.0,0.0,0.0,0.0,0.0,1.9855,0.0,2.2443,2.4253,2.4476,2.5191,2.6373,2.6121,2.6255,2.6663,2.6663,2.6787,2.7003,2.7074,2.733,2.7598,2.7598,2.7557,2.7476,2.733,2.7319,2.7389,2.7655,2.7452,2.7115,2.9009,0.0,2.6858,0.0,2.7023,2.7119,2.7626,2.8233,2.851,2.7988,2.6952,2.6484,2.695,2.6568,2.6239,2.6145,2.5827,2.5508,2.5275,2.5126,2.5041,2.4998,2.5031,0.0,2.5485,2.5485,2.5821,2.6487,2.4967,0.0,0.0,0.0,0.0,0.0,2.5973,2.6359,2.6406,2.6973,2.719,2.7231,2.733,2.7574,2.7788,2.803,2.8231,2.8431,2.8471,2.8351,2.8111,2.7962,2.7679,2.7394,2.7394,2.7638,2.7921,2.8042,2.8283,2.8379,2.7678,2.7493,2.7331,2.6521,2.6303,2.6262,2.5961,2.592,2.5878,2.5742,2.4946,2.3988,2.3033,2.2867,2.263,2.1809,0.0,0.0,0.0,0.0,0.0,0.0,1.907,1.863,1.9425,1.7464,0.0,0.0,0.0,0.0,0.0,0.0,0.0,0.0,0.0,0.0,0.0,0.0,2.5864,2.6734,2.7062,2.7185,2.7185,2.7267,2.7348,2.7522,2.7563,2.7748,2.7893,2.7893,2.7841,2.7748,2.7563,2.7563,2.7655,2.7841,2.7708,2.7452,3.0284,2.9942,2.9623,2.8663,2.8036,2.7597,2.7256,2.7117,2.7238,2.7805,2.776,2.737,2.6585,2.608,2.5668,2.5253,2.5211,2.4848,2.3969,2.4492,2.4714,0.0,0.0,2.5253,2.6185,2.6196,2.6539,2.719,0.0,0.0,2.5973,0.0,2.5962,2.602,2.6841,2.7167,2.7167,2.7179,2.719,2.719,2.719,2.7342,2.7522,2.78,2.803,2.8219,2.8431,2.8231,2.7893,2.7893,2.7893,2.7893,2.7893,2.7893,2.7962,2.8391,2.851,2.851,2.8471,2.8471,2.8379,2.7891,2.7758,2.7545,2.6614,2.6397,2.6273,2.5795,2.5701,2.5659,2.5659,2.5659,2.5385,2.4572,0.0,0.0,0.0,0.0,0.0,2.0888,1.9602,1.8957,1.918,0.0,0.0,0.0,0.0,0.0,0.0,0.0,0.0,1.9098,1.8607,0.0,2.2617,2.352,2.5021,2.7185,2.7185,2.7185,2.7226,2.7389,2.7522,2.751,2.7788,2.7893,2.7893,2.7893,2.7748,2.7522,2.7522,2.7655,2.7893,2.7893,2.7893,2.7881,2.9018,2.9636,3.0047,2.8943,2.9258,2.9653,2.9525,2.9789,2.9851,2.9369,2.9268,2.891,2.798,2.7724,2.7603,0.0,2.6996,2.668,0.0,2.6278,2.6183,2.6345,2.6095,2.6116,2.641,2.668,2.692,2.713,0.0,0.0,0.0,2.6394,2.6551,2.6841,2.7082,2.719,2.719,2.719,2.719,2.7231,2.733,2.7534,2.7829,2.8151,2.8351,2.8471,2.8788,2.8736,2.8526,2.8526,2.8526,2.8538,2.8657,2.8709,2.8749,2.8855,2.9143,2.939,2.939,2.939,2.9351,2.9209,2.917,2.9091,2.8791,2.87,2.8398,2.7337,2.7122,2.6837,2.5867,2.5701,2.5437,2.4623,0.0,0.0,0.0,0.0,0.0,0.0,2.0169,1.9819,0.0,2.0341,0.0,0.0,0.0,0.0,0.0,0.0,0.0,0.0,2.3583,0.0,2.5933,2.6154,2.6737,2.7667,2.7938,2.8099,2.8099,2.8139,2.8179,2.8179,2.8271,2.8323,2.8323,2.8323,2.8271,2.8179,2.8179,2.8231,2.8323,2.8323,2.8323,2.8323,2.9026,2.9578,3.008,2.9377,2.9842,3.027,3.0083,3.0471,3.0515,2.9808,2.9814,2.9695,2.9074,2.8986,0.0,2.851,2.8079,2.7913,2.8099,2.7643,2.7477,2.7696,2.7392,2.7268,2.7268,0.0,0.0,2.7652,2.7669,2.7551,2.732,2.732,2.7443,2.7708,2.7708,2.7708,2.7708,2.7708,2.7708,2.7708,2.7817,2.799,2.8163,2.8391,2.855,2.8657,2.8895,2.8922,2.8791,2.8791,2.8843,2.8922,2.9052,2.9209,2.9378,2.9378,2.9585,2.9792,2.9792,2.9792,2.9792,2.9792,2.9792,2.9792,2.9792,2.9792,2.9573,2.8727,2.8557,2.8267,2.7389,2.7256,2.7088,2.6569,0.0,2.7076,2.6558,0.0,0.0,0.0,0.0,0.0,0.0,2.2578,0.0,0.0,0.0,0.0,0.0,0.0,0.0,2.3686,2.5085,0.0,2.7088,2.7297,2.7628,2.8122,2.8391,2.851,2.851,2.851,2.851,2.851,2.851,2.851,2.851,2.851,2.851,2.851,2.851,2.851,2.851,2.851,2.851,2.851,2.9779,2.9679,0.0,0.0,2.9741,0.0,2.9314,2.9555,2.9668,2.9302,2.9567,2.9792,2.9792,2.9792,2.9468,2.8669,0.0,0.0,0.0,2.8474,2.8474,2.851,2.8474,0.0,2.845,2.849,2.8514,2.859,2.859,2.859,2.855,2.855,2.851,2.851,2.851,2.851,2.851,2.851,2.851,2.851,2.851,2.851,2.851,2.855,2.8657,2.8843,2.8882,2.8882,2.8831,2.887,2.9,2.9131,2.9131,2.9456,2.9792,2.9792,2.9792,2.9792,2.9792,2.9792,2.9792,2.9792,2.9792,2.9792,2.9792,2.9792,2.9792,2.9792,2.9792,2.9792,2.9792,2.9792,2.9792,2.9792,2.9792,2.9754,2.9628,0.0,0.0,0.0,0.0,0.0,0.0,2.4705,2.4436,0.0,0.0,0.0,0.0,0.0,2.0437,2.3035,2.4015,2.5154,2.6541,2.7153,2.7821,2.851,2.851,2.851,2.851,2.851,2.851,2.851,2.851,2.851,2.851,2.851,2.851,2.851,2.851,2.851,2.851,2.851,2.851,2.851,0.0,0.0,2.9528,2.8649,2.9214,2.978,2.968,2.9742,2.978,2.968,2.9742,2.9792,2.9792,2.9792,2.9714,2.9507,2.8968,2.8739,2.8949,2.8426,2.8222,2.8486,2.8102,2.7873,2.7873,2.8234,2.8764,2.9468,2.9468,2.9312,2.8973,2.8973,2.8776,2.851,2.851,2.851,2.851,2.851,2.851,2.851,2.8657,2.8724,2.8764,2.9079,2.9118,2.9091,2.9417,2.9443,2.9302,2.9495,2.9585,2.9624,2.9624,2.9702,2.9792,2.9792,2.9792,2.9792,2.9792,2.9792,2.9792,2.9792,2.9792,2.9792,2.9792,2.9792,2.9792,2.9792,2.9792,2.9792,2.9792,2.9792,2.9792,2.9792,2.9611,2.9111,2.8047,2.6651,0.0,0.0,2.4294,2.4655,2.4963,2.6514,2.6875,0.0,0.0,0.0,0.0,0.0,2.5013,2.7064,2.736,2.7628,2.8008,2.8179,2.8338,2.851,2.851,2.851,2.851,2.851,2.851,2.851,2.851,2.851,2.851,2.851,2.851,2.851,2.851,2.851,2.851,2.851,2.851,2.851,2.8246,2.8963,2.9591,2.8988,2.939,2.9792,2.9792,2.9792,2.9792,2.9792,2.9792,2.9792,2.9792,2.9792,2.9792,2.9792,2.9426,2.9261,2.9404,2.9066,2.8913,2.9104,2.8821,2.8649,2.8649,2.8893,2.9286,2.9792,2.9792,2.9663,2.9417,2.9417,2.93,2.9104,2.9104,2.9104,2.9104,2.9104,2.9104,2.9104,2.9209,2.9248,2.9248,2.9353,2.9392,2.9429,2.9573,2.9599,2.9611,2.974,2.9792,2.9792,2.9792,2.9792,2.9792,2.9792,2.9792,2.9792,2.9792,2.9792,2.9792,2.9792,2.9792,2.9792,2.9792,2.9792,2.9792,2.9792,2.9792,2.9792,2.9792,2.9702,2.9611,2.9611,2.8898,2.8052,2.7276,2.5893,0.0,2.4819,2.5278,2.5863,2.6544,2.7758,2.8071,2.7067,0.0,0.0,2.6971,2.6504,2.6926,2.8462,2.851,2.851,2.851,2.851,2.851,2.851,2.851,2.851,2.851,2.851,2.851,2.851,2.851,2.851,2.851,2.851,2.851,2.851,2.851,2.851,2.851,2.851,2.851,2.851,2.988,2.9792,2.9792,2.9792,2.9792,2.9792,2.9792,2.9792,2.9792,2.9792,2.9792,2.9792,2.9792,2.9792,2.9792,2.9792,2.9792,2.9792,2.9792,2.9792,2.9792,2.9792,2.9792,2.9792,2.9792,2.9792,2.9792,2.9792,2.9792,2.9792,2.9792,2.9792,2.9792,2.9792,2.9792,2.9792,2.9792,2.9792,2.9792,2.9792,2.9792,2.9792,2.9792,2.956,2.9599,2.9792,2.956,2.9611,2.9792,2.9792,2.9792,2.9792,2.9792,2.9792,2.9792,2.9792,2.9792,2.9792,2.9792,2.9792,2.9753,2.9792,2.9753,2.9714,2.974,2.9702,2.9675,2.9675,2.9675,2.9675,2.9675,2.9521,2.933,2.9169,2.799,2.6986,2.6762,0.0,2.5327,2.649,2.6639,2.7132,2.8378,2.851,2.851,2.851,2.7642,0.0,0.0,2.7618,2.7546,2.8474,2.851,2.851,2.851,2.851,2.851,2.851,2.851,2.851,2.851,2.851,2.851,2.851,2.851,2.851,2.851,2.851,2.851,2.851,2.851,2.851,2.851,2.851,2.851,2.851,2.9817,2.9792,2.9792,2.9792,2.9792,2.9792,2.9792,2.9792,2.9792,2.9792,2.9792,2.9792,2.9792,2.9792,2.9792,2.9792,2.9792,2.9792,2.9792,2.9792,2.9792,2.9792,2.9792,2.9792,2.9792,2.9792,2.9792,2.9792,2.9792,2.9792,2.9792,2.9792,2.9792,2.9792,2.9792,2.9792,2.9792,2.9792,2.9792,2.9792,2.9792,2.9792,2.9792,2.974,2.9753,2.9792,2.974,2.9753,2.9792,2.9792,2.9792,2.9792,2.9792,2.9792,2.9792,2.9792,2.9792,2.9792,2.9792,2.965,2.9509,2.974,2.9507,2.9248,2.9431,2.9326,2.9209,2.9209,2.9209,2.9209,2.9209,2.917,2.8913,2.8164,2.7718,2.6991,2.5747,0.0,2.6664,2.6408,2.7434,2.8234,2.8486,2.851,2.851,2.851,2.8366,2.833,2.8498,2.8354,2.8342,2.8498,2.851,2.851,2.851,2.851,2.851,2.851,2.851,2.851,2.851,2.851,2.851,2.851,2.851,2.851,2.851,2.851,2.851,2.851,2.851,2.851,2.851,2.851,2.851,2.851,2.9792,2.9792,2.9792,2.9792,2.9792,2.9792,2.9792,2.9792,2.9792,2.9792,2.9792,2.9792,2.9792,2.9792,2.9792,2.9792,2.9792,2.9792,2.9792,2.9792,2.9792,2.9792,2.9792,2.9792,2.9792,2.9792,2.9792,2.9792,2.9792,2.9792,2.9792,2.9792,2.9792,2.9792,2.9792,2.9792,2.9792,2.9792,2.9792,2.9792,2.9792,2.9792,2.9792,2.9792,2.9792,2.9792,2.9792,2.9792,2.9792,2.9792,2.9702,2.9611,2.974,2.9702,2.9599,2.9753,2.9702,2.956,2.956,2.9404,2.9287,2.9378,2.926,2.9131,2.9236,2.917,2.9091,2.9091,2.9091,2.9091,2.9091,2.9013,2.8802,2.839,2.7506,0.0,0.0,2.6323,2.659,2.6336,2.7613,2.851,2.851,2.851,2.851,2.851,2.851,2.851,2.851,2.851,2.851,2.851,2.851,2.851,2.851,2.851,2.851,2.851,2.851,2.851,2.851,2.851,2.851,2.851,2.851,2.851,2.851,2.851,2.851,2.851,2.851,2.851,2.851,2.851,2.851,2.851,2.9792,2.9792,2.9792,2.9792,2.9792,2.9792,2.9792,2.9792,2.9792,2.9792,2.9792,2.9792,2.9792,2.9792,2.9792,2.9792,2.9792,2.9792,2.9792,2.9792,2.9792,2.9792,2.9792,2.9792,2.9792,2.9792,2.9792,2.9792,2.9792,2.9792,2.9792,2.9792,2.9792,2.9792,2.9792,2.9792,2.9792,2.9792,2.9792,2.983,3.0011,3.0075,3.0075,3.0254,3.0292,3.0254,3.0254,3.0113,2.9934,2.9934,2.9677,2.938,2.9611,2.956,2.9419,2.965,2.9482,2.9263,2.9302,2.9197,2.9052,2.9091,2.9013,2.8973,2.9013,2.9013,2.8973,2.8973,2.8973,2.8973,2.8973,2.8843,2.8639,2.8475,0.0,0.0,0.0,2.6493,2.659,2.6795,2.7804,2.851,2.851,2.851,2.851,2.851,2.851,2.851,2.851,2.851,2.851,2.851,2.851,2.851,2.851,2.851,2.851,2.851,2.851,2.851,2.851,2.851,2.851,2.851,2.851,2.851,2.851,2.851,2.851,2.851,2.851,2.851,2.851,2.851,2.851,2.851,2.9792,2.9792,2.9792,2.9792,2.9792,2.9792,2.9792,2.9792,2.9792,2.9792,2.9792,2.9792,2.9792,2.9792,2.9792,2.9792,2.9792,2.9792,2.9792,2.9792,2.9792,2.9792,2.9792,2.9792,2.9792,2.9792,2.9792,2.9792,2.9792,2.9792,2.9792,2.9792,2.9792,2.9792,2.9792,2.9792,2.9792,2.9792,2.9792,2.9856,3.0545,3.082,3.0895,3.1636,3.1796,3.1649,3.1649,3.1057,3.0254,3.0254,2.9767,2.917,2.9353,2.9419,2.9419,2.9419,2.9145,2.8882,2.9091,2.8961,2.8882,2.9052,2.8816,2.8578,2.8764,2.8697,2.855,2.855,2.855,2.855,2.855,2.855,2.8264,2.7451,0.0,0.0,2.7112,2.7112,2.7438,2.8261,2.8438,2.851,2.851,2.851,2.851,2.851,2.851,2.851,2.851,2.851,2.851,2.851,2.851,2.851,2.851,2.851,2.851,2.851,2.851,2.851,2.851,2.851,2.851,2.851,2.851,2.851,2.851,2.851,2.851,2.851,2.851,2.851,2.851,2.851,2.851,2.851,2.9792,2.9792,2.9792,2.9792,2.9792,2.9792,2.9792,2.9792,2.9792,2.9792,2.9792,2.9792,2.9792,2.9792,2.9792,2.9792,2.9792,2.9792,2.9792,2.9792,2.9792,2.9792,2.9792,2.9792,2.9792,2.9792,2.9792,2.9792,2.9792,2.9792,2.9792,2.9792,3.0024,3.0444,2.9998,3.033,3.1182,3.0558,3.0558,3.1084,3.1355,3.1378,3.1318,3.1892,3.1905,3.1613,3.1759,3.1466,3.102,3.102,3.0833,3.062,3.0833,3.0796,3.0696,3.0545,3.0393,3.0279,3.0241,2.9445,2.8764,2.9341,2.8961,2.8657,2.9223,2.8922,2.851,2.851,2.851,2.8657,2.9145,2.8843,2.8564,2.8719,0.0,2.7999,2.7999,2.7999,2.8144,2.8462,2.8922,2.925,2.925,2.925,2.925,2.925,2.8764,2.851,2.851,2.8379,2.8391,2.851,2.8283,2.8243,2.851,2.8379,2.8379,2.851,2.851,2.851,2.851,2.851,2.851,2.851,2.851,2.851,2.851,2.851,2.851,2.851,2.851,2.851,2.851,2.851,2.851,2.851,2.9792,2.9792,2.9792,2.9792,2.9792,2.9792,2.9792,2.9792,2.9792,2.9792,2.9792,2.9792,2.9792,2.9792,2.9792,2.9792,2.9792,2.9792,2.9792,2.9792,2.9792,2.9792,2.9792,2.9792,2.9792,2.9792,2.9792,2.9792,2.9792,2.9792,2.9792,2.9792,3.0203,3.0895,3.0381,3.0822,3.1978,3.1267,3.1281,3.1723,3.1978,3.1992,3.1919,3.2461,3.2461,3.2187,3.2331,3.2064,3.1686,3.1686,3.1576,3.1429,3.1576,3.1516,3.1442,3.1553,3.1368,3.1132,3.1267,3.0291,2.9406,2.9922,2.9665,2.9406,2.9961,2.9665,2.925,2.925,2.925,2.9406,2.9961,2.9626,2.9433,2.9999,2.9626,2.925,2.925,2.925,2.925,2.925,2.9742,3.0075,3.0075,3.0075,3.0075,3.0075,2.9549,2.9145,2.8882,2.8498,2.8339,2.8379,2.8151,2.8122,2.8391,2.8259,2.8299,2.851,2.851,2.851,2.851,2.851,2.851,2.851,2.851,2.851,2.851,2.851,2.851,2.851,2.851,2.851,2.851,2.851,2.851,2.851,2.9792,2.9792,2.9792,2.9792,2.9792,2.9792,2.9792,2.9792,2.9792,2.9792,2.9792,2.9792,2.9792,2.9792,2.9792,2.9792,2.9792,2.9792,2.9792,2.9792,2.9792,2.9792,2.9792,2.9792,2.9792,2.9792,2.9792,2.9792,2.9792,2.9792,2.9792,2.9792,3.0216,3.0932,3.0932,3.1267,3.1833,3.1796,3.1686,3.1589,3.2403,3.2704,3.2775,3.3591,3.3793,3.3605,3.3605,3.2966,3.211,3.211,3.1696,3.1217,3.122,3.122,3.1381,3.2151,3.1686,3.1068,3.1892,3.1526,3.0932,3.0932,3.0895,3.0895,3.0932,3.0895,3.0895,3.0895,3.0895,3.0895,3.0932,3.0895,3.0895,3.0932,3.0895,3.0895,3.0895,3.0895,3.0895,3.0895,3.0932,3.0932,3.0932,3.0932,3.0932,3.0932,3.0895,3.0557,2.9742,2.8961,2.8431,2.8219,2.8219,2.8219,2.8219,2.8219,2.8299,2.851,2.851,2.851,2.851,2.851,2.851,2.851,2.851,2.851,2.851,2.851,2.851,2.851,2.851,2.851,2.851,2.851,2.851,2.851,2.9869,2.9792,2.9792,2.9792,2.9792,2.9792,2.9792,2.9792,2.9792,2.9792,2.9792,2.9792,2.9792,2.9792,2.9792,2.9792,2.9792,2.9792,2.9792,2.9792,2.9792,2.9792,2.9792,2.9792,2.9792,2.9792,2.9792,2.9792,2.9792,3.0062,3.0582,3.0582,3.1267,3.2492,3.1819,3.2218,3.336,3.2547,3.2525,3.3002,3.3227,3.3241,3.3157,3.3709,3.3675,3.3396,3.3536,3.3312,3.2931,3.2931,3.2931,3.2881,3.2895,3.286,3.2895,3.3016,3.2824,3.2632,3.286,3.2789,3.2439,3.1892,3.1304,3.1044,3.1599,3.1304,3.0895,3.0895,3.0895,3.1068,3.1636,3.1267,3.1068,3.1636,3.1267,3.0895,3.0895,3.0895,3.0895,3.0895,3.1415,3.1746,3.1746,3.1746,3.1746,3.1746,3.123,3.0745,3.0342,2.9973,2.9484,2.8858,2.8673,2.8486,2.8219,2.8219,2.8299,2.851,2.851,2.851,2.851,2.851,2.851,2.851,2.851,2.851,2.851,2.851,2.851,2.851,2.851,2.851,2.851,2.851,2.851,2.851,3.0126,3.0049,2.9972,2.983,2.9792,2.9792,2.9792,2.9792,2.9792,2.9792,2.9792,2.9792,2.9792,2.9792,2.9792,2.9792,2.9792,2.9792,2.9792,2.9792,2.9792,2.9792,2.9792,2.9792,2.9792,2.9792,2.9921,3.0241,3.0241,3.0633,3.1365,3.1365,3.2024,3.3178,3.2555,3.2938,3.3971,3.3178,3.3122,3.3466,3.3466,3.3396,3.3326,3.357,3.3501,3.3326,3.3431,3.3396,3.329,3.329,3.3396,3.3501,3.357,3.3536,3.3466,3.3361,3.329,3.329,3.329,3.329,3.3171,3.2704,3.2209,3.1992,3.2475,3.2209,3.1846,3.1846,3.1846,3.1992,3.2475,3.2173,3.2028,3.2511,3.2173,3.1846,3.1846,3.1846,3.1846,3.1846,3.2282,3.2583,3.2583,3.2583,3.2583,3.2583,3.1819,3.1304,3.1193,3.0683,3.0203,2.9691,2.9588,2.9394,2.9172,2.9238,2.9015,2.851,2.851,2.851,2.851,2.851,2.851,2.851,2.851,2.851,2.851,2.851,2.851,2.851,2.851,2.851,2.851,2.851,2.851,2.851,3.052,3.0406,3.0292,2.9934,2.983,2.9792,2.9792,2.9792,2.9792,2.9792,2.9792,2.9792,2.9792,2.9792,2.9792,2.9792,2.9792,2.9792,2.9792,2.9792,2.9792,2.9792,2.9792,2.9792,2.9792,2.9792,3.0177,3.0895,3.0895,3.1341,3.2182,3.2182,3.2577,3.3297,3.315,3.3403,3.3882,3.3675,3.3501,3.3326,3.3326,3.3326,3.329,3.329,3.329,3.329,3.329,3.329,3.329,3.329,3.329,3.3326,3.3536,3.3466,3.329,3.329,3.329,3.329,3.329,3.329,3.329,3.329,3.329,3.329,3.329,3.329,3.329,3.329,3.329,3.329,3.329,3.329,3.329,3.329,3.329,3.329,3.329,3.329,3.329,3.329,3.329,3.329,3.329,3.329,3.329,3.329,3.2618,3.2196,3.216,3.1281,3.0758,3.0645,3.0683,3.0645,3.0607,3.0782,3.0139,2.8697,2.8697,2.8697,2.8697,2.8697,2.8697,2.8697,2.8697,2.8657,2.8618,2.8618,2.8538,2.851,2.851,2.851,2.851,2.851,2.851,2.851,3.0936,3.0634,3.0368,3.0292,3.0011,2.9792,2.9792,2.9792,2.9792,2.9792,2.9792,2.9792,2.9792,2.9792,2.9792,2.9792,2.9792,2.9792,2.9792,2.9792,2.9792,2.9792,2.9792,2.9792,2.9792,2.9792,3.0177,3.0895,3.0895,3.1623,3.2967,3.2967,3.3367,3.4113,3.3833,3.3833,3.404,3.3744,3.357,3.3536,3.3536,3.3431,3.329,3.329,3.329,3.329,3.329,3.329,3.329,3.329,3.329,3.3326,3.3361,3.3361,3.329,3.329,3.329,3.329,3.329,3.329,3.329,3.329,3.329,3.329,3.329,3.329,3.329,3.329,3.329,3.329,3.329,3.329,3.329,3.329,3.329,3.329,3.329,3.329,3.329,3.329,3.329,3.329,3.329,3.329,3.329,3.329,3.3122,3.2895,3.2583,3.2354,3.1882,3.1071,3.122,3.1057,3.0607,3.0782,3.0707,3.0367,3.0367,3.0367,3.0367,3.0367,3.0367,3.0367,3.0367,3.0037,2.9445,2.9445,2.9067,2.851,2.851,2.851,2.851,2.851,2.851,2.851,3.1384,3.111,3.0848,3.0482,3.0228,3.0011,2.983,2.9792,2.9792,2.9792,2.9792,2.9792,2.9792,2.9792,2.9792,2.9792,2.9792,2.9792,2.9792,2.9792,2.9972,3.0305,3.0305,3.0495,3.091,3.091,3.1071,3.1489,3.1842,3.2613,3.3776,3.3776,3.4011,3.438,3.4108,3.404,3.4094,3.373,3.3605,3.3605,3.3501,3.3466,3.3431,3.3431,3.3431,3.3431,3.3431,3.3396,3.329,3.329,3.329,3.329,3.329,3.329,3.329,3.329,3.329,3.329,3.329,3.329,3.329,3.329,3.329,3.329,3.329,3.329,3.329,3.329,3.329,3.329,3.329,3.329,3.329,3.329,3.329,3.329,3.329,3.329,3.329,3.329,3.329,3.329,3.329,3.329,3.329,3.329,3.329,3.3157,3.2846,3.2846,3.2583,3.2064,3.2173,3.2101,3.1882,3.2276,3.2485,3.2448,3.14,3.0895,3.0895,3.0895,3.0895,3.0895,3.0895,3.067,3.0266,3.0266,2.9819,2.9067,2.9067,2.8843,2.855,2.8922,2.9328,2.9626,3.179,3.1629,3.1408,3.0697,3.0558,3.0381,2.9972,2.9895,2.9895,2.9895,2.9895,2.9946,3.0023,2.9934,2.9934,2.996,2.9998,3.0037,3.019,3.019,3.047,3.1082,3.1119,3.1415,3.2074,3.2218,3.229,3.229,3.2897,3.3624,3.4414,3.4414,3.4414,3.438,3.4196,3.4128,3.4128,3.3833,3.3675,3.3675,3.3486,3.3536,3.364,3.3605,3.3548,3.3449,3.3415,3.331,3.315,3.3262,3.329,3.329,3.329,3.329,3.329,3.329,3.329,3.329,3.329,3.329,3.329,3.329,3.329,3.329,3.329,3.329,3.329,3.329,3.329,3.329,3.329,3.329,3.329,3.329,3.329,3.329,3.329,3.329,3.329,3.329,3.329,3.329,3.329,3.329,3.329,3.329,3.329,3.3206,3.2952,3.305,3.307,3.3034,3.3145,3.3286,3.3493,3.3996,3.4284,3.427,3.2422,3.1519,3.145,3.145,3.1397,3.1304,3.1304,3.1193,3.1044,3.1044,3.0557,2.9819,2.9858,2.9445,2.8922,2.9665,3.0342,3.0895,3.2132,3.1827,3.1556,3.1445,3.1161,3.0785,3.0368,3.033,3.033,3.033,3.033,3.0444,3.0798,3.0533,3.0432,3.072,3.0758,3.1057,3.1759,3.1796,3.1819,3.1928,3.1928,3.2001,3.211,3.272,3.3038,3.3038,3.3143,3.3624,3.4414,3.4414,3.4414,3.438,3.4196,3.4196,3.4346,3.4128,3.4025,3.4025,3.3991,3.3937,3.3827,3.3675,3.3279,3.2812,3.2627,3.2525,3.2609,3.3108,3.329,3.329,3.329,3.329,3.329,3.329,3.329,3.329,3.329,3.329,3.329,3.329,3.329,3.329,3.329,3.329,3.329,3.329,3.329,3.329,3.329,3.329,3.329,3.329,3.329,3.329,3.329,3.329,3.329,3.329,3.329,3.329,3.329,3.329,3.329,3.329,3.329,3.3122,3.2775,3.3228,3.3431,3.3257,3.3755,3.4118,3.4343,3.4426,3.4542,3.4729,3.4258,3.3941,3.3759,3.3759,3.3481,3.298,3.298,3.2475,3.1686,3.1686,3.1095,3.0241,3.0418,3.0418,3.0342,3.0632,3.082,3.0895,3.2205,3.2059,3.1863,3.1629,3.1445,3.1198,3.0785,3.0748,3.0748,3.0748,3.0748,3.0785,3.0986,3.0823,3.106,3.1779,3.1476,3.1563,3.2335,3.2371,3.2599,3.3038,3.3038,3.3157,3.3395,3.3707,3.3859,3.3859,3.3859,3.4045,3.4414,3.4414,3.4414,3.4414,3.4312,3.4312,3.438,3.4196,3.4094,3.4094,3.4005,3.4005,3.4005,3.3813,3.3622,3.3346,3.3022,3.2707,3.2497,3.308,3.329,3.329,3.329,3.329,3.329,3.329,3.329,3.329,3.329,3.329,3.329,3.329,3.329,3.329,3.329,3.329,3.329,3.329,3.329,3.329,3.329,3.329,3.329,3.329,3.329,3.329,3.329,3.329,3.329,3.329,3.3797,3.4136,3.4136,3.4462,3.4711,3.4711,3.4496,3.4206,3.379,3.409,3.4116,3.3789,3.4176,3.4403,3.4517,3.453,3.4734,3.5128,3.509,3.4742,3.4203,3.4094,3.3758,3.3276,3.3192,3.2881,3.2461,3.2354,3.1773,3.0996,3.1206,3.1355,3.1452,3.1415,3.1759,3.2259]}]]